[[{"header":{"parameterUnit":"m.s-1","parameterCategory":1,"la1":30.6,"la2":29.2853,"lo1":-89.7004,"lo2":-87.6739,"dy":0.0162,"dx":0.0183,"nx":112,"ny":82,"refTime":"2025-01-12T06:00:00:Z","depth":0,"parameterNumber":2,"parameterNumberName":"U-component_of_WINDS"},"data":[0.0,0.0,0.0,0.0,0.0,0.0,0.0,0.0,0.0,0.0,0.0,0.0,0.0,0.0,0.0,0.0,0.0,0.0,0.0,0.0,0.0,0.0,0.0,0.0,0.0,0.0,0.0,0.0,0.0,0.0,0.0,0.0,0.0,0.0,0.0,0.0,0.0,0.0,0.0,0.0,0.0,0.0,0.0,0.0,0.0,0.0,0.0,0.0,0.0,0.0,0.0,0.0,0.0,0.0,0.0,0.0,0.0,0.0,0.0,0.0,0.0,0.0,0.0,0.0,0.0,0.0,0.0,0.0,0.0,0.0,0.0,0.0,0.0,0.0,0.0,0.0,0.0,0.0,0.0,0.0,0.0,0.0,0.0,0.0,0.0,0.0,0.0,0.0,0.0,0.0,-4.814,-5.1389,-5.55,-5.7703,-5.7042,-5.6014,-5.3078,-4.7626,0.0,0.0,0.0,0.0,0.0,0.0,0.0,0.0,0.0,0.0,0.0,0.0,0.0,0.0,0.0,0.0,0.0,0.0,0.0,0.0,0.0,0.0,0.0,0.0,0.0,0.0,0.0,0.0,0.0,0.0,0.0,0.0,0.0,0.0,0.0,0.0,0.0,0.0,0.0,0.0,0.0,0.0,0.0,0.0,0.0,0.0,0.0,0.0,0.0,0.0,0.0,0.0,0.0,0.0,0.0,0.0,0.0,0.0,0.0,0.0,0.0,0.0,0.0,0.0,0.0,0.0,0.0,0.0,0.0,0.0,0.0,0.0,0.0,0.0,0.0,0.0,0.0,0.0,0.0,0.0,0.0,0.0,0.0,0.0,0.0,0.0,0.0,0.0,0.0,0.0,0.0,0.0,0.0,0.0,0.0,0.0,0.0,0.0,0.0,0.0,0.0,0.0,0.0,0.0,-4.86,-5.5207,-5.7152,-5.796,-5.7813,-5.5831,-5.2747,-4.8416,0.0,0.0,0.0,0.0,0.0,0.0,0.0,0.0,0.0,0.0,0.0,0.0,0.0,0.0,0.0,0.0,0.0,0.0,0.0,0.0,0.0,0.0,0.0,0.0,0.0,0.0,0.0,0.0,0.0,0.0,0.0,0.0,0.0,0.0,0.0,0.0,0.0,0.0,0.0,0.0,0.0,0.0,0.0,0.0,0.0,0.0,0.0,0.0,0.0,0.0,0.0,0.0,0.0,0.0,0.0,0.0,0.0,0.0,0.0,0.0,0.0,0.0,0.0,0.0,0.0,0.0,0.0,0.0,0.0,0.0,0.0,0.0,0.0,0.0,0.0,0.0,0.0,0.0,0.0,0.0,0.0,0.0,0.0,0.0,0.0,0.0,0.0,0.0,0.0,0.0,0.0,0.0,0.0,0.0,0.0,0.0,0.0,0.0,0.0,0.0,0.0,0.0,0.0,-4.7682,-5.0839,-5.6822,-5.7776,-5.7997,-5.7997,-5.5794,-5.2637,-4.8563,-4.3718,0.0,0.0,0.0,0.0,0.0,0.0,0.0,0.0,0.0,0.0,0.0,0.0,0.0,0.0,0.0,0.0,0.0,0.0,0.0,0.0,0.0,0.0,0.0,0.0,0.0,0.0,0.0,0.0,0.0,0.0,0.0,0.0,0.0,0.0,0.0,0.0,0.0,0.0,0.0,0.0,0.0,0.0,0.0,0.0,0.0,0.0,0.0,0.0,0.0,0.0,0.0,0.0,0.0,0.0,0.0,0.0,0.0,0.0,0.0,0.0,0.0,0.0,0.0,0.0,0.0,0.0,0.0,0.0,0.0,0.0,0.0,0.0,0.0,0.0,0.0,0.0,0.0,0.0,0.0,0.0,0.0,0.0,0.0,0.0,0.0,0.0,0.0,0.0,0.0,0.0,0.0,0.0,0.0,0.0,0.0,0.0,0.0,0.0,0.0,0.0,0.0,0.0,-5.1756,-5.3702,-5.7593,-5.7997,-5.7997,-5.7997,-5.528,-5.1977,-4.8269,-4.2396,0.0,0.0,0.0,0.0,0.0,0.0,0.0,0.0,0.0,0.0,0.0,0.0,0.0,0.0,0.0,0.0,0.0,0.0,0.0,0.0,0.0,0.0,0.0,0.0,0.0,0.0,0.0,0.0,0.0,0.0,0.0,0.0,0.0,0.0,0.0,0.0,0.0,0.0,0.0,0.0,0.0,0.0,0.0,0.0,0.0,0.0,0.0,0.0,0.0,0.0,0.0,0.0,0.0,0.0,0.0,0.0,0.0,0.0,0.0,0.0,0.0,0.0,0.0,0.0,0.0,0.0,0.0,0.0,0.0,0.0,0.0,0.0,0.0,0.0,0.0,0.0,0.0,0.0,0.0,0.0,0.0,0.0,0.0,0.0,0.0,0.0,0.0,0.0,0.0,0.0,0.0,0.0,0.0,0.0,0.0,0.0,0.0,0.0,0.0,0.0,0.0,0.0,-5.3151,-5.6785,-5.7886,-5.7997,-5.7997,-5.7997,-5.3739,-4.9958,-4.7333,-4.0487,0.0,0.0,0.0,0.0,0.0,0.0,0.0,0.0,0.0,0.0,0.0,0.0,0.0,0.0,0.0,0.0,0.0,0.0,0.0,0.0,0.0,0.0,0.0,0.0,0.0,0.0,0.0,0.0,0.0,0.0,0.0,0.0,0.0,0.0,0.0,0.0,0.0,0.0,0.0,0.0,0.0,0.0,0.0,0.0,0.0,0.0,0.0,0.0,0.0,0.0,0.0,0.0,0.0,0.0,0.0,0.0,0.0,0.0,0.0,0.0,0.0,0.0,0.0,0.0,0.0,0.0,0.0,0.0,0.0,0.0,0.0,0.0,0.0,0.0,0.0,0.0,0.0,0.0,0.0,0.0,0.0,0.0,0.0,0.0,0.0,0.0,0.0,0.0,0.0,0.0,0.0,0.0,0.0,0.0,0.0,0.0,0.0,0.0,0.0,0.0,0.0,0.0,-5.1977,-5.5464,0.0,-5.7997,-5.7813,-5.7299,-5.4656,-5.1132,-4.6654,0.0,0.0,0.0,0.0,0.0,0.0,0.0,0.0,0.0,0.0,0.0,0.0,0.0,0.0,0.0,0.0,0.0,0.0,0.0,0.0,0.0,0.0,0.0,0.0,0.0,0.0,0.0,0.0,0.0,0.0,0.0,0.0,0.0,0.0,0.0,0.0,0.0,0.0,0.0,0.0,0.0,0.0,0.0,0.0,0.0,0.0,0.0,0.0,0.0,0.0,0.0,0.0,0.0,0.0,0.0,0.0,0.0,0.0,0.0,0.0,0.0,0.0,0.0,0.0,0.0,0.0,0.0,0.0,0.0,0.0,0.0,0.0,0.0,0.0,0.0,0.0,0.0,0.0,0.0,0.0,0.0,0.0,0.0,0.0,0.0,0.0,0.0,0.0,0.0,0.0,0.0,0.0,0.0,0.0,0.0,0.0,0.0,0.0,0.0,0.0,0.0,0.0,-4.7609,-5.205,-5.5574,0.0,-5.7997,-5.7666,-5.6859,-5.4142,-5.0362,-4.5443,0.0,0.0,0.0,0.0,0.0,0.0,0.0,0.0,0.0,0.0,0.0,0.0,0.0,0.0,0.0,0.0,0.0,0.0,0.0,0.0,0.0,0.0,0.0,0.0,0.0,0.0,0.0,0.0,0.0,0.0,0.0,0.0,0.0,0.0,0.0,0.0,0.0,0.0,0.0,0.0,0.0,0.0,0.0,0.0,0.0,0.0,0.0,0.0,0.0,0.0,0.0,0.0,0.0,0.0,0.0,0.0,0.0,0.0,0.0,0.0,0.0,0.0,0.0,0.0,0.0,0.0,0.0,0.0,0.0,0.0,0.0,0.0,0.0,0.0,0.0,0.0,0.0,0.0,0.0,0.0,0.0,0.0,0.0,0.0,0.0,0.0,0.0,0.0,0.0,0.0,0.0,0.0,0.0,0.0,0.0,0.0,0.0,0.0,0.0,0.0,0.0,0.0,-4.7902,-5.3995,-5.7997,-5.7997,-5.7997,-5.7666,-5.6859,-5.161,-4.6948,0.0,0.0,0.0,0.0,0.0,0.0,0.0,0.0,0.0,0.0,0.0,0.0,0.0,0.0,0.0,0.0,0.0,0.0,0.0,0.0,0.0,0.0,0.0,0.0,0.0,0.0,0.0,0.0,0.0,0.0,0.0,0.0,0.0,0.0,0.0,0.0,0.0,0.0,0.0,0.0,0.0,0.0,0.0,0.0,0.0,0.0,0.0,0.0,0.0,0.0,0.0,0.0,0.0,0.0,0.0,0.0,0.0,0.0,0.0,0.0,0.0,0.0,0.0,0.0,0.0,0.0,0.0,0.0,0.0,0.0,0.0,0.0,0.0,0.0,0.0,0.0,0.0,0.0,0.0,0.0,0.0,0.0,0.0,0.0,0.0,0.0,0.0,0.0,0.0,0.0,0.0,0.0,0.0,0.0,0.0,0.0,0.0,0.0,0.0,0.0,0.0,0.0,0.0,-4.7902,-5.3995,-5.7997,-5.7997,-5.7997,-5.7446,-5.6051,-5.2858,-4.8563,-4.2983,0.0,0.0,0.0,0.0,0.0,0.0,0.0,0.0,0.0,0.0,0.0,0.0,0.0,0.0,0.0,0.0,0.0,0.0,0.0,0.0,0.0,0.0,0.0,0.0,0.0,0.0,0.0,0.0,0.0,0.0,0.0,0.0,0.0,0.0,0.0,0.0,0.0,0.0,0.0,0.0,0.0,0.0,0.0,0.0,0.0,0.0,0.0,0.0,0.0,0.0,0.0,0.0,0.0,0.0,0.0,0.0,0.0,0.0,0.0,0.0,0.0,0.0,0.0,0.0,0.0,0.0,0.0,0.0,0.0,0.0,0.0,0.0,0.0,0.0,0.0,0.0,0.0,0.0,0.0,0.0,0.0,0.0,0.0,0.0,0.0,0.0,0.0,0.0,0.0,0.0,0.0,0.0,0.0,0.0,0.0,0.0,0.0,0.0,0.0,0.0,0.0,0.0,-4.7902,-5.3995,-5.7997,-5.7997,-5.7997,-5.7336,-5.5743,-5.3371,-4.9334,-4.3167,0.0,0.0,0.0,0.0,0.0,0.0,0.0,0.0,0.0,0.0,0.0,0.0,0.0,0.0,0.0,0.0,0.0,0.0,0.0,0.0,0.0,0.0,0.0,0.0,0.0,0.0,0.0,0.0,0.0,0.0,0.0,0.0,0.0,0.0,0.0,0.0,0.0,0.0,0.0,0.0,0.0,0.0,0.0,0.0,0.0,0.0,0.0,0.0,0.0,0.0,0.0,0.0,0.0,0.0,0.0,0.0,0.0,0.0,0.0,0.0,0.0,0.0,0.0,0.0,0.0,0.0,0.0,0.0,0.0,0.0,0.0,0.0,0.0,0.0,0.0,0.0,0.0,0.0,0.0,0.0,0.0,0.0,0.0,0.0,0.0,0.0,0.0,0.0,0.0,0.0,0.0,0.0,0.0,0.0,0.0,0.0,0.0,0.0,0.0,0.0,0.0,0.0,-4.8012,-5.4032,-5.7997,-5.7997,-5.7997,-5.7373,-5.5831,-5.3482,-4.9701,-4.4102,0.0,0.0,0.0,0.0,0.0,0.0,0.0,0.0,0.0,0.0,0.0,0.0,0.0,0.0,0.0,0.0,0.0,0.0,0.0,0.0,0.0,0.0,0.0,0.0,0.0,0.0,0.0,0.0,0.0,0.0,0.0,0.0,0.0,0.0,0.0,0.0,0.0,0.0,0.0,0.0,0.0,0.0,0.0,0.0,0.0,0.0,0.0,0.0,0.0,0.0,0.0,0.0,0.0,0.0,0.0,0.0,0.0,0.0,0.0,0.0,-4.2644,0.0,0.0,0.0,0.0,0.0,0.0,0.0,0.0,0.0,0.0,0.0,0.0,0.0,0.0,0.0,0.0,0.0,0.0,0.0,0.0,0.0,0.0,0.0,0.0,0.0,0.0,0.0,0.0,0.0,0.0,0.0,0.0,0.0,0.0,0.0,0.0,0.0,0.0,0.0,0.0,0.0,-4.8839,-5.4399,-5.7997,-5.7997,-5.7997,-5.7593,-5.6638,-5.4326,-5.0802,-4.57,-4.1295,0.0,0.0,0.0,0.0,0.0,0.0,0.0,0.0,0.0,0.0,0.0,0.0,0.0,0.0,0.0,0.0,0.0,0.0,0.0,0.0,0.0,0.0,0.0,0.0,0.0,0.0,0.0,0.0,0.0,0.0,0.0,0.0,0.0,0.0,0.0,0.0,0.0,0.0,0.0,0.0,0.0,0.0,0.0,0.0,0.0,0.0,0.0,0.0,0.0,0.0,0.0,0.0,0.0,0.0,0.0,0.0,0.0,0.0,0.0,0.0,-4.4734,0.0,0.0,0.0,0.0,0.0,0.0,0.0,0.0,0.0,0.0,0.0,0.0,0.0,0.0,0.0,0.0,0.0,0.0,0.0,0.0,0.0,0.0,0.0,0.0,0.0,0.0,0.0,0.0,0.0,0.0,0.0,0.0,0.0,0.0,0.0,0.0,0.0,0.0,0.0,0.0,-4.9096,-5.4509,-5.7997,-5.7997,-5.7997,-5.7666,-5.6859,-5.495,-5.2197,-4.8489,-4.3718,0.0,0.0,0.0,0.0,0.0,0.0,0.0,0.0,0.0,0.0,0.0,0.0,0.0,0.0,0.0,0.0,0.0,0.0,0.0,0.0,0.0,0.0,0.0,0.0,0.0,0.0,0.0,0.0,0.0,0.0,0.0,0.0,0.0,0.0,0.0,0.0,0.0,0.0,0.0,0.0,0.0,0.0,0.0,0.0,0.0,0.0,0.0,0.0,0.0,0.0,0.0,0.0,0.0,-5.1657,-5.2097,-5.257,-5.257,-5.3246,-5.4261,-5.0557,-4.9474,-4.996,-4.5933,0.0,0.0,0.0,0.0,0.0,0.0,0.0,0.0,0.0,0.0,0.0,0.0,0.0,0.0,0.0,0.0,0.0,0.0,0.0,0.0,0.0,0.0,0.0,0.0,-4.9738,-4.9334,-4.2506,0.0,0.0,0.0,0.0,0.0,0.0,0.0,0.0,0.0,0.0,0.0,-4.9481,-5.4656,-5.7997,-5.7997,-5.7997,-5.774,-5.7079,-5.5647,-5.3775,-5.1389,-4.6544,-4.2873,0.0,0.0,0.0,0.0,0.0,0.0,0.0,0.0,0.0,0.0,0.0,0.0,0.0,0.0,0.0,0.0,0.0,0.0,0.0,0.0,0.0,0.0,0.0,0.0,0.0,0.0,0.0,0.0,0.0,0.0,0.0,0.0,-4.4682,-4.6041,0.0,0.0,0.0,0.0,0.0,0.0,0.0,0.0,0.0,0.0,0.0,0.0,0.0,-5.1116,-5.2739,-5.4668,-5.5716,-5.5953,-5.7848,-5.849,-5.7983,-5.7983,-5.8109,-5.8322,-5.7765,0.0,-5.0856,-4.835,0.0,0.0,0.0,0.0,0.0,0.0,0.0,0.0,0.0,0.0,0.0,0.0,0.0,0.0,0.0,0.0,0.0,0.0,0.0,0.0,0.0,0.0,-5.3115,-5.2564,-5.2653,-5.2417,0.0,-4.5883,-4.1368,-3.9313,-3.6156,0.0,0.0,0.0,0.0,0.0,0.0,0.0,-5.1169,-5.539,-5.7997,-5.7997,-5.7997,-5.796,-5.785,-5.7005,-5.5464,-5.302,-5.0875,-4.8012,-4.4232,-4.0744,0.0,0.0,0.0,0.0,0.0,0.0,0.0,0.0,0.0,0.0,0.0,0.0,0.0,0.0,0.0,0.0,0.0,0.0,0.0,0.0,0.0,0.0,0.0,0.0,0.0,0.0,0.0,0.0,0.0,-4.4485,-4.621,-4.7293,-4.6549,-4.5573,0.0,0.0,0.0,0.0,0.0,0.0,0.0,0.0,0.0,-5.3788,-5.4194,-5.548,-5.7881,-5.8829,-5.9742,-6.0588,-6.1129,-6.1434,-6.1535,-6.1095,-6.0951,-6.095,-6.054,-5.9075,-5.6709,-5.3147,-5.0119,-4.7596,0.0,0.0,0.0,0.0,-4.6329,-4.7027,-4.9581,-5.0262,-4.9727,-4.8037,0.0,0.0,0.0,0.0,0.0,0.0,0.0,0.0,0.0,0.0,-5.4546,-5.5097,-5.5574,-5.5684,-5.4876,-5.1756,-4.7792,0.0,-4.1515,-3.946,-3.5826,0.0,0.0,0.0,0.0,-4.9077,-5.227,-5.5794,-5.7997,-5.7997,-5.7997,-5.7997,-5.7997,-5.7262,-5.6161,-5.4656,-5.2601,-5.0472,-4.8233,-4.4562,-4.1295,0.0,0.0,0.0,0.0,0.0,0.0,0.0,0.0,0.0,0.0,0.0,0.0,0.0,0.0,0.0,0.0,0.0,0.0,0.0,0.0,0.0,0.0,0.0,0.0,0.0,0.0,0.0,0.0,-4.6752,-4.8206,-4.8951,-4.919,-4.868,0.0,0.0,0.0,0.0,0.0,0.0,-5.257,-5.3382,-5.5141,-5.8152,-5.8423,-5.9674,-6.211,-6.2144,-6.2787,-6.4072,-6.3328,-6.326,-6.3768,-6.3024,-6.2584,-6.2347,-6.1806,-6.1552,-6.1116,-5.7145,-5.4373,-5.2519,-5.0453,-4.9209,-4.8722,-5.0271,-5.0987,-5.1586,-5.4701,-5.5656,-5.5194,-5.3117,-5.1563,-4.9771,-4.5784,0.0,0.0,0.0,0.0,-5.0068,-5.2307,-5.3959,-5.539,-5.6785,-5.7556,-5.785,-5.7262,-5.6014,-5.3335,0.0,-4.6544,-4.4929,-3.9937,0.0,0.0,0.0,0.0,-5.1022,-5.3518,-5.6271,-5.7997,-5.7997,-5.7997,-5.7923,-5.7703,-5.7152,-5.6381,-5.5354,-5.3592,-5.216,-5.1169,-4.7792,-4.4709,-4.2049,0.0,0.0,0.0,0.0,0.0,0.0,0.0,0.0,0.0,0.0,0.0,0.0,0.0,0.0,0.0,0.0,0.0,0.0,0.0,0.0,0.0,0.0,0.0,0.0,0.0,0.0,0.0,0.0,0.0,-5.1995,-5.2739,0.0,0.0,0.0,0.0,-5.098,-5.4329,-5.6393,-5.6528,-5.9235,-6.1197,-6.2076,-6.2821,-6.3599,-6.4444,-6.4444,-6.4816,-6.5561,-6.485,-6.4512,-6.4512,-6.3802,-6.3057,-6.2381,-6.2347,-6.1946,-6.1147,-5.8772,-5.7421,-5.6659,-5.5087,-5.4011,-5.3521,-5.5033,-5.6027,-5.6924,-5.8421,-5.8464,-5.7937,-5.8537,-5.6139,-5.2947,-5.2705,-5.1039,0.0,0.0,-5.172,-5.3335,-5.4987,-5.6051,-5.6895,-5.774,-5.796,-5.7997,-5.796,-5.7299,-5.5684,0.0,-4.9774,-4.781,-4.6746,0.0,-4.6397,-4.8802,-5.0712,-5.2747,-5.517,-5.6932,-5.7997,-5.7997,-5.7997,-5.7703,-5.6932,-5.6822,-5.6124,-5.4546,-5.4363,-5.3592,-5.1977,-5.0215,-4.7755,-4.4581,-4.08,0.0,0.0,0.0,0.0,0.0,0.0,0.0,0.0,0.0,0.0,0.0,0.0,0.0,0.0,0.0,0.0,0.0,0.0,0.0,0.0,0.0,0.0,0.0,0.0,0.0,0.0,0.0,0.0,-5.5108,-5.6697,0.0,-5.5277,-5.5784,-5.6427,-5.69,-5.866,-6.0114,-6.1061,-6.2144,-6.326,-6.4478,-6.4783,-6.5256,-6.6034,-6.6034,-6.5899,-6.5662,-6.4952,-6.4343,-6.3869,-6.3125,-6.2651,-6.242,-6.2973,-6.3399,-6.3625,-6.2871,-6.0936,-5.8339,-5.7825,-5.7487,-5.7378,-5.8408,-5.931,-5.9993,-5.998,-6.0126,-6.0089,-5.8841,-5.6748,-5.473,-5.473,-5.4509,-5.4289,-5.4583,-5.5464,-5.6418,-5.7005,-5.7373,-5.7629,-5.7923,-5.7997,-5.7997,-5.7997,-5.7776,-5.7079,-5.5427,-5.3555,-5.1463,-4.9114,-4.9334,-4.9958,-5.0325,-5.216,-5.4216,-5.6124,-5.7336,-5.7813,-5.7299,-5.7226,-5.6895,-5.6088,-5.6014,-5.5354,-5.3739,-5.3628,-5.2931,-5.1279,-4.9627,-4.8071,-4.6675,-4.2907,-3.8801,0.0,0.0,0.0,0.0,0.0,0.0,0.0,0.0,0.0,0.0,0.0,0.0,0.0,0.0,0.0,0.0,0.0,0.0,0.0,0.0,0.0,0.0,0.0,0.0,0.0,0.0,-5.663,-5.7103,-5.9573,-6.0554,-5.8795,-5.9776,-6.0723,-6.1231,-6.2212,-6.3226,-6.4208,-6.4478,-6.5087,-6.6034,-6.6068,-6.6305,-6.6812,-6.6812,-6.644,-6.5662,-6.4952,-6.4208,-6.3497,-6.2719,-6.2381,-6.242,-6.3011,-6.361,-6.4114,-6.4215,-6.2546,-5.9939,-6.0619,-6.0653,-6.0487,-6.1018,-6.1557,-6.1924,-6.141,-6.1374,-6.13,-5.9428,-5.7886,-5.6748,-5.6492,-5.6785,-5.7189,-5.7189,-5.7593,-5.7997,-5.7997,-5.7997,-5.7997,-5.7997,-5.7997,-5.7997,-5.7997,-5.7997,-5.785,-5.7299,-5.6124,-5.4436,-5.2034,-5.2511,-5.3115,-5.2858,-5.4179,-5.5684,-5.7042,-5.7666,-5.7703,-5.6895,-5.6822,-5.6381,-5.528,-5.4693,-5.3922,-5.2858,-5.2013,-5.1206,-5.0435,-4.8783,-4.7702,-4.7264,-4.3335,-3.9916,-3.7015,0.0,0.0,0.0,0.0,0.0,0.0,0.0,0.0,0.0,0.0,0.0,0.0,0.0,0.0,0.0,0.0,0.0,0.0,0.0,0.0,0.0,0.0,0.0,-5.2334,-5.5649,-5.8051,-5.8118,-6.1366,-6.2753,-6.0554,-6.2313,-6.3632,-6.3632,-6.4918,-6.573,-6.573,-6.6406,-6.6812,-6.6812,-6.6812,-6.6812,-6.6812,-6.6812,-6.644,-6.5662,-6.4952,-6.4208,-6.3463,-6.2719,-6.2381,-6.2381,-6.2459,-6.2498,-6.2508,-6.267,-6.2266,-6.1708,-6.3382,-6.3551,-6.2755,-6.278,-6.278,-6.278,-6.278,-6.2291,-6.1484,-6.0676,-5.9869,-5.9038,-5.8253,-5.7997,-5.7997,-5.7997,-5.7997,-5.7997,-5.7997,-5.7997,-5.7997,-5.7997,-5.7997,-5.7997,-5.7997,-5.7997,-5.7997,-5.7997,-5.7373,-5.6602,-5.5757,-5.5647,-5.5904,-5.6675,-5.6822,0.0,-5.7886,-5.796,-5.7666,-5.6859,-5.6748,-5.6088,-5.4509,-5.2894,-5.1977,-5.1903,-4.9627,-4.8673,-4.95,-4.7939,-4.6855,-4.6387,-4.2231,-3.9841,-3.9323,0.0,0.0,0.0,0.0,0.0,0.0,0.0,0.0,0.0,0.0,0.0,0.0,0.0,0.0,0.0,0.0,0.0,0.0,0.0,0.0,0.0,-5.142,-5.4126,-5.5378,-5.8795,-6.1738,-6.3362,-6.4952,-6.5865,-6.5764,-6.5831,-6.5899,-6.5899,-6.6271,-6.6508,-6.6508,-6.6711,-6.6812,-6.6812,-6.6812,-6.6812,-6.6812,-6.6812,-6.617,-6.4884,-6.4681,-6.3937,-6.2685,-6.2482,-6.2381,-6.2459,-6.3721,-6.4288,-6.4356,-6.5105,-6.4946,-6.4186,-6.3437,-6.2631,-6.1996,-6.2567,-6.278,-6.278,-6.278,-6.2291,-6.1484,-6.0676,-5.9869,-5.9038,-5.8253,-5.7997,-5.7997,-5.7997,-5.7997,-5.7997,-5.7997,-5.7997,-5.7997,-5.7997,-5.7997,-5.7997,-5.7997,-5.7997,-5.7997,-5.7997,-5.7813,-5.7409,-5.6602,-5.6455,-5.6565,-5.6785,-5.6822,0.0,-5.7886,-5.7483,-5.6822,-5.6014,-5.539,-5.4656,-5.3628,-5.2601,-5.1463,-5.0251,-4.9003,-4.8159,-4.7792,-4.6801,-4.6163,-4.5975,-4.3531,-4.1558,0.0,0.0,0.0,0.0,0.0,0.0,0.0,0.0,0.0,0.0,0.0,0.0,0.0,0.0,0.0,0.0,0.0,0.0,0.0,0.0,0.0,0.0,-5.4296,-5.7171,-5.9302,-6.1738,-6.4038,-6.5933,-6.6812,-6.7421,-6.7861,-6.7523,-6.7151,-6.6846,-6.6812,-6.6812,-6.6812,-6.6812,-6.6812,-6.6812,-6.6812,-6.6812,-6.6812,-6.6508,-6.5764,-6.4613,-6.4309,-6.3531,-6.2381,-6.2381,-6.2381,-6.2459,-6.3464,-6.3936,-6.4008,-6.4982,-6.4882,0.0,0.0,0.0,0.0,0.0,-6.278,-6.278,-6.278,-6.2511,-6.1924,-6.0786,-6.0089,-5.9501,-5.8364,-5.7997,-5.7997,-5.7997,-5.7997,-5.7997,-5.7997,-5.7997,-5.7997,-5.7997,-5.7997,-5.7997,-5.7997,-5.7997,-5.7997,-5.7997,-5.7997,0.0,-5.7373,-5.7299,-5.7299,-5.7299,-5.7299,-5.7483,-5.7923,-5.7593,-5.7005,-5.6198,-5.5684,-5.495,-5.3812,-5.2344,0.0,0.0,0.0,-4.7253,-4.6587,-4.661,0.0,0.0,0.0,0.0,0.0,0.0,0.0,0.0,-4.1508,-4.1277,0.0,0.0,0.0,0.0,0.0,0.0,0.0,0.0,0.0,0.0,0.0,0.0,0.0,0.0,0.0,0.0,-5.6968,-6.0385,-6.3226,-6.4343,-6.5358,-6.6779,-6.7421,-6.7793,-6.7895,-6.7827,-6.7489,-6.688,-6.6812,-6.6812,-6.6812,0.0,0.0,0.0,0.0,-6.6779,-6.6677,-6.6034,-6.5372,-6.4606,-6.3962,-6.3328,-6.2697,-6.2697,-6.2697,-6.2697,-6.2817,-6.2821,-6.2764,-6.3648,-6.3452,-6.2688,-6.3593,-6.3466,-6.278,-6.278,-6.278,-6.278,-6.278,0.0,0.0,-6.0933,-6.0419,-6.0089,-5.8474,-5.7997,-5.7997,-5.7997,-5.7997,-5.7997,-5.7997,-5.7997,-5.7997,-5.7997,-5.7997,-5.7997,-5.7997,-5.7997,-5.7997,-5.7997,-5.7997,-5.7997,-5.7997,-5.7997,-5.7997,-5.7997,-5.7997,-5.7997,-5.7997,-5.7923,-5.7593,-5.6895,0.0,0.0,-5.4656,-5.2417,-5.1022,-5.0949,-4.8397,-4.6734,-4.6385,-4.7528,-4.7732,-4.6881,-4.8729,-4.9663,-4.9663,-5.0548,-5.1097,-5.1135,-4.5547,-4.4615,0.0,0.0,0.0,0.0,0.0,0.0,0.0,0.0,0.0,0.0,0.0,0.0,0.0,0.0,0.0,-5.5649,-5.9302,-6.2347,-6.414,-6.5527,-6.6711,-6.759,-6.7286,-6.7252,-6.7827,-6.7354,-6.6948,-6.6812,-6.6812,-6.6812,-6.6812,-6.6812,-6.6812,-6.6812,-6.6812,-6.6508,-6.5899,-6.5764,-6.5397,-6.4735,0.0,0.0,-6.4494,-6.4494,-6.4494,-6.4529,-6.5332,-6.5229,-6.4613,-6.4887,-6.4147,-6.2761,-6.2973,-6.2952,-6.278,-6.278,-6.278,-6.278,-6.278,-6.278,-6.2523,-6.0933,-6.0419,-6.0089,-5.8474,-5.7997,0.0,-5.7997,-5.7997,-5.7997,-5.7997,-5.7997,-5.7997,-5.7997,-5.7997,-5.7997,-5.7997,-5.7997,-5.7997,-5.7997,-5.7997,-5.7997,-5.7997,-5.7997,-5.7997,-5.7997,-5.7997,-5.7997,-5.7997,-5.7446,-5.6969,-5.6822,-5.6235,-5.5684,-5.539,-5.3739,-5.2454,-5.1793,-5.0342,-4.961,-4.9811,-5.1001,-5.1204,-5.0352,-5.1058,-5.1423,-5.1423,-5.2279,-5.3395,-5.4664,-5.1433,-5.0692,0.0,0.0,0.0,0.0,0.0,0.0,0.0,0.0,0.0,0.0,0.0,-4.8477,-5.0371,0.0,-5.5547,-5.8558,-6.1264,-6.3463,-6.4918,-6.6102,-6.7083,-6.7793,-6.7557,-6.7489,-6.7861,-6.7557,-6.7218,-6.6846,-6.6812,-6.6812,-6.6812,-6.6812,-6.7029,-6.7461,-6.7501,-6.7364,-6.7115,-6.6699,-6.616,-6.5478,-6.5058,-6.495,-6.4999,-6.4999,-6.4999,-6.4997,-6.5098,-6.4863,-6.4424,-6.4114,-6.3534,-6.278,-6.278,-6.278,-6.278,-6.278,-6.278,-6.278,-6.278,-6.278,-6.2622,-6.1374,-6.075,-6.0162,-5.8988,-5.8327,-5.7997,-5.7997,-5.7997,-5.7997,-5.7997,-5.7997,-5.7997,-5.7997,-5.7997,-5.7997,-5.7997,-5.7997,-5.7997,-5.7997,-5.7997,-5.7997,-5.7997,-5.7997,-5.7997,-5.7997,-5.7997,-5.7997,-5.7997,-5.7666,-5.7409,-5.7409,-5.7042,-5.6638,-5.6235,-5.473,-5.3638,-5.3256,-5.2701,-5.2447,-5.2654,-5.3628,-5.3775,-5.292,-5.3909,-5.4434,-5.4434,-5.5318,-5.6165,-5.6973,-5.6126,-5.5742,0.0,0.0,0.0,0.0,0.0,0.0,0.0,0.0,-4.6583,-4.912,-5.0574,-5.2029,-5.4194,-5.6292,-5.8524,-6.1095,-6.2888,-6.4343,-6.5527,-6.6339,-6.6981,-6.7421,-6.759,-6.7692,-6.7692,-6.7692,-6.7455,-6.6846,-6.6812,-6.6812,-6.6812,-6.6988,-6.7414,-6.815,-6.8242,-6.8278,-6.8257,-6.7443,-6.6766,-6.6155,-6.5548,-6.5358,-6.5518,-6.5518,-6.5518,-6.5482,-6.4492,-6.3993,-6.3774,-6.3005,-6.2774,-6.278,-6.278,-6.278,-6.278,-6.278,-6.278,-6.278,-6.278,-6.278,-6.2695,-6.1851,-6.1043,-6.0272,-5.9441,-5.8657,-5.7997,-5.7997,-5.7997,-5.7997,-5.7997,-5.7997,-5.7997,-5.7997,-5.7997,-5.7997,-5.7997,-5.7997,-5.7997,-5.7997,-5.7997,-5.7997,-5.7997,-5.7997,-5.7997,-5.7997,-5.7997,-5.7997,-5.7997,-5.7997,-5.7997,-5.7997,-5.7997,-5.7666,-5.6859,-5.5611,-5.4896,-5.4948,-5.4975,-5.5038,-5.522,-5.5857,-5.5895,-5.5241,-5.6549,-5.733,-5.7484,-5.8204,-5.8627,-5.8819,-5.9435,-5.9319,-4.4242,-4.3058,-4.276,-4.4722,-4.4823,-4.6036,0.0,0.0,-5.1488,-5.5074,-5.5953,-5.6528,-5.8118,-5.9708,-6.1129,-6.211,-6.4038,-6.5493,-6.5662,-6.6339,-6.6609,-6.6,-6.6508,-6.6948,-6.6948,-6.6948,-6.6914,-6.6812,-6.6812,-6.6812,-6.6812,-6.7582,-6.8107,-6.8189,-6.8391,-6.8117,-6.7442,-6.6664,-6.6284,-6.6361,-6.6253,-6.6641,-6.7396,-6.7396,-6.7396,-6.7296,-6.5796,-6.4735,-6.4004,-6.3167,-6.2803,-6.278,-6.278,-6.278,-6.278,-6.278,-6.278,-6.278,-6.278,-6.278,-6.2695,-6.1851,-6.1043,-6.0272,-5.9441,-5.8657,-5.7997,-5.7997,-5.7997,-5.7997,-5.7997,-5.7997,-5.7997,-5.7997,-5.7997,-5.7997,-5.7997,-5.7997,-5.7997,-5.7997,-5.7997,-5.7997,-5.7997,-5.7997,-5.7997,-5.7997,-5.7997,-5.7997,-5.7997,-5.7997,-5.7997,-5.7997,-5.7997,-5.7666,-5.6859,-5.6638,-5.6561,-5.6643,-5.6618,-5.6998,-5.7835,-5.7973,-5.7973,-5.7896,-5.805,-5.8511,-5.9204,-5.9319,-5.9742,-6.0512,-6.0589,-6.0204,-4.7834,-4.7022,0.0,0.0,-4.9018,-5.0507,-5.3315,-5.3551,-5.3991,-5.6833,-5.7442,-5.8017,-5.9979,-6.0858,-6.1839,0.0,-6.4444,-6.5189,-6.5628,-6.5967,-6.5902,-6.5202,-6.5345,-6.5696,-6.6102,-6.6542,-6.6812,-6.6812,-6.6812,-6.6812,-6.6812,-6.7668,-6.8249,-6.8355,-6.8992,-6.8974,-6.8247,-6.7921,-6.7556,-6.7174,-6.7174,-6.7378,-6.7687,-6.7687,-6.7173,-6.6256,-6.5595,-6.4567,-6.3319,-6.2952,-6.278,-6.278,-6.278,-6.278,-6.278,-6.278,-6.278,-6.278,-6.278,-6.278,-6.2743,-6.2401,-6.1447,-6.0346,-6.0015,-5.9024,-5.7997,-5.7997,-5.7997,-5.7997,-5.7997,-5.7997,-5.7997,-5.7997,-5.7997,-5.7997,-5.7997,-5.7997,-5.7997,-5.7997,-5.7997,-5.7997,-5.7997,-5.7997,-5.8074,-5.8354,-5.815,-5.7997,-5.7997,-5.7997,-5.7997,-5.7997,-5.7997,-5.785,-5.7519,-5.7759,-5.8022,-5.8319,-5.8619,-5.905,-5.9731,-5.9742,-5.9742,-5.9742,-5.9742,-5.9935,-6.0242,-6.0242,-6.0435,-6.0781,-6.0781,-6.0589,-4.8917,0.0,0.0,-5.0202,-5.2131,-5.3923,-5.4329,-5.4803,-5.5784,-5.778,-5.8186,-5.8829,-6.0926,-6.1467,-6.2245,-6.4275,-6.4613,-6.485,-6.5595,-6.5535,-6.5152,-6.4467,-6.4549,-6.4781,-6.509,-6.5793,-6.6305,-6.6474,-6.6765,-6.6998,-6.7202,-6.8131,-6.8715,-6.8884,-6.9345,-6.9391,-6.8898,-6.8678,-6.8274,-6.7687,-6.7467,-6.7357,-6.7357,-6.7136,-6.6292,-6.4971,-6.4971,-6.4163,-6.278,-6.278,-6.278,-6.278,-6.278,-6.278,-6.278,-6.278,-6.278,-6.278,-6.278,-6.278,-6.2768,-6.2548,-6.152,-6.0382,-6.0162,-5.9098,-5.7997,-5.7997,-5.7997,-5.7997,-5.7997,-5.7997,-5.7997,-5.7997,-5.7997,-5.7997,-5.7997,-5.7997,-5.7997,-5.7997,-5.7997,-5.7997,-5.7997,-5.8097,-5.8326,-5.8652,-5.8508,-5.8375,-5.8375,-5.8375,-5.8375,-5.8375,-5.8375,-5.8375,-5.8375,-5.8713,-5.9084,-5.9559,-5.9916,-6.0311,-6.0769,-6.0781,-6.0781,-6.0781,-6.0781,-6.0781,-6.0781,-6.0781,-6.0781,-6.0781,-6.0781,-6.0781,0.0,0.0,-5.0236,-5.098,-5.2875,-5.4938,-5.6359,-5.6731,-5.7171,-5.866,-5.8998,-5.9438,-6.1028,-6.1873,-6.2854,-6.4377,-6.4613,-6.485,-6.5595,-6.5138,-6.4473,-6.3749,-6.4323,-6.4497,0.0,-6.4288,-6.4952,-6.5662,-6.6563,-6.7388,-6.8115,-6.9207,-6.9845,-6.9841,-6.9253,-6.8908,-6.8898,-6.8128,-6.7724,-6.7687,-6.6916,-6.6549,-6.6512,-6.5742,-6.4934,-6.4127,-6.4127,-6.3613,-6.278,-6.278,-6.278,-6.278,-6.278,-6.278,-6.278,-6.278,-6.278,-6.278,-6.278,-6.278,-6.267,-6.1887,-6.108,-6.0272,-5.9478,-5.8657,-5.7997,-5.7997,-5.7997,-5.7997,-5.7997,-5.7997,-5.7997,-5.7997,-5.7997,-5.7997,-5.7997,-5.7997,-5.7997,-5.7997,-5.7997,-5.7997,-5.7997,-5.8375,-5.8693,-5.8713,-5.9103,-5.9354,-5.9354,-5.9354,-5.9354,-5.9354,-5.9354,-5.9354,-5.9354,-5.9372,-5.9559,-6.0059,-6.0103,-6.0311,-6.0769,-6.0781,-6.0781,-6.0781,-6.0781,-6.0781,-6.0781,-6.0781,-6.0781,-6.0781,-6.0781,-6.0781,0.0,0.0,-5.1995,-5.3754,-5.5141,-5.6325,-5.7306,-5.7509,-5.7679,-5.8152,-5.8254,-5.8423,-5.893,-6.0091,-6.1487,-6.3036,-6.4135,-6.5089,-6.5856,-6.6214,-6.5756,-6.4017,-6.446,0.0,0.0,0.0,0.0,-6.5817,-6.7215,-6.7903,-6.7621,-6.9077,-6.9404,-6.8358,-6.8661,-6.8641,-6.8091,-6.7834,-6.743,-6.688,-6.6109,-6.5705,-6.5705,-6.5411,-6.4861,-6.409,-6.409,-6.3613,-6.278,-6.278,-6.278,-6.278,-6.278,-6.278,-6.278,-6.278,-6.278,-6.278,-6.278,-6.278,-6.2695,-6.1851,-6.1043,-6.0272,-5.9441,-5.8657,-5.7997,-5.7997,-5.7997,-5.7997,-5.7997,-5.7997,-5.7997,-5.7997,-5.7997,-5.7997,-5.7997,-5.7997,-5.7997,-5.7997,-5.7997,-5.8097,-5.8418,-5.8591,-5.8913,-5.9526,-5.9492,-5.9389,-5.9389,-5.9389,-5.9389,-5.9389,-5.9389,-5.9389,-5.9389,-5.9712,-5.9931,-6.0103,-6.0378,-6.0634,-6.0781,-6.0781,-6.0781,-6.0781,-6.0781,-6.0781,-6.0781,-6.0781,-6.0781,-6.0781,-6.0781,-6.0781,-5.0947,-5.2334,-5.3585,-5.5615,-5.6664,-5.7306,-5.778,-5.7679,-5.7509,-5.7509,-5.707,-5.6867,-5.7408,-5.8358,-5.9702,-6.18,-6.3205,-6.4496,-6.59,-6.6283,-6.604,-6.4914,-6.4975,-6.4729,0.0,0.0,0.0,-6.5545,-6.7161,-6.8059,-6.7812,-6.8935,-6.9074,-6.8021,-6.832,-6.8201,-6.7714,-6.7393,-6.6696,-6.5632,-6.5118,-6.4714,-6.442,-6.442,-6.4127,-6.3649,-6.3649,-6.3319,-6.278,-6.278,-6.278,-6.278,-6.278,-6.278,-6.278,-6.278,-6.278,-6.278,-6.278,-6.278,-6.2695,-6.1851,-6.1043,-6.0272,-5.9441,-5.8657,-5.7997,-5.7997,-5.7997,-5.7997,-5.7997,-5.7997,-5.7997,-5.7997,-5.7997,-5.7997,-5.7997,-5.7997,-5.7997,-5.7997,-5.8142,-5.8369,-5.8652,-5.899,-5.9458,-6.0217,-6.0103,-5.9901,-5.9901,-5.9901,-5.9901,-5.9901,-5.9901,-5.9901,-5.9901,-6.0175,-6.0351,-6.0351,-6.0634,-6.0781,-6.0781,-6.0781,-6.0781,-6.0781,-6.0781,-6.0781,-6.0781,-6.0781,-6.0781,-6.0781,-6.0781,-6.0781,-5.2063,-5.3551,-5.504,-5.6494,-5.7374,-5.7881,-5.7848,-5.7306,-5.6765,-5.6664,-5.548,-5.4871,0.0,0.0,-5.7702,-6.0619,-6.1931,-6.3446,-6.5814,-6.5583,-6.5497,0.0,0.0,0.0,0.0,0.0,0.0,-6.5057,0.0,-6.7945,-6.8636,-6.8807,-6.8898,-6.8862,-6.8091,-6.7687,-6.7687,-6.6843,-6.5632,-6.409,-6.4053,-6.3613,-6.278,-6.278,-6.278,-6.278,-6.278,-6.278,-6.278,-6.278,-6.278,-6.278,-6.278,-6.278,-6.278,-6.278,-6.278,-6.278,-6.278,-6.278,-6.2695,-6.1851,-6.108,-6.0309,-5.9515,-5.8694,-5.807,-5.807,-5.8033,-5.7997,-5.7997,-5.7997,-5.7997,-5.7997,-5.7997,-5.7997,-5.7997,-5.802,-5.8042,-5.8042,-5.8439,-5.8756,-5.8756,-5.9526,-6.0297,-6.0734,-6.0781,-6.0781,-6.0781,-6.0781,-6.0781,-6.0781,-6.0781,-6.0781,-6.0781,-6.0781,-6.0781,-6.0781,-6.0781,-6.0781,-6.0781,-6.0781,-6.0781,-6.0781,-6.0781,-6.0781,-6.0781,-6.0781,-6.0781,-6.0781,-6.0781,-6.0781,-5.4126,-5.5513,-5.6461,-5.7374,-5.7746,-5.7746,-5.7205,-5.6934,-5.6325,-5.4668,-5.3585,-5.2503,0.0,0.0,0.0,-5.8022,-6.2272,0.0,-6.7902,-6.8516,0.0,-6.746,0.0,-6.658,-6.5367,-6.6003,0.0,0.0,-6.7631,-6.8401,-6.7971,-6.8568,-6.8641,-6.8017,-6.7797,-6.7687,-6.7687,-6.6329,-6.5118,-6.409,-6.3429,-6.3025,-6.278,-6.278,-6.278,-6.278,-6.278,-6.278,-6.278,-6.278,-6.278,-6.278,-6.278,-6.278,-6.278,-6.278,-6.278,-6.278,-6.278,-6.278,-6.2695,-6.1851,-6.1447,-6.1153,-6.0346,-5.9538,-5.8914,-5.8914,-5.8474,-5.7997,-5.7997,-5.7997,-5.7997,-5.7997,-5.7997,-5.7997,-5.7997,-5.8282,-5.8508,-5.8508,-5.9176,-5.976,-5.976,-6.0217,-6.0647,-6.0769,-6.0781,-6.0781,-6.0781,-6.0781,-6.0781,-6.0781,-6.0781,-6.0781,-6.0781,-6.0781,-6.0781,-6.0781,-6.0781,-6.0781,-6.0781,-6.0781,-6.0781,-6.0781,-6.0781,-6.0781,-6.0781,-6.0781,-6.0781,-6.0781,-6.0781,-6.0781,-5.5649,-5.6731,-5.7374,-5.778,-5.7645,-5.7137,-5.6089,-5.531,-5.4194,-5.1995,-5.0913,0.0,0.0,0.0,0.0,0.0,0.0,0.0,-6.8466,-6.9231,-6.942,0.0,-6.8972,0.0,-6.699,-6.7283,-6.7393,0.0,-6.7871,-6.8164,-6.7724,-6.8128,-6.8164,-6.7687,-6.7687,-6.7357,-6.6659,-6.5742,-6.4714,-6.3503,-6.3025,-6.278,-6.278,-6.278,-6.278,-6.278,0.0,-6.278,-6.278,-6.278,-6.278,-6.278,-6.278,-6.278,-6.278,-6.278,-6.278,-6.278,-6.278,-6.278,-6.2732,-6.2291,-6.1887,-6.152,-6.1043,-6.0126,-5.9184,-5.9184,-5.8621,-5.7997,-5.7997,-5.7997,-5.7997,-5.7997,-5.7997,-5.7997,-5.7997,-5.8354,-5.8815,-5.923,-6.0064,-6.0619,-6.0441,-6.0622,-6.0781,-6.0781,-6.0781,-6.0781,-6.0781,-6.0781,-6.0781,-6.0781,-6.0781,-6.0781,-6.0781,-6.0781,-6.0781,-6.0781,-6.0781,-6.0781,-6.0781,-6.0781,-6.0781,-6.0781,-6.0781,-6.0781,-6.0781,-6.0781,-6.1012,-6.1358,-6.1358,-6.155,-5.69,-5.7543,-5.8051,-5.8051,-5.7408,-5.6393,-5.4803,-5.3247,-5.1488,-4.9187,0.0,-4.7225,-4.6481,0.0,-5.2881,-5.5379,0.0,-6.426,-6.8392,-6.894,-6.9509,-7.1126,-7.0587,-6.9816,-6.9119,-6.8972,-6.8605,-6.7907,-6.776,-6.7687,-6.7687,-6.7687,-6.7687,-6.7687,-6.7687,-6.699,-6.5485,-6.5375,-6.453,-6.2989,-6.2853,-6.278,-6.278,-6.278,-6.278,-6.278,-6.278,-6.278,-6.278,-6.278,-6.278,-6.278,-6.278,-6.278,-6.278,-6.278,-6.278,-6.278,-6.278,-6.278,-6.278,-6.278,-6.2328,-6.1741,-6.1741,-6.0713,-5.9515,-5.9515,-5.8951,-5.8327,-5.8327,-5.8327,-5.835,-5.8405,-5.8428,-5.845,-5.8504,-5.8884,-5.9477,-6.0349,-6.1144,-6.1562,-6.1195,-6.1127,-6.1127,-6.1127,-6.1127,-6.1089,-6.0973,-6.0858,-6.0781,-6.0781,-6.0781,-6.0781,-6.0781,-6.0781,-6.0781,-6.0781,-6.0781,-6.0781,-6.0781,-6.0781,-6.0781,-6.0781,-6.0896,-6.0973,-6.0973,-6.1089,-6.1512,-6.2255,-6.2255,-6.2627,-5.8423,-5.8727,-5.8829,-5.8829,-5.7814,-5.6258,-5.416,-5.2503,0.0,0.0,0.0,-4.4925,-4.4147,-4.7596,0.0,-5.4677,0.0,0.0,0.0,0.0,-7.0226,0.0,0.0,0.0,0.0,0.0,0.0,0.0,0.0,-6.7687,-6.7687,-6.7687,-6.7687,-6.7687,-6.7687,-6.7247,-6.6292,-6.5632,-6.4824,-6.387,-6.3135,-6.278,-6.278,-6.278,-6.278,-6.278,-6.278,0.0,-6.278,-6.278,-6.278,-6.278,-6.278,-6.278,-6.278,-6.278,-6.278,-6.278,-6.278,-6.278,-6.278,-6.278,-6.2732,-6.2585,-6.2585,-6.1924,-6.119,-6.119,-6.0603,-5.9979,-5.9979,-5.9979,-6.012,-6.0528,-6.0635,-6.0746,-6.113,-6.1585,-6.2079,-6.2656,-6.2887,-6.2938,-6.2885,-6.2858,-6.2858,-6.2858,-6.2858,-6.2627,-6.1947,-6.1243,-6.0781,-6.0781,-6.0781,-6.0781,-6.0781,-6.0781,-6.0781,-6.0781,-6.0781,-6.0781,-6.0781,-6.0781,-6.0781,-6.0781,-6.1524,-6.187,-6.187,-6.2551,-6.2935,-6.3089,-6.3089,-6.3166,-5.937,-5.9302,-5.9032,-5.9032,-5.7611,-5.5547,-5.2909,0.0,0.0,0.0,0.0,-4.3139,-4.2253,0.0,0.0,0.0,0.0,0.0,0.0,0.0,0.0,0.0,0.0,0.0,0.0,0.0,0.0,0.0,0.0,-6.7687,-6.7687,-6.7687,-6.7687,-6.7687,-6.7687,-6.7283,-6.6512,-6.6109,-6.5521,-6.4714,-6.431,-6.3906,-6.3466,-6.3466,-6.3246,-6.278,-6.278,-6.278,-6.278,-6.278,-6.278,-6.278,-6.278,-6.278,-6.278,-6.278,-6.278,-6.278,-6.278,-6.278,-6.278,-6.278,-6.278,-6.278,-6.278,-6.2254,-6.1667,-6.1925,-6.1425,-6.0885,-6.1114,-6.1197,-6.1259,-6.1503,-6.1561,-6.1695,-6.2176,-6.2817,-6.3288,-6.3297,-6.3666,-6.382,-6.3397,-6.3308,-6.3308,-6.3308,-6.3308,-6.3166,-6.2781,-6.2358,-6.1781,-6.0896,-6.0781,-6.0781,-6.0781,-6.1216,-6.1485,-6.1485,-6.1858,-6.2089,-6.2089,-6.2089,-6.2089,-6.2089,-6.2512,-6.2704,-6.2743,-6.3128,-6.3538,-6.3974,-6.3974,-6.4205,-5.9911,-5.981,-5.9471,-5.9302,-5.7722,-5.5247,-5.1757,-4.9379,0.0,0.0,0.0,-4.1682,-4.1253,0.0,0.0,0.0,0.0,0.0,0.0,0.0,0.0,0.0,0.0,0.0,0.0,0.0,0.0,0.0,0.0,0.0,-6.7687,-6.7687,-6.7687,-6.7687,-6.7687,-6.7393,-6.6769,-6.6586,-6.6182,-6.5558,-6.5375,-6.4971,-6.4347,-6.4347,-6.3906,-6.3099,-6.3099,-6.2989,-6.278,-6.278,-6.278,-6.278,-6.278,-6.289,-6.3099,-6.3099,-6.3209,-6.3356,-6.3356,-6.322,-6.3099,-6.3099,-6.2952,-6.278,-6.278,-6.2463,-6.2127,-6.2553,-6.2284,-6.1966,-6.2353,-6.2444,-6.248,-6.2569,-6.269,-6.284,-6.3244,-6.3838,-6.4231,-6.3924,-6.4397,-6.4666,-6.3974,-6.3858,-6.3858,-6.3858,-6.3858,-6.3782,-6.3589,-6.3589,-6.3012,-6.1512,-6.1358,-6.1358,-6.1358,-6.1973,-6.237,-6.237,-6.2935,-6.3308,-6.3308,-6.3308,-6.3308,-6.3308,-6.3462,-6.3589,-6.3589,-6.3782,-6.4205,-6.4897,-6.4897,-6.5243,-5.9911,-6.0588,-6.0926,-6.0182,-5.8832,-5.6363,-5.1342,0.0,0.0,0.0,-4.0764,-4.0653,-4.1781,0.0,0.0,0.0,0.0,0.0,0.0,0.0,0.0,0.0,0.0,0.0,0.0,0.0,0.0,0.0,0.0,0.0,-6.7687,-6.7687,-6.7687,-6.7687,-6.7687,-6.765,-6.7577,-6.688,-6.6476,-6.6366,-6.5668,-6.5264,-6.5191,-6.5191,-6.4751,-6.398,-6.398,-6.3539,0.0,-6.278,-6.278,-6.278,-6.278,-6.3282,-6.398,-6.398,-6.4457,-6.5081,-6.5081,-6.4604,-6.398,-6.398,-6.3466,-6.278,-6.278,-6.3084,-6.3431,-6.3497,-6.3787,-6.4106,-6.4143,-6.4162,-6.4273,-6.4688,-6.5188,-6.5551,-6.5577,-6.5667,-6.5718,-6.5667,-6.5743,-6.5743,-6.5667,-6.5667,-6.5667,-6.5667,-6.5667,-6.5397,-6.4589,-6.4474,-6.4128,-6.3166,-6.3089,-6.3089,-6.3089,-6.3115,-6.3205,-6.3205,-6.3281,-6.3308,-6.3308,-6.3308,-6.3308,-6.3308,-6.4089,-6.4474,-6.4474,-6.5282,-6.5705,-6.5782,-6.5782,-6.582,-6.0957,-6.1075,-6.0486,-6.0182,-5.8286,-5.5396,-5.107,0.0,0.0,-4.203,-4.0889,-4.0836,-4.1751,-4.3059,0.0,0.0,0.0,0.0,0.0,0.0,0.0,0.0,0.0,0.0,0.0,0.0,0.0,0.0,0.0,0.0,-6.7687,-6.7687,-6.7687,-6.7687,-6.7687,-6.7687,-6.7687,-6.7357,-6.721,-6.721,-6.688,-6.6476,-6.6035,-6.6035,-6.5301,-6.409,-6.409,-6.3613,0.0,-6.278,-6.278,-6.2853,-6.3392,-6.3796,-6.4163,-6.464,-6.5044,-6.5301,-6.5301,-6.5081,-6.4901,-6.5212,-6.4739,-6.3914,-6.3456,-6.3659,-6.4138,-6.4444,-6.4661,-6.4904,-6.5215,-6.5314,-6.5344,-6.5542,-6.573,-6.5897,-6.5897,-6.6282,-6.6628,-6.6628,-6.7051,-6.7398,-6.7398,-6.7398,-6.7398,-6.7398,-6.6974,-6.6513,-6.6167,-6.5667,-6.5243,-6.4897,-6.3935,-6.3308,-6.3308,-6.3782,-6.4089,-6.4089,-6.4589,-6.4859,-6.4859,-6.4859,-6.4859,-6.4859,-6.5205,-6.5397,-6.5397,-6.5743,-6.5897,-6.5897,-6.6397,-6.6628,-6.0738,-6.1004,-6.043,-6.0206,-5.8049,-5.4839,0.0,0.0,-4.5882,-4.1937,-4.1136,-4.134,-4.1958,-4.2889,-4.4515,0.0,0.0,0.0,0.0,0.0,0.0,0.0,0.0,0.0,0.0,0.0,0.0,0.0,0.0,0.0,-6.7687,-6.7687,-6.7687,-6.7687,-6.7687,-6.7687,-6.7687,-6.7687,-6.7687,-6.7687,-6.7687,-6.7393,-6.6843,-6.6843,-6.6109,-6.4787,-6.4787,-6.42,0.0,-6.3441,-6.3429,-6.3282,-6.4127,-6.4604,-6.4861,-6.5448,-6.5815,-6.6025,-6.6194,-6.6086,-6.5965,-6.6538,-6.6223,-6.5523,-6.496,-6.469,-6.4661,-6.5019,-6.5383,-6.5853,-6.6486,-6.6628,-6.6628,-6.6628,-6.6628,-6.6628,-6.6628,-6.709,-6.7475,-6.7475,-6.7975,-6.8385,-6.8385,-6.8385,-6.8385,-6.8385,-6.7898,-6.7475,-6.7475,-6.6974,-6.6628,-6.6628,-6.5551,-6.4615,-6.4128,-6.4628,-6.4974,-6.4974,-6.5551,-6.5897,-6.5897,-6.6128,-6.6244,-6.6244,-6.6513,-6.6628,-6.6628,-6.6628,-6.6628,-6.6667,-6.7205,-6.7475,-5.8591,-6.0289,-6.1224,-6.0477,-5.8517,-5.5407,0.0,-4.8319,-4.64,-4.1858,-4.1397,-4.1979,-4.2577,-4.2693,-4.3662,-4.6634,0.0,0.0,0.0,0.0,0.0,0.0,0.0,0.0,0.0,0.0,0.0,0.0,0.0,0.0,-6.7687,-6.7687,-6.7687,-6.7687,-6.7687,-6.7687,-6.7687,-6.7687,-6.7687,-6.7687,-6.7687,-6.7687,-6.7687,-6.7687,-6.7247,-6.6476,-6.6476,-6.5558,0.0,-6.4971,-6.4787,-6.4163,-6.4971,-6.5778,-6.6476,-6.6476,-6.699,-6.7757,-6.8271,-6.7952,-6.7374,-6.7906,-6.7862,-6.7578,-6.754,-6.6396,-6.5099,-6.5099,-6.605,-6.7282,-6.8167,-6.8359,-6.8359,-6.8359,-6.8359,-6.8359,-6.8359,-6.8385,-6.8385,-6.8385,-6.8385,-6.8385,-6.8385,-6.8385,-6.8385,-6.8385,-6.8385,-6.8385,-6.8385,-6.8385,-6.8359,-6.8359,-6.8359,-6.7667,-6.6013,-6.5859,-6.5897,-6.5897,-6.5897,-6.5897,-6.5897,-6.6667,-6.709,-6.709,-6.7936,-6.8359,-6.8359,-6.8359,-6.8359,-6.8359,-6.8385,-6.8385,-5.5374,-5.6376,-5.6576,-5.5709,-5.457,-5.2551,-4.8278,-4.7448,-4.6404,-4.2353,-4.2,-4.2462,-4.2655,-4.3013,-4.4474,-4.8213,-4.8967,0.0,0.0,0.0,0.0,0.0,0.0,0.0,0.0,0.0,0.0,0.0,0.0,0.0,-6.7687,-6.7687,-6.7687,-6.7687,-6.7687,-6.7687,-6.7687,-6.7687,-6.7687,-6.7687,-6.7687,-6.7687,-6.7687,-6.7687,-6.7247,0.0,0.0,-6.5888,0.0,-6.5191,-6.5154,-6.5007,-6.5815,-6.6503,-6.7109,-6.7642,-6.8264,-6.884,-6.8978,-6.8892,-6.8771,-6.9265,-6.9002,-6.8504,-6.8914,-6.8272,-6.7337,-6.7337,-6.7651,-6.8052,-6.8321,-6.8385,-6.8385,-6.8385,-6.8385,-6.8385,-6.8385,-6.8859,-6.9283,-6.9283,-6.9744,-7.0129,-7.0129,-7.0129,-7.0129,-7.0129,-6.9629,-6.9283,-6.9283,-6.8783,-6.8385,-6.8385,-6.8385,-6.8205,-6.7667,-6.7628,-6.7628,-6.7628,-6.7628,-6.7628,-6.7628,-6.7859,-6.7975,-6.7975,-6.8282,-6.8385,-6.8385,-6.8385,-6.8706,-6.9283,-6.9283,-6.959,0.0,-5.3672,-5.4063,-5.3774,-5.2484,-5.047,-4.7548,-4.6689,-4.5678,-4.2742,-4.258,-4.3013,-4.3013,-4.3268,-4.4433,-4.7278,-4.8233,0.0,0.0,0.0,0.0,0.0,0.0,0.0,0.0,0.0,0.0,0.0,0.0,0.0,-6.7687,-6.7687,-6.7687,-6.7687,-6.7687,-6.7687,-6.7687,-6.7687,-6.7687,-6.7687,-6.7687,-6.7687,-6.7687,-6.7687,-6.743,0.0,0.0,-6.6512,0.0,-6.6072,-6.6154,-6.6124,-6.6937,-6.7577,-6.8106,-6.8631,-6.8999,-6.9333,-6.953,-6.9607,-6.9701,-7.025,-7.0034,-6.9659,-7.006,-6.9321,-6.8475,-6.8821,-6.8898,-6.8975,-6.9283,-6.936,-6.936,-6.936,-6.936,-6.936,-6.936,-6.9783,-7.0167,-7.0167,-7.0552,-7.0898,-7.0898,-7.0898,-7.0898,-7.0898,-7.0475,-7.0167,-7.0167,-6.9667,-6.936,-6.936,-6.936,-6.936,-6.936,-6.8783,-6.8385,-6.8385,-6.8385,-6.8385,-6.8385,-6.8744,-6.8898,-6.8898,-6.9206,-6.936,-6.936,-6.936,-6.9629,-7.0167,-7.0167,-7.0437,0.0,-5.174,-5.3032,-5.3571,-5.1549,-4.9047,-4.7587,-4.605,0.0,-4.3057,-4.316,-4.3551,-4.3662,-4.3588,-4.3864,-4.4966,-4.6379,0.0,0.0,0.0,0.0,0.0,0.0,0.0,0.0,0.0,0.0,0.0,0.0,0.0,-6.7687,-6.7687,-6.7687,-6.7687,-6.7687,-6.7687,-6.7687,-6.7687,-6.7687,-6.7687,-6.7687,-6.7687,-6.7687,-6.7741,-6.7767,0.0,-6.7784,-6.7405,0.0,-6.7516,-6.7654,-6.75,-6.8283,-6.8869,-6.9373,-6.9373,-6.9393,-6.9492,-6.9954,-7.0145,-7.025,-7.0748,-7.0898,-7.0898,-7.0898,-6.9821,-6.8744,-6.9552,-6.9783,-6.9975,-7.0706,-7.0898,-7.0898,-7.0898,-7.0898,-7.0898,-7.0898,-7.0898,-7.0898,-7.0898,-7.0898,-7.0898,-7.0898,-7.0898,-7.0898,-7.0898,-7.0898,-7.0898,-7.0898,-7.0898,-7.0898,-7.0898,-7.0898,-7.0898,-7.0898,-6.9475,-6.859,-6.859,-6.859,-6.859,-6.859,-6.936,-6.9783,-6.9783,-7.0514,-7.0898,-7.0898,-7.0898,-7.0898,-7.0898,-7.0898,-7.0898,-4.4378,0.0,-4.7866,-4.7349,-4.7126,-4.6607,0.0,-4.5193,0.0,0.0,0.0,0.0,0.0,-4.4305,-4.4782,-4.8746,0.0,-5.1059,0.0,0.0,0.0,0.0,0.0,0.0,0.0,0.0,0.0,0.0,0.0,-6.7687,-6.7687,-6.7687,-6.7687,-6.7687,-6.7687,-6.7687,-6.7687,-6.7687,-6.7687,-6.7687,-6.7687,-6.7687,-6.7714,-6.8123,-6.8333,-6.832,-6.875,-6.88,-6.865,-6.8838,-6.8887,-6.8843,-6.9031,-6.9452,-6.9901,-6.9901,-7.0162,-7.0524,-7.0666,-7.0695,-7.0748,-7.0871,-7.0898,-7.0898,-7.0898,-7.0629,-7.036,-7.0552,-7.0629,-7.0667,-7.086,-7.0898,-7.0898,-7.0898,-7.0898,-7.0898,-7.0898,-7.0898,-7.0898,-7.0898,-7.0898,-7.0898,-7.0898,-7.0898,-7.0898,-7.0898,-7.0898,-7.0898,-7.0898,-7.0898,-7.0898,-7.0898,-7.0898,-7.0898,-7.0898,-7.0552,-7.0321,-7.0321,-7.0321,-7.0321,-7.0321,-7.0514,-7.0629,-7.0629,-7.0783,-7.0898,-7.0898,-7.0898,-7.0898,-7.0898,-7.0898,-7.0898,-4.226,-4.4678,-4.6991,-4.7104,-4.7163,-4.6961,-4.6051,0.0,0.0,0.0,0.0,0.0,0.0,0.0,0.0,0.0,-5.0618,0.0,0.0,0.0,0.0,0.0,0.0,0.0,0.0,0.0,0.0,0.0,0.0,-6.7687,-6.7687,-6.7687,-6.7687,-6.7687,-6.7687,-6.7687,-6.7687,-6.7687,-6.7687,-6.7714,-6.7956,-6.8072,-6.8072,-6.8614,-6.8847,-6.8869,-6.9169,-6.9313,-6.9313,-6.9313,-6.9452,-6.9664,-6.9664,-7.0009,-7.0478,-7.0478,-7.0652,-7.0898,-7.0898,-7.0898,-7.0898,-7.0898,-7.0898,-7.0898,-7.0898,-7.0898,-7.0898,-7.0898,-7.0898,-7.0898,-7.0898,-7.0898,-7.0898,-7.0898,-7.0898,-7.0898,-7.0898,-7.0898,-7.0898,-7.0898,-7.1206,-7.1514,-7.1514,-7.1822,-7.2091,-7.2091,-7.1745,-7.1514,-7.1514,-7.1168,-7.0898,-7.0898,-7.0898,-7.0898,-7.0898,-7.0898,-7.0898,-7.0898,-7.0898,-7.0898,-7.0898,-7.0898,-7.0898,-7.0898,-7.0898,-7.0898,-7.0898,-7.0898,-7.0898,-7.0898,-7.0898,-7.0898,-4.2235,-4.5191,-4.8194,-4.8567,-4.8306,-4.7865,0.0,0.0,0.0,0.0,0.0,0.0,0.0,0.0,0.0,0.0,0.0,0.0,0.0,0.0,0.0,0.0,0.0,0.0,0.0,0.0,0.0,0.0,0.0,-6.7687,-6.7687,-6.7687,-6.7614,-6.7504,-6.7573,-6.7553,-6.7442,-6.7594,-6.7741,-6.7836,-6.8284,-6.8521,-6.8637,-6.919,-6.9433,-6.9433,0.0,0.0,-6.955,-6.955,-6.9811,-7.0211,-7.0211,-7.0494,-7.0898,-7.0898,-7.0898,-7.0898,-7.0898,-7.0898,-7.0898,-7.0898,-7.0898,-7.0898,-7.0898,-7.0898,-7.0898,-7.0898,-7.0898,-7.0898,-7.0898,-7.0898,-7.0898,-7.0898,-7.0898,-7.0898,-7.0898,-7.0898,-7.0937,-7.1052,-7.1668,-7.2245,-7.236,-7.3014,-7.3514,-7.3514,-7.286,-7.2399,-7.2399,-7.1745,-7.1245,-7.1091,-7.1091,-7.1052,-7.0898,-7.0898,-7.0898,-7.0898,-7.0898,-7.0898,-7.0898,-7.0898,-7.0975,-7.1091,-7.1091,-7.1168,-7.1283,-7.1283,-7.1283,-7.1283,-7.1283,-7.1283,-4.4137,-4.7156,-4.8743,-4.5315,-4.5369,-4.592,0.0,0.0,0.0,0.0,0.0,0.0,0.0,0.0,0.0,0.0,0.0,0.0,0.0,0.0,0.0,0.0,0.0,0.0,0.0,0.0,0.0,0.0,0.0,-6.7687,-6.7687,-6.7687,-6.7393,-6.6696,-6.7087,-6.6945,-6.6263,-6.7204,-6.793,-6.8368,-6.8464,-6.875,-6.919,-6.9738,-6.9992,-7.0009,0.0,-7.0652,-7.0652,-7.0652,-7.0681,-7.0777,-7.0777,-7.0805,-7.0898,-7.0898,-7.0898,-7.0898,-7.0898,-7.0898,-7.0898,-7.0898,-7.0898,-7.0898,-7.0898,-7.0898,-7.0898,-7.0898,-7.0898,-7.0898,-7.0898,-7.0898,-7.0898,-7.0898,-7.0898,-7.0898,-7.0898,-7.0898,-7.1129,-7.186,-7.2091,-7.2437,-7.3168,-7.3399,-7.3514,-7.3514,-7.3399,-7.3322,-7.3322,-7.3168,-7.2822,-7.2091,-7.2014,-7.1706,-7.0975,-7.0898,-7.0898,-7.0898,-7.0898,-7.0898,-7.0898,-7.0898,-7.1245,-7.1975,-7.2014,-7.236,-7.3091,-7.3091,-7.3091,-7.3091,-7.3091,-7.3091,-4.3063,-4.5888,-4.7922,-4.5938,-4.7976,-5.0178,0.0,0.0,0.0,0.0,0.0,0.0,0.0,0.0,0.0,0.0,0.0,0.0,0.0,0.0,0.0,0.0,0.0,0.0,0.0,0.0,0.0,0.0,0.0,0.0,-6.7687,-6.7982,-6.7753,-6.6877,-6.7382,-6.7241,-6.6453,-6.6956,-6.7576,-6.8238,-6.8515,-6.9038,-6.9757,-7.0298,-7.0524,-7.0539,0.0,-7.0898,-7.0898,-7.0898,-7.0898,-7.0898,-7.0898,-7.0898,-7.0898,-7.0898,-7.0898,-7.0898,-7.0898,-7.0898,-7.0898,-7.0898,-7.0898,-7.0898,-7.0898,-7.1245,-7.1591,-7.1591,-7.1591,-7.1591,-7.1591,-7.1937,-7.2322,-7.2322,-7.2322,-7.2322,-7.2322,-7.2322,-7.2437,-7.2822,-7.3245,-7.3668,-7.4091,-7.4553,-7.4861,-7.4861,-7.4437,-7.4168,-7.4168,-7.3783,-7.336,-7.2937,-7.2899,-7.2745,-7.236,-7.2322,-7.2091,-7.1629,-7.1591,-7.1822,-7.2283,-7.2322,-7.2476,-7.2899,-7.2899,-7.3091,-7.3514,-7.3514,-7.3514,-7.3514,-7.3514,-7.3514,-4.3014,-4.5219,-4.7443,-4.759,0.0,0.0,-5.2894,0.0,0.0,0.0,0.0,0.0,0.0,0.0,0.0,0.0,0.0,0.0,0.0,0.0,0.0,-6.7577,-6.7687,-6.7687,0.0,0.0,0.0,0.0,0.0,0.0,-6.7687,-6.8,-6.7817,-6.6937,-6.7375,-6.7241,-6.639,-6.6539,-6.7126,-6.8205,-6.861,-6.9306,-7.0298,-7.0695,-7.0898,-7.0898,-7.0898,-7.0898,-7.0898,-7.0898,-7.0898,-7.0898,-7.0898,-7.0898,-7.0898,-7.0898,-7.0898,-7.0898,-7.0898,-7.0898,-7.0898,-7.0898,-7.0898,-7.0937,-7.1129,-7.1668,-7.2245,-7.2437,-7.2629,-7.2745,-7.2552,-7.3014,-7.3514,-7.3514,-7.3514,-7.3514,-7.3514,-7.3514,-7.3553,-7.3745,-7.4284,-7.4784,-7.4976,-7.5553,-7.6015,-7.6015,-7.5438,-7.5014,-7.5014,-7.4476,-7.4014,-7.3822,-7.3783,-7.3707,-7.3514,-7.3514,-7.3322,-7.2822,-7.2591,-7.2783,-7.3476,-7.3514,-7.3591,-7.3783,-7.3783,-7.3899,-7.4091,-7.4091,-7.4091,-7.4091,-7.4091,-7.4091,-4.6649,-4.7746,-4.8379,-4.915,0.0,0.0,0.0,0.0,0.0,0.0,0.0,0.0,0.0,0.0,0.0,0.0,0.0,0.0,0.0,0.0,0.0,0.0,0.0,0.0,0.0,0.0,0.0,0.0,0.0,0.0,-6.7687,-6.7457,-6.6937,-6.6104,-6.6295,-6.6048,-6.5242,-6.5733,-6.6907,-6.8748,-6.8765,-6.9505,-7.0819,-7.0885,-7.0898,-7.0898,-7.0898,-7.0898,-7.0898,-7.0898,-7.0898,-7.0898,-7.0898,-7.0898,-7.0898,-7.0898,-7.0898,-7.0898,-7.0898,-7.0898,-7.0898,-7.0898,-7.0898,-7.1052,-7.186,-7.2129,-7.236,-7.3168,-7.3937,-7.4361,-7.3591,-7.3437,-7.3514,-7.3514,-7.3514,-7.3514,-7.3514,-7.3514,-7.3745,-7.4476,-7.4668,-7.4976,-7.5784,-7.5976,-7.6015,-7.6015,-7.5938,-7.5899,-7.5899,-7.5861,-7.5515,-7.4707,-7.463,-7.4322,-7.3553,-7.3514,-7.3783,-7.4476,-7.3822,-7.3437,-7.3514,-7.3514,-7.386,-7.4591,-7.463,-7.5014,-7.5822,-7.5822,-7.5822,-7.5822,-7.5822,-7.5822,-4.568,-4.715,-4.8489,-4.9297,0.0,0.0,0.0,0.0,0.0,0.0,0.0,0.0,0.0,0.0,0.0,0.0,0.0,0.0,0.0,0.0,0.0,0.0,0.0,0.0,0.0,0.0,0.0,0.0,0.0,0.0,-6.7395,-6.7438,-6.707,-6.6201,-6.6574,-6.6427,-6.5622,-6.5795,-6.6525,-6.7769,-6.8292,-6.9376,-7.0898,-7.0898,-7.0898,-7.0898,-7.0898,-7.0898,-7.0898,-7.0898,-7.0898,-7.0898,-7.0898,-7.0898,-7.0898,-7.0898,-7.0898,-7.0898,-7.0898,-7.1245,-7.1706,-7.1706,-7.2091,-7.2591,-7.2899,-7.336,-7.3822,-7.4168,-7.4861,-7.5322,-7.4476,-7.4668,-7.5053,-7.5053,-7.5053,-7.5053,-7.5053,-7.5053,-7.513,-7.5438,-7.5515,-7.563,-7.5938,-7.6015,-7.6015,-7.6015,-7.6015,-7.6015,-7.6015,-7.6015,-7.5861,-7.5553,-7.5515,-7.5399,-7.5091,-7.5053,-7.5168,-7.5476,-7.4707,-7.4476,-7.5014,-7.5053,-7.5207,-7.5515,-7.5515,-7.5668,-7.6015,-7.6015,-7.6015,-7.6015,-7.6015,-7.6015,-4.5729,-4.7001,-4.8489,0.0,0.0,0.0,0.0,0.0,0.0,0.0,0.0,0.0,0.0,0.0,0.0,0.0,0.0,0.0,0.0,0.0,0.0,0.0,0.0,0.0,0.0,0.0,0.0,0.0,0.0,0.0,0.0,-6.7071,-6.6935,-6.6309,-6.6581,-6.6436,-6.5897,-6.5897,-6.6282,-6.709,-6.7705,-6.8898,-7.0514,-7.0783,-7.0898,-7.0898,-7.0898,-7.0898,-7.0898,-7.0898,-7.0898,-7.0898,-7.0898,-7.0898,-7.0898,-7.0898,-7.1052,-7.1321,-7.1321,-7.186,-7.2591,-7.2591,-7.3014,-7.3553,-7.3822,-7.4284,-7.4784,-7.5014,-7.5553,-7.5861,-7.5284,-7.5553,-7.6015,-7.6015,-7.6015,-7.6015,-7.6015,-7.6015,-7.6015,-7.6015,-7.6015,-7.6015,-7.6015,-7.6015,-7.6015,-7.6015,-7.6015,-7.6015,-7.6015,-7.6015,-7.6015,-7.6015,-7.6015,-7.6015,-7.6015,-7.6015,-7.6015,-7.6015,-7.5438,-7.5399,-7.5976,-7.6015,-7.6015,-7.6015,-7.6015,-7.6015,-7.6015,-7.6015,-7.6015,-7.6015,-7.6015,-7.6015,-4.7501,-4.7797,-4.8489,0.0,0.0,0.0,0.0,0.0,0.0,0.0,0.0,0.0,0.0,0.0,0.0,0.0,0.0,0.0,0.0,0.0,0.0,0.0,0.0,0.0,0.0,0.0,0.0,0.0,0.0,0.0,0.0,-6.62,-6.6287,-6.6287,-6.6044,-6.5897,-6.5897,-6.5897,-6.6282,-6.709,-6.709,-6.8013,-6.9744,-7.0514,-7.0898,-7.0898,-7.0898,-7.0898,-7.0898,-7.0898,-7.0898,-7.0898,-7.0898,-7.0898,-7.0898,-7.0898,-7.1475,-7.2206,-7.2206,-7.2783,-7.3514,-7.3514,-7.3514,-7.3668,-7.4476,-7.4707,-7.4899,-7.5745,-7.6015,-7.6015,-7.6015,-7.6015,-7.6015,-7.6015,-7.6015,-7.6015,-7.6015,-7.6015,-7.6015,-7.6015,-7.6015,-7.6015,-7.6015,-7.6015,-7.6015,-7.6015,-7.6015,-7.6015,-7.6015,-7.6015,-7.6015,-7.6015,-7.6015,-7.6015,-7.6015,-7.6015,-7.6015,-7.6015,-7.6015,-7.6015,-7.6015,-7.6015,-7.6015,-7.6015,-7.6015,-7.6015,-7.6015,-7.6015,-7.6015,-7.6015,-7.6015,-7.6015,-4.6547,-4.775,0.0,0.0,0.0,0.0,0.0,0.0,0.0,0.0,0.0,0.0,0.0,0.0,0.0,-6.387,-6.5264,-6.6512,0.0,0.0,0.0,0.0,0.0,0.0,0.0,0.0,0.0,0.0,0.0,0.0,0.0,-6.6101,-6.6033,-6.6033,-6.5961,-6.5897,-6.5897,-6.5897,-6.6013,-6.6244,-6.6821,-6.8013,-6.9706,-6.9937,-7.036,-7.0898,-7.0898,-7.0898,-7.0898,-7.0898,-7.0898,-7.0898,-7.0898,-7.1283,-7.1822,-7.1822,-7.236,-7.3129,-7.3129,-7.3668,-7.4361,-7.4361,-7.4745,-7.5284,-7.5553,-7.563,-7.5668,-7.5938,-7.6015,-7.6015,-7.6015,-7.6015,-7.6015,-7.6015,-7.6015,-7.6015,-7.6015,-7.6015,-7.6015,-7.6015,-7.6015,-7.6015,-7.6015,-7.6015,-7.6015,-7.6015,-7.6015,-7.6015,-7.6015,-7.6015,-7.6015,-7.6015,-7.6015,-7.6015,-7.6015,-7.6015,-7.6015,-7.6015,-7.6015,-7.6015,-7.6015,-7.6015,-7.6015,-7.6015,-7.6015,-7.6015,-7.6015,-7.6015,-7.6015,-7.6015,-7.6015,-7.6015,-4.8099,0.0,0.0,0.0,0.0,0.0,0.0,0.0,0.0,0.0,0.0,0.0,0.0,0.0,0.0,-6.4861,-6.5852,0.0,0.0,0.0,0.0,0.0,0.0,0.0,0.0,0.0,0.0,0.0,0.0,0.0,0.0,-6.5852,-6.5897,-6.5897,-6.5897,-6.5897,-6.5897,-6.5897,-6.5897,-6.5897,-6.6397,-6.7321,-6.8667,-6.9013,-6.9436,-6.9937,-7.0283,-7.0437,-7.0437,-7.0783,-7.0898,-7.0898,-7.0898,-7.1206,-7.1745,-7.2052,-7.2745,-7.3553,-7.386,-7.4514,-7.5207,-7.5207,-7.5553,-7.6015,-7.6015,-7.6015,-7.6015,-7.6015,-7.6015,-7.6015,-7.6015,-7.6015,-7.6015,-7.6015,-7.6015,-7.6015,-7.6015,-7.6015,-7.6015,-7.6015,-7.6015,-7.6015,-7.6015,-7.6015,-7.6015,-7.6015,-7.6015,-7.6015,-7.6015,-7.6015,-7.6015,-7.6015,-7.6015,-7.6015,-7.6015,-7.6015,-7.6015,-7.6015,-7.6015,-7.6015,-7.6015,-7.6015,-7.6015,-7.6015,-7.6015,-7.6015,-7.6015,-7.6015,-7.6015,-7.6015,-7.6015,-7.6015,0.0,0.0,0.0,0.0,0.0,0.0,0.0,0.0,0.0,0.0,0.0,0.0,0.0,0.0,0.0,0.0,0.0,0.0,0.0,0.0,0.0,0.0,0.0,0.0,0.0,0.0,0.0,0.0,0.0,0.0,0.0,-6.5649,-6.5897,-6.5897,-6.582,-6.582,-6.5897,-6.582,-6.582,-6.5897,-6.5897,-6.6282,-6.7013,-6.7898,-6.8321,-6.8462,-6.9321,-6.9706,-6.9744,-7.0552,-7.0898,-7.0898,-7.0898,-7.0937,-7.1129,-7.2014,-7.286,-7.3745,-7.4553,-7.5361,-7.6015,-7.6015,-7.6015,-7.6015,-7.6015,-7.6015,-7.6015,-7.6015,-7.6015,-7.6015,-7.6015,-7.6015,-7.6015,-7.6015,-7.6015,-7.6015,-7.6015,-7.6015,-7.6015,-7.6015,-7.6015,-7.6015,-7.6015,-7.6015,-7.6015,-7.6015,-7.6015,-7.6015,-7.6015,-7.6015,-7.6015,-7.6015,-7.6015,-7.6015,-7.6015,-7.6015,-7.6015,-7.6015,-7.6015,-7.6015,-7.6015,-7.6015,-7.6015,-7.6015,-7.6015,-7.6015,-7.6015,-7.6015,-7.6015,-7.6015,-7.6015,-7.6015,0.0,0.0,0.0,0.0,0.0,0.0,0.0,0.0,0.0,0.0,0.0,0.0,0.0,0.0,0.0,0.0,0.0,0.0,0.0,0.0,0.0,0.0,0.0,0.0,0.0,0.0,0.0,0.0,0.0,0.0,-6.5703,-6.5821,-6.5897,-6.5897,-6.5243,-6.5205,-6.5897,-6.5205,-6.5205,0.0,-6.5897,-6.5974,-6.6205,-6.7013,-6.7744,-6.8462,-6.9321,-6.9706,-6.9744,-7.0552,-7.0898,-7.0898,-7.0898,-7.1321,-7.2014,-7.2899,-7.3745,-7.4553,-7.5438,-7.5822,-7.6015,-7.6015,-7.6015,-7.6015,-7.6015,-7.6015,-7.6015,-7.6015,-7.6015,-7.6015,-7.6015,-7.6015,-7.6015,-7.6015,-7.6015,-7.6015,-7.6015,-7.6015,-7.6015,-7.6015,-7.6015,-7.6015,-7.6015,-7.6015,-7.6015,-7.6015,-7.6015,-7.6015,-7.6015,-7.6015,-7.6015,-7.6015,-7.6015,-7.6015,-7.6015,-7.6015,-7.6015,-7.6015,-7.6015,-7.6015,-7.6015,-7.6015,-7.6015,-7.6015,-7.6015,-7.6015,-7.6015,-7.6015,-7.6015,-7.6015,-7.6015,-7.6015,0.0,0.0,0.0,0.0,0.0,0.0,0.0,0.0,0.0,0.0,0.0,0.0,0.0,0.0,0.0,0.0,0.0,0.0,0.0,0.0,0.0,0.0,0.0,0.0,0.0,0.0,0.0,0.0,0.0,-6.5597,-6.5897,-6.5513,-6.5282,-6.5282,-6.4436,-6.4205,-6.4666,-6.4628,-6.482,-6.5282,-6.5705,-6.5897,-6.5897,-6.632,-6.6782,-6.7282,-6.8552,-6.909,-6.9167,-7.0398,-7.0898,-7.0898,-7.0898,-7.1168,-7.1668,-7.2552,-7.3399,-7.4245,-7.5091,-7.5668,-7.6015,-7.6015,-7.6015,-7.6015,-7.6015,-7.6015,-7.6015,-7.6015,-7.6015,-7.6015,-7.6015,-7.6015,-7.6015,-7.6015,-7.6015,-7.6015,-7.6015,-7.6015,-7.6015,-7.6015,-7.6015,-7.6015,-7.6015,-7.6015,-7.6015,-7.6015,-7.6015,-7.6015,-7.6015,-7.6015,-7.6015,-7.6015,-7.6015,-7.6169,-7.6592,-7.663,-7.6784,-7.7169,-7.6823,-7.663,-7.663,-7.6207,-7.6015,-7.6015,-7.6015,-7.6015,-7.6015,-7.6015,-7.6015,-7.6015,-7.6015,-7.6015,0.0,0.0,0.0,0.0,0.0,0.0,0.0,0.0,0.0,0.0,0.0,0.0,0.0,0.0,0.0,0.0,0.0,0.0,0.0,0.0,0.0,0.0,0.0,0.0,0.0,0.0,0.0,0.0,0.0,-6.5436,-6.5436,-6.4782,-6.4397,-6.4397,-6.3551,-6.3166,-6.3308,-6.3897,-6.432,-6.4628,-6.5474,-6.5897,-6.5897,-6.5897,-6.5897,-6.5974,-6.7667,-6.8385,-6.8552,-7.0206,-7.0898,-7.0898,-7.0898,-7.0898,-7.1014,-7.186,-7.2668,-7.3399,-7.4361,-7.5168,-7.5784,-7.5938,-7.6015,-7.6015,-7.6015,-7.6015,-7.6015,-7.6015,-7.6015,-7.6015,-7.6015,-7.6015,-7.6015,-7.6015,-7.6015,-7.6015,-7.6015,-7.6015,-7.6015,-7.6015,-7.6015,-7.6015,-7.6015,-7.6015,-7.6015,-7.6015,-7.6015,-7.6015,-7.6015,-7.6015,-7.6015,-7.6015,-7.6015,-7.6361,-7.7207,-7.7284,-7.763,-7.8438,-7.7861,-7.7438,-7.7323,-7.6592,-7.613,-7.6015,-7.6015,-7.6015,-7.6015,-7.6015,-7.6015,-7.6015,-7.6015,-7.6015,0.0,0.0,0.0,0.0,0.0,0.0,0.0,0.0,0.0,0.0,0.0,0.0,0.0,0.0,0.0,0.0,0.0,0.0,0.0,0.0,0.0,0.0,0.0,0.0,0.0,0.0,0.0,0.0,-6.3547,-6.3666,-6.3666,-6.3538,-6.3462,-6.3462,-6.2666,-6.2589,-6.3269,-6.2704,-6.3166,-6.4628,-6.5474,-6.5897,-6.5897,-6.5897,-6.5897,-6.5974,-6.7667,-6.8385,-6.8552,-7.0206,-7.0898,-7.0898,-7.0898,-7.0898,-7.1014,-7.186,-7.2283,-7.2591,-7.4168,-7.4784,-7.5014,-7.5745,-7.6015,-7.6015,-7.6015,-7.6015,-7.6015,-7.6015,-7.6015,-7.6015,-7.6015,-7.6015,-7.6015,-7.6015,-7.6015,-7.6015,-7.6015,-7.6015,-7.6015,-7.6015,-7.6015,-7.6015,-7.6015,-7.6015,-7.6015,-7.6015,-7.6015,-7.6015,-7.6015,-7.6015,-7.6015,-7.6015,-7.6015,-7.6361,-7.7207,-7.7284,-7.763,-7.8438,-7.84,-7.8015,-7.7323,-7.7169,-7.6784,-7.6015,-7.6015,-7.6015,-7.6015,-7.6015,-7.6015,-7.6015,-7.6015,-7.6015,0.0,0.0,0.0,0.0,0.0,0.0,0.0,0.0,0.0,0.0,0.0,0.0,0.0,0.0,0.0,0.0,0.0,0.0,0.0,0.0,0.0,0.0,0.0,0.0,0.0,0.0,0.0,0.0,-6.3257,-6.3308,-6.3308,-6.2858,-6.2627,-6.2627,-6.182,-6.155,-6.1897,-6.2012,-6.2935,-6.4589,-6.4974,-6.5436,-6.5897,-6.5897,-6.5897,-6.5974,-6.7167,-6.7936,-6.8513,-6.9706,-7.0475,-7.0898,-7.0898,-7.0898,-7.0937,-7.1321,-7.1783,-7.236,-7.3591,-7.4322,-7.4861,-7.5707,-7.6015,-7.6015,-7.6015,-7.6015,-7.6015,-7.6015,-7.6015,-7.6015,-7.6015,-7.6015,-7.6015,-7.6015,-7.6015,-7.6015,-7.6015,-7.6015,-7.6015,-7.6015,-7.6015,-7.6015,-7.6015,-7.6015,-7.6169,-7.663,-7.6746,-7.6899,-7.7323,-7.74,-7.74,-7.74,-7.7015,-7.7246,-7.8592,-7.8246,-7.8554,-7.9862,-7.9515,-7.8861,-7.8015,-7.7553,-7.6899,-7.6015,-7.6015,-7.6015,-7.6015,-7.6015,-7.6015,-7.6015,-7.6015,-7.6015,0.0,0.0,0.0,0.0,0.0,0.0,0.0,0.0,0.0,0.0,0.0,0.0,0.0,0.0,0.0,0.0,0.0,0.0,0.0,0.0,0.0,0.0,0.0,0.0,0.0,0.0,0.0,0.0,-6.2732,-6.2666,-6.2666,-6.2089,-6.1793,-6.1793,-6.1127,-6.0781,-6.0781,-6.1678,-6.282,-6.4282,-6.4474,-6.5051,-6.5897,-6.5897,-6.5897,-6.5936,-6.6744,-6.759,-6.8475,-6.936,-7.0167,-7.0898,-7.0898,-7.0898,-7.0898,-7.0898,-7.1437,-7.2322,-7.3206,-7.4053,-7.4861,-7.5707,-7.6015,-7.6015,-7.6015,-7.6015,-7.6015,-7.6015,-7.6015,-7.6015,-7.6015,-7.6015,-7.6015,-7.6015,-7.6015,-7.6015,-7.6015,-7.6169,-7.6322,-7.6322,-7.6515,-7.663,-7.663,-7.663,-7.6861,-7.7515,-7.7592,-7.7823,-7.84,-7.8477,-7.8477,-7.8477,-7.7938,-7.8207,-7.9669,-7.9208,-7.9477,-8.1016,-8.0477,-7.9631,-7.8554,-7.79,-7.7092,-7.6015,-7.6015,-7.6015,-7.6015,-7.6015,-7.6015,-7.6015,-7.6015,-7.6015,0.0,0.0,0.0,0.0,0.0,0.0,0.0,0.0,0.0,0.0,0.0,0.0,0.0,0.0,0.0,0.0,0.0,0.0,0.0,0.0,0.0,0.0,0.0,0.0,0.0,0.0,0.0,0.0,-6.1134,-6.0935,-6.0935,-6.0896,-6.0858,-6.0858,-6.0819,-6.0781,-6.0781,-6.1678,-6.2512,-6.3397,-6.4205,-6.5051,-6.5897,-6.5897,-6.5897,-6.5936,-6.6744,-6.759,-6.8475,-6.936,-7.0167,-7.0898,-7.0898,-7.0898,-7.0898,-7.0898,-7.1437,-7.2322,-7.3206,-7.4053,-7.4861,-7.5707,-7.6015,-7.6015,-7.6015,-7.6015,-7.6015,-7.6015,-7.6015,-7.6015,-7.6015,-7.6015,-7.6015,-7.6015,-7.6015,-7.6015,-7.6015,-7.663,-7.7207,-7.7207,-7.7861,-7.8361,-7.8361,-7.8361,-7.84,-7.8438,-7.8438,-7.8438,-7.8477,-7.8477,-7.8477,-7.8477,-7.8453,-7.8823,-7.9708,-7.9746,-8.0131,-8.1054,-8.1054,-8.0285,-7.8554,-7.8453,-7.7669,-7.6015,-7.6015,-7.6015,-7.6015,-7.6015,-7.6015,-7.6015,-7.6015,-7.6015,0.0,0.0,0.0,0.0,0.0,0.0,0.0,0.0,0.0,0.0,0.0,0.0,0.0,0.0,0.0,0.0,0.0,0.0,0.0,0.0,0.0,0.0,0.0,0.0,0.0,0.0,0.0,0.0,0.0,-6.0781,-6.0781,-6.0781,-6.0781,-6.0781,-6.0781,-6.0781,-6.0781,-6.1089,-6.1935,-6.3308,-6.3628,-6.4512,-6.5897,-6.5897,-6.5897,-6.5897,-6.6205,-6.6782,-6.7628,-6.8513,-6.936,-7.0167,-7.0706,-7.0898,-7.0898,-7.0898,-7.1437,-7.2322,-7.3206,-7.4053,-7.4861,-7.5707,-7.6015,-7.6015,-7.6015,-7.6015,-7.6015,-7.6015,-7.6015,-7.6015,-7.6015,-7.6015,-7.6015,-7.6015,-7.6438,-7.6823,-7.6823,-7.7092,-7.7438,-7.7977,-7.8284,-7.8477,-7.8477,-7.8477,-7.8669,-7.9246,-7.9323,-7.9554,-8.0092,-8.0169,-8.0169,-8.0169,-7.9669,-7.9708,-8.0554,-8.0131,-8.0169,-8.1054,-8.1093,-8.0554,-7.9361,-7.9323,-7.8784,-7.763,-7.7092,-7.6553,-7.6015,-7.6015,-7.6015,-7.6015,-7.6015,-7.6015,0.0,0.0,0.0,0.0,0.0,0.0,0.0,0.0,0.0,0.0,0.0,0.0,0.0,0.0,0.0,0.0,0.0,0.0,0.0,0.0,0.0,0.0,0.0,0.0,0.0,0.0,0.0,0.0,0.0,0.0,-6.0781,-6.0781,-6.0781,-6.0781,-6.0781,-6.0781,-6.0781,-6.0781,-6.1627,-6.3308,-6.3308,-6.4205,-6.5897,-6.5897,-6.5897,-6.5897,-6.5897,-6.6513,-6.759,-6.8167,-6.909,-7.0167,-7.0706,-7.0898,-7.0937,-7.1245,-7.1898,-7.2745,-7.363,-7.4437,-7.5245,-7.5822,-7.6015,-7.6015,-7.6015,-7.6015,-7.6015,-7.6015,-7.6015,-7.6015,-7.6015,-7.6015,-7.6053,-7.6361,-7.6861,-7.7438,-7.8015,-7.813,-7.8284,-7.8823,-7.9169,-7.9361,-7.9361,-7.9361,-7.9554,-8.0169,-8.0246,-8.0439,-8.1016,-8.1093,-8.1093,-8.1093,-8.0592,-8.0477,-8.1054,-8.0554,-8.0477,-8.1054,-8.1093,-8.0708,-7.9862,-7.9823,-7.94,-7.853,-7.7707,-7.713,-7.6823,-7.6284,-7.6015,-7.6015,-7.6015,-7.6015,0.0,0.0,0.0,0.0,0.0,0.0,0.0,0.0,0.0,0.0,0.0,0.0,0.0,0.0,0.0,0.0,0.0,0.0,0.0,0.0,0.0,0.0,0.0,0.0,0.0,0.0,0.0,0.0,-6.0781,-6.0781,-6.0781,-6.0781,-6.0781,-6.0781,-6.0781,-6.0781,-6.0781,-6.0781,-6.1627,-6.3308,-6.3308,-6.4205,-6.5897,-6.5897,-6.5897,-6.5897,-6.5897,-6.6859,-6.8385,-6.8385,-6.936,-7.086,-7.0898,-7.0898,-7.1014,-7.186,-7.2745,-7.363,-7.4437,-7.5284,-7.6015,-7.6015,-7.6015,-7.6015,-7.6015,-7.6015,-7.6015,-7.6015,-7.6015,-7.6015,-7.6015,-7.6015,-7.6245,-7.7092,-7.7323,-7.7823,-7.9438,-7.9823,-7.9862,-7.9862,-8.0516,-8.1093,-8.1093,-8.1093,-8.1093,-8.1093,-8.1093,-8.1093,-8.1093,-8.1093,-8.1093,-8.1093,-8.1093,-8.1093,-8.1093,-8.1093,-8.1093,-8.1093,-8.1093,-8.0708,-7.9862,-7.9862,-7.9438,-7.8592,-7.7784,-7.7746,-7.8477,-7.6823,-7.6053,-7.6053,-7.6015,-7.6015,-3.7037,0.0,0.0,0.0,0.0,0.0,0.0,0.0,0.0,0.0,0.0,0.0,0.0,0.0,0.0,0.0,0.0,0.0,0.0,0.0,0.0,0.0,0.0,0.0,0.0,0.0,0.0,0.0,-6.0781,-6.0781,-6.0781,-6.0781,-6.0781,-6.0781,-6.0781,-6.0781,-6.0781,-6.0781,-6.1627,-6.3308,-6.3308,-6.4205,-6.5897,-6.5897,-6.5897,-6.5897,-6.5897,-6.6859,-6.8385,-6.8385,-6.9052,-7.009,-7.0667,-7.0898,-7.1014,-7.186,-7.2745,-7.363,-7.4437,-7.5284,-7.6015,-7.6015,-7.6015,-7.6015,-7.6015,-7.6015,-7.6015,-7.6015,-7.6015,-7.6015,-7.6015,-7.6476,-7.6976,-7.7246,-7.8246,-7.9246,-7.9708,-8.0285,-8.0746,-8.0746,-8.0939,-8.1093,-8.1093,-8.1093,-8.1093,-8.1093,-8.1093,-8.1093,-8.1093,-8.1093,-8.1093,-8.1093,-8.1093,-8.1093,-8.1093,-8.1093,-8.1093,-8.1093,-8.1093,-8.0977,-8.0746,-8.0746,-8.0631,-8.04,-7.9554,-7.89,-7.8477,-7.7438,-7.6938,-7.6938,-7.6284,-7.6015,0.0,0.0,0.0,0.0,0.0,0.0,0.0,-4.6434,0.0,0.0,0.0,0.0,0.0,0.0,0.0,0.0,0.0,0.0,0.0,0.0,0.0,0.0,0.0,0.0,0.0,-5.9559,-5.9991,-6.0746,-6.0781,-6.0781,-6.0781,-6.0781,-6.0781,-6.0781,-6.0781,-6.0781,-6.0781,-6.0781,-6.1627,-6.3308,-6.3308,-6.4205,-6.5897,-6.5897,-6.5897,-6.5897,-6.5897,-6.6859,-6.8385,-6.8385,-6.9129,-7.0244,-7.0706,-7.0898,-7.1052,-7.2283,-7.3053,-7.3668,-7.4861,-7.5553,-7.6015,-7.6015,-7.6015,-7.6015,-7.6015,-7.6015,-7.6015,-7.6015,-7.6015,-7.6015,-7.6015,-7.663,-7.7361,-7.7707,-7.8823,-7.99,-8.0246,-8.0746,-8.1093,-8.1093,-8.1093,-8.1093,-8.1093,-8.1093,-8.1093,-8.1093,-8.1093,-8.1093,-8.1093,-8.1093,-8.1093,-8.1093,-8.1093,-8.1093,-8.1093,-8.1093,-8.1093,-8.1093,-8.1093,-8.1093,-8.1093,-8.1093,-8.1093,-8.1093,-8.0246,-7.9361,-7.8477,-7.7669,-7.7092,-7.6746,-7.6245,-7.6015,0.0,0.0,0.0,0.0,0.0,0.0,-4.6856,-4.6214,-4.559,0.0,0.0,0.0,0.0,0.0,0.0,0.0,0.0,0.0,0.0,0.0,0.0,0.0,0.0,0.0,-5.9337,-5.9792,-6.0255,-6.0757,-6.0781,-6.0781,-6.0781,-6.0781,-6.0781,-6.0781,-6.0781,-6.0781,-6.0781,-6.0781,-6.1627,-6.3308,-6.3308,-6.4205,-6.5897,-6.5897,-6.5897,-6.5897,-6.5897,-6.6859,-6.8385,-6.8385,-6.9398,-7.0898,-7.0898,-7.0975,-7.1245,-7.2899,-7.3553,-7.386,-7.5438,-7.6015,-7.6015,-7.6015,-7.6015,-7.6015,-7.6015,-7.6015,-7.6015,-7.6015,-7.6015,-7.6015,-7.6015,-7.6707,-7.7592,-7.8323,-7.9246,-8.0169,-8.0939,-8.1093,-8.1093,-8.1093,-8.1093,-8.1093,-8.1093,-8.1093,-8.1093,-8.1093,-8.1093,-8.1093,-8.1093,-8.1093,-8.1093,-8.1093,-8.1093,-8.1093,-8.1093,-8.1093,-8.1093,-8.1093,-8.1093,-8.1093,-8.1093,-8.1093,-8.1093,-8.1093,-8.0169,-7.9285,-7.8477,-7.7669,-7.6899,-7.613,-7.6053,-7.6015,-4.1846,-4.1846,-4.1846,-4.0855,0.0,0.0,-4.0136,-4.0855,-4.2433,0.0,0.0,0.0,0.0,0.0,0.0,0.0,0.0,0.0,0.0,0.0,0.0,0.0,0.0,0.0,-5.9302,-5.9475,-5.9885,-6.0746,-6.0781,-6.0781,-6.0781,-6.0781,-6.0781,-6.0781,-6.0781,-6.0781,-6.0781,-6.0781,-6.1627,-6.3308,-6.3308,-6.4205,-6.5897,-6.5897,-6.5897,-6.5897,-6.5897,-6.6859,-6.8385,-6.8385,-6.9398,-7.0898,-7.0898,-7.1321,-7.2052,-7.3129,-7.3899,-7.463,-7.563,-7.6015,-7.6015,-7.6015,-7.6015,-7.6015,-7.6015,-7.6015,-7.6015,-7.6015,-7.6015,-7.6015,-7.6015,-7.713,-7.8284,-7.8453,-7.9708,-8.09,-8.1054,-8.1093,-8.1093,-8.1093,-8.1093,-8.1093,-8.1093,-8.1093,-8.1093,-8.1093,-8.1093,-8.1093,-8.1093,-8.1093,-8.1093,-8.1093,-8.1093,-8.1093,-8.1093,-8.1093,-8.1093,-8.1093,-8.1093,-8.1093,-8.1093,-8.1093,-8.1093,-8.1093,-7.9554,-7.8669,-7.8477,-7.7669,-7.7207,-7.7015,-7.6322,-7.6015,-4.3351,-4.291,-4.28,-4.2396,0.0,0.0,0.0,-4.0157,-4.023,-4.3424,0.0,0.0,0.0,0.0,0.0,0.0,0.0,0.0,0.0,0.0,0.0,0.0,0.0,0.0,-5.9319,-5.9592,-6.0059,-6.0746,-6.0781,-6.0781,-6.0781,-6.0781,-6.0781,-6.0781,-6.0781,-6.0781,-6.0781,-6.0781,-6.1627,-6.3308,-6.3308,-6.4205,-6.5897,-6.5897,-6.5897,-6.5897,-6.5897,-6.6859,-6.8385,-6.8385,-6.9398,-7.0898,-7.0898,-7.1437,-7.2322,-7.3168,-7.4014,-7.4822,-7.5707,-7.6015,-7.6015,-7.6015,-7.6015,-7.6015,-7.6015,-7.6015,-7.6015,-7.6015,-7.6015,-7.6092,-7.6553,-7.7553,-7.8592,-7.9054,-8.0131,-8.1093,-8.1093,-8.1093,-8.1093,-8.1093,-8.1093,-8.1093,-8.1093,-8.1093,-8.1093,-8.1093,-8.1093,-8.1093,-8.1093,-8.1093,-8.1093,-8.1093,-8.1093,-8.1093,-8.1093,-8.1093,-8.1093,-8.1093,-8.1093,-8.1093,-8.1093,-8.1093,-8.1093,-8.1093,-7.9823,-7.9131,-7.9131,-7.79,-7.7092,-7.663,-7.6207,-7.6015,0.0,0.0,0.0,0.0,0.0,-4.2029,0.0,0.0,0.0,-4.2653,0.0,0.0,0.0,0.0,0.0,0.0,0.0,0.0,0.0,0.0,0.0,0.0,0.0,0.0,0.0,-5.914,-5.9689,-6.0731,-6.0204,-6.0089,-6.0742,-6.0781,-6.0781,-6.0781,-6.0781,-6.0781,-6.0781,-6.0973,-6.182,-6.3308,-6.3462,-6.4397,-6.5897,-6.5897,-6.5897,-6.5897,-6.5897,-6.6859,-6.8385,-6.8385,-6.9398,-7.0898,-7.0898,-7.1552,-7.2552,-7.3245,-7.413,-7.5053,-7.5745,-7.6015,-7.6015,-7.6015,-7.6015,-7.6015,-7.6015,-7.6015,-7.6015,-7.6015,-7.613,-7.6399,-7.713,-7.8015,-7.8938,-7.9631,-8.0477,-8.1093,-8.1093,-8.1093,-8.1093,-8.1093,-8.1093,-8.1093,-8.1093,-8.1093,-8.1093,-8.1093,-8.1093,-8.1093,-8.1093,-8.1093,-8.1093,-8.1093,-8.1093,-8.1093,-8.1093,-8.1093,-8.1093,-8.1093,-8.1093,-8.1093,-8.1093,-8.1093,-8.1093,-8.1093,-8.0246,-7.9823,-7.9823,-7.813,-7.6938,-7.6245,-7.6092,-7.6015,0.0,0.0,0.0,0.0,-4.6085,0.0,0.0,0.0,-4.1111,-3.8778,0.0,0.0,0.0,0.0,0.0,0.0,0.0,0.0,0.0,0.0,0.0,0.0,0.0,0.0,0.0,-5.6612,-5.7478,-6.055,-5.7973,-5.7588,-6.0627,-6.0781,-6.0781,-6.0781,-6.0781,-6.0781,-6.0781,-6.1562,-6.2397,-6.3308,-6.4089,-6.4974,-6.5897,-6.5897,-6.5897,-6.5897,-6.5897,-6.6859,-6.8385,-6.8385,-6.9398,-7.0898,-7.0898,-7.1898,-7.336,-7.3476,-7.4514,-7.5861,-7.5976,-7.6015,-7.6015,-7.6015,-7.6015,-7.6015,-7.6015,-7.6015,-7.6015,-7.6015,-7.6553,-7.7169,-7.7284,-7.8477,-7.9669,-7.9785,-8.0477,-8.1093,-8.1093,-8.1093,-8.1093,-8.1093,-8.1093,-8.1093,-8.1093,-8.1093,-8.1093,-8.1093,-8.1093,-8.1093,-8.1093,-8.1093,-8.1093,-8.1093,-8.1093,-8.1093,-8.1093,-8.1093,-8.1093,-8.1093,-8.1093,-8.1093,-8.1093,-8.1093,-8.1093,-8.1093,-8.0246,-7.9823,-7.9823,-7.813,-7.7246,-7.713,-7.6361,-7.6015,0.0,0.0,0.0,0.0,0.0,0.0,-4.1258,0.0,-3.9402,0.0,0.0,0.0,0.0,0.0,0.0,0.0,0.0,0.0,0.0,0.0,0.0,0.0,0.0,0.0,0.0,0.0,0.0,0.0,-5.7088,-5.6973,-5.9896,-6.0512,-6.0781,-6.0781,-6.0781,-6.105,-6.155,-6.1908,-6.2743,-6.4051,-6.4436,-6.5051,-6.5897,-6.5897,-6.5897,-6.5936,-6.6397,-6.7282,-6.8423,-6.8936,-6.986,-7.0898,-7.0898,-7.1975,-7.3514,-7.3514,-7.4553,-7.6015,-7.6015,-7.6015,-7.6015,-7.6015,-7.6015,-7.6015,-7.6015,-7.6015,-7.6092,-7.6592,-7.7015,-7.7515,-7.8515,-7.9285,-7.9939,-8.0439,-8.0823,-8.1093,-8.1093,-8.1093,-8.1093,-8.1093,-8.1093,-8.1093,-8.1093,-8.1093,-8.1093,-8.1093,-8.1093,-8.1093,-8.1093,-8.1093,-8.1093,-8.1093,-8.1093,-8.1093,-8.1093,-8.1093,-8.1093,-8.1093,-8.1093,-8.1093,-8.1093,-8.1093,-8.1093,-8.1093,-8.0746,-8.0554,-8.0554,-7.9323,-7.8477,-7.7938,-7.663,-7.6284,-5.0582,0.0,0.0,0.0,0.0,0.0,0.0,0.0,0.0,0.0,0.0,0.0,0.0,0.0,0.0,0.0,0.0,0.0,0.0,0.0,0.0,0.0,0.0,0.0,0.0,0.0,0.0,0.0,0.0,-5.5588,-5.9319,-6.0089,-6.055,-6.0781,-6.0781,-6.1216,-6.2101,-6.2332,-6.3166,-6.4589,-6.4859,-6.5282,-6.5897,-6.5897,-6.5897,-6.5936,-6.6744,-6.759,-6.8475,-6.936,-7.0167,-7.0898,-7.0898,-7.1975,-7.3514,-7.3514,-7.4553,-7.6015,-7.6015,-7.6015,-7.6015,-7.6015,-7.6015,-7.6015,-7.6015,-7.6015,-7.6169,-7.7053,-7.7438,-7.7938,-7.9438,-7.9977,-8.0323,-8.0939,-8.1093,-8.1093,-8.1093,-8.1093,-8.1093,-8.1093,-8.1093,-8.1093,-8.1093,-8.1093,-8.1093,-8.1093,-8.1093,-8.1093,-8.1093,-8.1093,-8.1093,-8.1093,-8.1093,-8.1093,-8.1093,-8.1093,-8.1093,-8.1093,-8.1093,-8.1093,-8.1093,-8.1093,-8.1093,-8.1093,-8.1093,-8.1093,-8.1093,-8.0246,-7.9477,-7.8823,-7.713,-7.6553,0.0,0.0,0.0,-4.7535,0.0,0.0,0.0,0.0,-4.267,0.0,0.0,0.0,0.0,0.0,0.0,0.0,0.0,0.0,0.0,0.0,0.0,0.0,0.0,0.0,0.0,0.0,0.0,0.0,0.0,0.0,-5.9165,-5.9511,-5.9935,-6.0781,-6.0781,-6.1216,-6.2101,-6.2858,-6.3705,-6.4628,-6.5474,-6.5859,-6.5897,-6.5897,-6.5897,-6.5936,-6.6744,-6.759,-6.8475,-6.936,-7.0167,-7.0898,-7.0898,-7.1975,-7.3514,-7.3514,-7.4553,-7.6015,-7.6015,-7.6015,-7.6015,-7.6015,-7.6015,-7.6015,-7.6015,-7.6015,-7.6169,-7.7053,-7.7861,-7.8669,-7.9592,-8.0439,-8.1054,-8.1093,-8.1093,-8.1093,-8.1093,-8.1093,-8.1093,-8.1093,-8.1093,-8.1093,-8.1093,-8.1093,-8.1093,-8.1093,-8.1093,-8.1093,-8.1093,-8.1093,-8.1093,-8.1093,-8.1093,-8.1093,-8.1093,-8.1093,-8.1093,-8.1093,-8.1093,-8.1093,-8.1093,-8.1093,-8.1093,-8.1093,-8.1093,-8.1093,-8.1093,-8.0246,-7.9785,-7.9708,-7.8054,-7.6823,0.0,0.0,-5.6712,-5.1279,0.0,0.0,0.0,0.0,0.0,0.0,0.0,0.0,0.0,0.0,0.0,0.0,0.0,0.0,0.0,0.0,0.0,0.0,0.0,0.0,0.0,0.0,0.0,0.0,-5.0898,0.0,0.0,-5.8896,-5.9627,-5.9935,-6.0512,-6.1473,-6.2897,-6.3166,-6.4051,-6.5474,-6.5743,-6.5897,-6.5897,-6.5897,-6.6205,-6.6744,-6.759,-6.8436,-6.9321,-7.0167,-7.0667,-7.0975,-7.1552,-7.2476,-7.3514,-7.3514,-7.4553,-7.6015,-7.6015,-7.6015,-7.6015,-7.6015,-7.6015,-7.6015,-7.6015,-7.6399,-7.7015,-7.7861,-7.8707,-7.9554,-8.0439,-8.09,-8.1093,-8.1093,-8.1093,-8.1093,-8.1093,-8.1093,-8.1093,-8.1093,-8.1093,-8.1093,-8.1093,-8.1093,-8.1093,-8.1093,-8.1093,-8.1093,-8.1093,-8.1093,-8.1093,-8.1093,-8.1093,-8.1093,-8.1093,-8.1093,-8.1093,-8.1093,-8.1093,-8.1093,-8.1093,-8.1093,-8.1093,-8.1093,-8.1093,-8.1093,-8.1093,-8.0785,-8.0054,-7.8938,-7.8938,-7.8477,-5.851,-5.8804,0.0,-5.3922,-5.205,0.0,-4.4745,0.0,-4.5333,0.0,0.0,0.0,0.0,0.0,0.0,0.0,0.0,0.0,0.0,0.0,0.0,0.0,0.0,0.0,0.0,0.0,-4.5228,-4.948,0.0,0.0,0.0,0.0,-5.9204,-5.9473,-6.0358,-6.1589,-6.3269,-6.3308,-6.4166,-6.5897,-6.5897,-6.5897,-6.5897,-6.5897,-6.632,-6.7128,-6.8013,-6.8898,-6.9744,-7.0552,-7.0898,-7.0975,-7.186,-7.2745,-7.3538,-7.3822,-7.4822,-7.6015,-7.6015,-7.6015,-7.6015,-7.6015,-7.6015,-7.6053,-7.6361,-7.6861,-7.7515,-7.8631,-7.9361,-8.0015,-8.0862,-8.1093,-8.1093,-8.1093,-8.1093,-8.1093,-8.1093,-8.1093,-8.1093,-8.1093,-8.1093,-8.1093,-8.1093,-8.1093,-8.1093,-8.1093,-8.1093,-8.1093,-8.1093,-8.1093,-8.1093,-8.1093,-8.1093,-8.1093,-8.1093,-8.1093,-8.1093,-8.1093,-8.1093,-8.1093,-8.1093,-8.1093,-8.1093,-8.1093,-8.1093,-8.1093,-8.1093,-8.1093,-8.0362,-7.8977,-7.9862,-7.9785]},{"header":{"parameterUnit":"m.s-1","parameterCategory":1,"la1":30.6,"la2":29.2853,"lo1":-89.7004,"lo2":-87.6739,"dy":0.0162,"dx":0.0183,"nx":112,"ny":82,"refTime":"2025-01-12T06:00:00:Z","depth":0,"parameterNumber":3,"parameterNumberName":"V-component_of_WINDS"},"data":[0.0,0.0,0.0,0.0,0.0,0.0,0.0,0.0,0.0,0.0,0.0,0.0,0.0,0.0,0.0,0.0,0.0,0.0,0.0,0.0,0.0,0.0,0.0,0.0,0.0,0.0,0.0,0.0,0.0,0.0,0.0,0.0,0.0,0.0,0.0,0.0,0.0,0.0,0.0,0.0,0.0,0.0,0.0,0.0,0.0,0.0,0.0,0.0,0.0,0.0,0.0,0.0,0.0,0.0,0.0,0.0,0.0,0.0,0.0,0.0,0.0,0.0,0.0,0.0,0.0,0.0,0.0,0.0,0.0,0.0,0.0,0.0,0.0,0.0,0.0,0.0,0.0,0.0,0.0,0.0,0.0,0.0,0.0,0.0,0.0,0.0,0.0,0.0,0.0,0.0,1.7581,1.8704,2.0201,2.1002,2.0762,2.0388,1.9319,1.7393,0.0,0.0,0.0,0.0,0.0,0.0,0.0,0.0,0.0,0.0,0.0,0.0,0.0,0.0,0.0,0.0,0.0,0.0,0.0,0.0,0.0,0.0,0.0,0.0,0.0,0.0,0.0,0.0,0.0,0.0,0.0,0.0,0.0,0.0,0.0,0.0,0.0,0.0,0.0,0.0,0.0,0.0,0.0,0.0,0.0,0.0,0.0,0.0,0.0,0.0,0.0,0.0,0.0,0.0,0.0,0.0,0.0,0.0,0.0,0.0,0.0,0.0,0.0,0.0,0.0,0.0,0.0,0.0,0.0,0.0,0.0,0.0,0.0,0.0,0.0,0.0,0.0,0.0,0.0,0.0,0.0,0.0,0.0,0.0,0.0,0.0,0.0,0.0,0.0,0.0,0.0,0.0,0.0,0.0,0.0,0.0,0.0,0.0,0.0,0.0,0.0,0.0,0.0,0.0,1.7689,2.0094,2.0802,2.1096,2.1042,2.0321,1.9199,1.7622,0.0,0.0,0.0,0.0,0.0,0.0,0.0,0.0,0.0,0.0,0.0,0.0,0.0,0.0,0.0,0.0,0.0,0.0,0.0,0.0,0.0,0.0,0.0,0.0,0.0,0.0,0.0,0.0,0.0,0.0,0.0,0.0,0.0,0.0,0.0,0.0,0.0,0.0,0.0,0.0,0.0,0.0,0.0,0.0,0.0,0.0,0.0,0.0,0.0,0.0,0.0,0.0,0.0,0.0,0.0,0.0,0.0,0.0,0.0,0.0,0.0,0.0,0.0,0.0,0.0,0.0,0.0,0.0,0.0,0.0,0.0,0.0,0.0,0.0,0.0,0.0,0.0,0.0,0.0,0.0,0.0,0.0,0.0,0.0,0.0,0.0,0.0,0.0,0.0,0.0,0.0,0.0,0.0,0.0,0.0,0.0,0.0,0.0,0.0,0.0,0.0,0.0,0.0,1.7355,1.8504,2.0681,2.1029,2.1109,2.1109,2.0307,1.9158,1.7675,1.5912,0.0,0.0,0.0,0.0,0.0,0.0,0.0,0.0,0.0,0.0,0.0,0.0,0.0,0.0,0.0,0.0,0.0,0.0,0.0,0.0,0.0,0.0,0.0,0.0,0.0,0.0,0.0,0.0,0.0,0.0,0.0,0.0,0.0,0.0,0.0,0.0,0.0,0.0,0.0,0.0,0.0,0.0,0.0,0.0,0.0,0.0,0.0,0.0,0.0,0.0,0.0,0.0,0.0,0.0,0.0,0.0,0.0,0.0,0.0,0.0,0.0,0.0,0.0,0.0,0.0,0.0,0.0,0.0,0.0,0.0,0.0,0.0,0.0,0.0,0.0,0.0,0.0,0.0,0.0,0.0,0.0,0.0,0.0,0.0,0.0,0.0,0.0,0.0,0.0,0.0,0.0,0.0,0.0,0.0,0.0,0.0,0.0,0.0,0.0,0.0,0.0,0.0,1.8838,1.9546,2.0962,2.1109,2.1109,2.1109,2.012,1.8918,1.7569,1.5431,0.0,0.0,0.0,0.0,0.0,0.0,0.0,0.0,0.0,0.0,0.0,0.0,0.0,0.0,0.0,0.0,0.0,0.0,0.0,0.0,0.0,0.0,0.0,0.0,0.0,0.0,0.0,0.0,0.0,0.0,0.0,0.0,0.0,0.0,0.0,0.0,0.0,0.0,0.0,0.0,0.0,0.0,0.0,0.0,0.0,0.0,0.0,0.0,0.0,0.0,0.0,0.0,0.0,0.0,0.0,0.0,0.0,0.0,0.0,0.0,0.0,0.0,0.0,0.0,0.0,0.0,0.0,0.0,0.0,0.0,0.0,0.0,0.0,0.0,0.0,0.0,0.0,0.0,0.0,0.0,0.0,0.0,0.0,0.0,0.0,0.0,0.0,0.0,0.0,0.0,0.0,0.0,0.0,0.0,0.0,0.0,0.0,0.0,0.0,0.0,0.0,0.0,1.9345,2.0668,2.1069,2.1109,2.1109,2.1109,1.9559,1.8183,1.7286,1.4736,0.0,0.0,0.0,0.0,0.0,0.0,0.0,0.0,0.0,0.0,0.0,0.0,0.0,0.0,0.0,0.0,0.0,0.0,0.0,0.0,0.0,0.0,0.0,0.0,0.0,0.0,0.0,0.0,0.0,0.0,0.0,0.0,0.0,0.0,0.0,0.0,0.0,0.0,0.0,0.0,0.0,0.0,0.0,0.0,0.0,0.0,0.0,0.0,0.0,0.0,0.0,0.0,0.0,0.0,0.0,0.0,0.0,0.0,0.0,0.0,0.0,0.0,0.0,0.0,0.0,0.0,0.0,0.0,0.0,0.0,0.0,0.0,0.0,0.0,0.0,0.0,0.0,0.0,0.0,0.0,0.0,0.0,0.0,0.0,0.0,0.0,0.0,0.0,0.0,0.0,0.0,0.0,0.0,0.0,0.0,0.0,0.0,0.0,0.0,0.0,0.0,0.0,1.8918,2.0187,0.0,2.1109,2.1042,2.0855,1.9893,1.8611,1.6981,0.0,0.0,0.0,0.0,0.0,0.0,0.0,0.0,0.0,0.0,0.0,0.0,0.0,0.0,0.0,0.0,0.0,0.0,0.0,0.0,0.0,0.0,0.0,0.0,0.0,0.0,0.0,0.0,0.0,0.0,0.0,0.0,0.0,0.0,0.0,0.0,0.0,0.0,0.0,0.0,0.0,0.0,0.0,0.0,0.0,0.0,0.0,0.0,0.0,0.0,0.0,0.0,0.0,0.0,0.0,0.0,0.0,0.0,0.0,0.0,0.0,0.0,0.0,0.0,0.0,0.0,0.0,0.0,0.0,0.0,0.0,0.0,0.0,0.0,0.0,0.0,0.0,0.0,0.0,0.0,0.0,0.0,0.0,0.0,0.0,0.0,0.0,0.0,0.0,0.0,0.0,0.0,0.0,0.0,0.0,0.0,0.0,0.0,0.0,0.0,0.0,0.0,1.7328,1.8945,2.0227,0.0,2.1109,2.0989,2.0695,1.9706,1.833,1.654,0.0,0.0,0.0,0.0,0.0,0.0,0.0,0.0,0.0,0.0,0.0,0.0,0.0,0.0,0.0,0.0,0.0,0.0,0.0,0.0,0.0,0.0,0.0,0.0,0.0,0.0,0.0,0.0,0.0,0.0,0.0,0.0,0.0,0.0,0.0,0.0,0.0,0.0,0.0,0.0,0.0,0.0,0.0,0.0,0.0,0.0,0.0,0.0,0.0,0.0,0.0,0.0,0.0,0.0,0.0,0.0,0.0,0.0,0.0,0.0,0.0,0.0,0.0,0.0,0.0,0.0,0.0,0.0,0.0,0.0,0.0,0.0,0.0,0.0,0.0,0.0,0.0,0.0,0.0,0.0,0.0,0.0,0.0,0.0,0.0,0.0,0.0,0.0,0.0,0.0,0.0,0.0,0.0,0.0,0.0,0.0,0.0,0.0,0.0,0.0,0.0,0.0,1.7435,1.9653,2.1109,2.1109,2.1109,2.0989,2.0695,1.8784,1.7088,0.0,0.0,0.0,0.0,0.0,0.0,0.0,0.0,0.0,0.0,0.0,0.0,0.0,0.0,0.0,0.0,0.0,0.0,0.0,0.0,0.0,0.0,0.0,0.0,0.0,0.0,0.0,0.0,0.0,0.0,0.0,0.0,0.0,0.0,0.0,0.0,0.0,0.0,0.0,0.0,0.0,0.0,0.0,0.0,0.0,0.0,0.0,0.0,0.0,0.0,0.0,0.0,0.0,0.0,0.0,0.0,0.0,0.0,0.0,0.0,0.0,0.0,0.0,0.0,0.0,0.0,0.0,0.0,0.0,0.0,0.0,0.0,0.0,0.0,0.0,0.0,0.0,0.0,0.0,0.0,0.0,0.0,0.0,0.0,0.0,0.0,0.0,0.0,0.0,0.0,0.0,0.0,0.0,0.0,0.0,0.0,0.0,0.0,0.0,0.0,0.0,0.0,0.0,1.7435,1.9653,2.1109,2.1109,2.1109,2.0909,2.0401,1.9239,1.7675,1.5645,0.0,0.0,0.0,0.0,0.0,0.0,0.0,0.0,0.0,0.0,0.0,0.0,0.0,0.0,0.0,0.0,0.0,0.0,0.0,0.0,0.0,0.0,0.0,0.0,0.0,0.0,0.0,0.0,0.0,0.0,0.0,0.0,0.0,0.0,0.0,0.0,0.0,0.0,0.0,0.0,0.0,0.0,0.0,0.0,0.0,0.0,0.0,0.0,0.0,0.0,0.0,0.0,0.0,0.0,0.0,0.0,0.0,0.0,0.0,0.0,0.0,0.0,0.0,0.0,0.0,0.0,0.0,0.0,0.0,0.0,0.0,0.0,0.0,0.0,0.0,0.0,0.0,0.0,0.0,0.0,0.0,0.0,0.0,0.0,0.0,0.0,0.0,0.0,0.0,0.0,0.0,0.0,0.0,0.0,0.0,0.0,0.0,0.0,0.0,0.0,0.0,0.0,1.7435,1.9653,2.1109,2.1109,2.1109,2.0869,2.022,1.9426,1.7956,1.5712,0.0,0.0,0.0,0.0,0.0,0.0,0.0,0.0,0.0,0.0,0.0,0.0,0.0,0.0,0.0,0.0,0.0,0.0,0.0,0.0,0.0,0.0,0.0,0.0,0.0,0.0,0.0,0.0,0.0,0.0,0.0,0.0,0.0,0.0,0.0,0.0,0.0,0.0,0.0,0.0,0.0,0.0,0.0,0.0,0.0,0.0,0.0,0.0,0.0,0.0,0.0,0.0,0.0,0.0,0.0,0.0,0.0,0.0,0.0,0.0,0.0,0.0,0.0,0.0,0.0,0.0,0.0,0.0,0.0,0.0,0.0,0.0,0.0,0.0,0.0,0.0,0.0,0.0,0.0,0.0,0.0,0.0,0.0,0.0,0.0,0.0,0.0,0.0,0.0,0.0,0.0,0.0,0.0,0.0,0.0,0.0,0.0,0.0,0.0,0.0,0.0,0.0,1.7475,1.9666,2.1109,2.1109,2.1109,2.0882,2.0321,1.9466,1.809,1.5997,0.0,0.0,0.0,0.0,0.0,0.0,0.0,0.0,0.0,0.0,0.0,0.0,0.0,0.0,0.0,0.0,0.0,0.0,0.0,0.0,0.0,0.0,0.0,0.0,0.0,0.0,0.0,0.0,0.0,0.0,0.0,0.0,0.0,0.0,0.0,0.0,0.0,0.0,0.0,0.0,0.0,0.0,0.0,0.0,0.0,0.0,0.0,0.0,0.0,0.0,0.0,0.0,0.0,0.0,0.0,0.0,0.0,0.0,0.0,0.0,2.3943,0.0,0.0,0.0,0.0,0.0,0.0,0.0,0.0,0.0,0.0,0.0,0.0,0.0,0.0,0.0,0.0,0.0,0.0,0.0,0.0,0.0,0.0,0.0,0.0,0.0,0.0,0.0,0.0,0.0,0.0,0.0,0.0,0.0,0.0,0.0,0.0,0.0,0.0,0.0,0.0,0.0,1.7716,1.98,2.1109,2.1109,2.1109,2.0962,2.0615,1.9773,1.849,1.6633,1.503,0.0,0.0,0.0,0.0,0.0,0.0,0.0,0.0,0.0,0.0,0.0,0.0,0.0,0.0,0.0,0.0,0.0,0.0,0.0,0.0,0.0,0.0,0.0,0.0,0.0,0.0,0.0,0.0,0.0,0.0,0.0,0.0,0.0,0.0,0.0,0.0,0.0,0.0,0.0,0.0,0.0,0.0,0.0,0.0,0.0,0.0,0.0,0.0,0.0,0.0,0.0,0.0,0.0,0.0,0.0,0.0,0.0,0.0,0.0,0.0,2.3785,0.0,0.0,0.0,0.0,0.0,0.0,0.0,0.0,0.0,0.0,0.0,0.0,0.0,0.0,0.0,0.0,0.0,0.0,0.0,0.0,0.0,0.0,0.0,0.0,0.0,0.0,0.0,0.0,0.0,0.0,0.0,0.0,0.0,0.0,0.0,0.0,0.0,0.0,0.0,0.0,1.7809,1.984,2.1109,2.1109,2.1109,2.0989,2.0695,2.0,1.8998,1.7649,1.5912,0.0,0.0,0.0,0.0,0.0,0.0,0.0,0.0,0.0,0.0,0.0,0.0,0.0,0.0,0.0,0.0,0.0,0.0,0.0,0.0,0.0,0.0,0.0,0.0,0.0,0.0,0.0,0.0,0.0,0.0,0.0,0.0,0.0,0.0,0.0,0.0,0.0,0.0,0.0,0.0,0.0,0.0,0.0,0.0,0.0,0.0,0.0,0.0,0.0,0.0,0.0,0.0,0.0,2.9824,3.0078,3.0351,3.0351,3.0587,3.0699,2.6811,2.4734,2.4098,2.3341,0.0,0.0,0.0,0.0,0.0,0.0,0.0,0.0,0.0,0.0,0.0,0.0,0.0,0.0,0.0,0.0,0.0,0.0,0.0,0.0,0.0,0.0,0.0,0.0,1.8103,1.7956,1.5471,0.0,0.0,0.0,0.0,0.0,0.0,0.0,0.0,0.0,0.0,0.0,1.8009,1.9893,2.1109,2.1109,2.1109,2.1015,2.0775,2.0254,1.9573,1.8704,1.6941,1.5605,0.0,0.0,0.0,0.0,0.0,0.0,0.0,0.0,0.0,0.0,0.0,0.0,0.0,0.0,0.0,0.0,0.0,0.0,0.0,0.0,0.0,0.0,0.0,0.0,0.0,0.0,0.0,0.0,0.0,0.0,0.0,0.0,2.5732,2.6582,0.0,0.0,0.0,0.0,0.0,0.0,0.0,0.0,0.0,0.0,0.0,0.0,0.0,2.9512,3.0449,3.1562,3.2168,3.2305,3.3398,3.3769,3.3476,3.3476,3.2543,3.0929,3.0311,0.0,2.8627,2.7425,0.0,0.0,0.0,0.0,0.0,0.0,0.0,0.0,0.0,0.0,0.0,0.0,0.0,0.0,0.0,0.0,0.0,0.0,0.0,0.0,0.0,0.0,1.9332,1.9132,1.9229,1.9078,0.0,1.67,1.5057,1.4309,1.316,0.0,0.0,0.0,0.0,0.0,0.0,0.0,1.8624,2.016,2.1109,2.1109,2.1109,2.1096,2.1056,2.0748,2.0187,1.9363,1.8517,1.7475,1.6099,1.483,0.0,0.0,0.0,0.0,0.0,0.0,0.0,0.0,0.0,0.0,0.0,0.0,0.0,0.0,0.0,0.0,0.0,0.0,0.0,0.0,0.0,0.0,0.0,0.0,0.0,0.0,0.0,0.0,0.0,2.5684,2.668,2.7305,2.6875,2.6378,0.0,0.0,0.0,0.0,0.0,0.0,0.0,0.0,0.0,3.1055,3.1289,3.2031,3.3418,3.3965,3.4492,3.498,3.5293,3.5469,3.5527,3.5273,3.466,3.3785,3.3558,3.2494,3.0631,2.7593,2.5537,2.4121,0.0,0.0,0.0,0.0,2.1912,2.1804,2.0855,2.0435,2.0091,1.9165,0.0,0.0,0.0,0.0,0.0,0.0,0.0,0.0,0.0,0.0,1.9853,2.0054,2.0227,2.0267,1.9973,1.8838,1.7395,0.0,1.511,1.4362,1.3039,0.0,0.0,0.0,0.0,1.7862,1.9025,2.0307,2.1109,2.1109,2.1109,2.1109,2.1109,2.0842,2.0441,1.9893,1.9145,1.837,1.7555,1.6219,1.503,0.0,0.0,0.0,0.0,0.0,0.0,0.0,0.0,0.0,0.0,0.0,0.0,0.0,0.0,0.0,0.0,0.0,0.0,0.0,0.0,0.0,0.0,0.0,0.0,0.0,0.0,0.0,0.0,2.6992,2.7832,2.8262,2.8472,2.8105,0.0,0.0,0.0,0.0,0.0,0.0,3.0351,3.082,3.1836,3.3574,3.373,3.4453,3.5859,3.5879,3.625,3.6992,3.6562,3.6523,3.6816,3.6387,3.6133,3.5996,3.5684,3.4471,3.2496,2.8258,2.5644,2.4073,2.286,2.2103,2.1756,2.212,2.2236,2.223,2.217,2.1993,2.1672,2.0656,1.9471,1.8238,1.7632,0.0,0.0,0.0,0.0,1.8223,1.9038,1.9639,2.016,2.0668,2.0949,2.1056,2.0842,2.0388,1.9412,0.0,1.6941,1.6353,1.4536,0.0,0.0,0.0,0.0,1.8571,1.9479,2.0481,2.1109,2.1109,2.1109,2.1082,2.1002,2.0802,2.0521,2.0147,1.9506,1.8985,1.8624,1.7395,1.6273,1.5357,0.0,0.0,0.0,0.0,0.0,0.0,0.0,0.0,0.0,0.0,0.0,0.0,0.0,0.0,0.0,0.0,0.0,0.0,0.0,0.0,0.0,0.0,0.0,0.0,0.0,0.0,0.0,0.0,0.0,3.0019,3.0449,0.0,0.0,0.0,0.0,2.9434,3.1367,3.2559,3.2637,3.4199,3.5332,3.584,3.6269,3.6719,3.7207,3.7207,3.7422,3.7851,3.7441,3.7246,3.7246,3.6836,3.6406,3.6016,3.5996,3.5675,3.4948,3.1414,2.8317,2.5821,2.5032,2.4472,2.4039,2.3007,2.285,2.2926,2.1988,2.1424,2.1159,2.1451,2.0502,1.9336,1.9314,1.864,0.0,0.0,1.8824,1.9412,2.0013,2.0401,2.0708,2.1015,2.1096,2.1109,2.1096,2.0855,2.0267,0.0,1.8116,1.746,1.7072,0.0,1.6887,1.7702,1.8395,1.9199,2.008,2.0722,2.1109,2.1109,2.1109,2.1002,2.0722,2.0681,2.0428,1.9853,1.9786,1.9506,1.8918,1.8277,1.7382,1.6281,1.3602,0.0,0.0,0.0,0.0,0.0,0.0,0.0,0.0,0.0,0.0,0.0,0.0,0.0,0.0,0.0,0.0,0.0,0.0,0.0,0.0,0.0,0.0,0.0,0.0,0.0,0.0,0.0,0.0,3.1816,3.2734,0.0,3.1914,3.2207,3.2578,3.2851,3.3867,3.4707,3.5254,3.5879,3.6523,3.7226,3.7402,3.7676,3.8125,3.8125,3.8047,3.791,3.75,3.7148,3.6875,3.6445,3.6172,3.5947,3.4727,3.3444,3.1896,2.9234,2.8577,2.8928,2.5897,2.4624,2.4282,2.2787,2.2397,2.258,2.2054,2.1884,2.1871,2.1416,2.0655,1.992,1.992,1.984,1.976,1.9867,2.0187,2.0535,2.0748,2.0882,2.0975,2.1082,2.1109,2.1109,2.1109,2.1029,2.0775,2.0174,1.9492,1.8731,1.7876,1.7956,1.8183,1.8317,1.8985,1.9733,2.0428,2.0869,2.1042,2.0855,2.0828,2.0708,2.0414,2.0388,2.0147,1.9559,1.9519,1.9265,1.8664,1.8063,1.7082,1.5617,1.3169,1.1218,0.0,0.0,0.0,0.0,0.0,0.0,0.0,0.0,0.0,0.0,0.0,0.0,0.0,0.0,0.0,0.0,0.0,0.0,0.0,0.0,0.0,0.0,0.0,0.0,0.0,0.0,3.2695,3.2969,3.4394,3.4961,3.3945,3.4512,3.5059,3.5351,3.5918,3.6504,3.707,3.7226,3.7578,3.8125,3.8144,3.8281,3.8574,3.8574,3.8359,3.791,3.75,3.707,3.666,3.6211,3.6016,3.5947,3.4659,3.3378,3.2053,2.9773,2.9833,3.0871,2.6044,2.4121,2.3903,2.2738,2.2405,2.2539,2.2352,2.2338,2.2311,2.163,2.1069,2.0655,2.0561,2.0668,2.0815,2.0815,2.0962,2.1109,2.1109,2.1109,2.1109,2.1109,2.1109,2.1109,2.1109,2.1109,2.1056,2.0855,2.0428,1.9813,1.8875,1.9048,1.9332,1.9239,1.972,2.0267,2.0762,2.0989,2.1002,2.0708,2.0681,2.0521,2.012,1.9907,1.9626,1.9239,1.8931,1.8637,1.8357,1.7756,1.6717,1.5073,1.2273,1.0091,0.8631,0.0,0.0,0.0,0.0,0.0,0.0,0.0,0.0,0.0,0.0,0.0,0.0,0.0,0.0,0.0,0.0,0.0,0.0,0.0,0.0,0.0,0.0,0.0,3.0215,3.2129,3.3516,3.3555,3.543,3.623,3.4961,3.5976,3.6738,3.6738,3.748,3.7949,3.7949,3.834,3.8574,3.8574,3.8574,3.8574,3.8574,3.8574,3.8359,3.791,3.75,3.707,3.6641,3.6211,3.6016,3.6016,3.5879,3.5811,3.5636,3.3235,3.2069,3.1272,2.5608,2.3209,2.2996,2.2928,2.2928,2.2928,2.2928,2.2672,2.2378,2.2084,2.179,2.1561,2.1203,2.1109,2.1109,2.1109,2.1109,2.1109,2.1109,2.1109,2.1109,2.1109,2.1109,2.1109,2.1109,2.1109,2.1109,2.1109,2.0882,2.0601,2.0294,2.0254,2.0347,2.0628,2.0681,0.0,2.1069,2.1096,2.0989,2.0695,2.0655,2.0414,1.984,1.9252,1.8918,1.8891,1.8063,1.7716,1.7955,1.7448,1.642,1.4737,1.0971,0.8332,0.6889,0.0,0.0,0.0,0.0,0.0,0.0,0.0,0.0,0.0,0.0,0.0,0.0,0.0,0.0,0.0,0.0,0.0,0.0,0.0,0.0,0.0,2.9687,3.125,3.1973,3.3945,3.5644,3.6582,3.75,3.8027,3.7969,3.8008,3.8047,3.8047,3.8262,3.8398,3.8398,3.8516,3.8574,3.8574,3.8574,3.8574,3.8574,3.8574,3.8203,3.7461,3.7344,3.6914,3.6191,3.6074,3.6016,3.5879,3.3083,3.1878,3.1563,2.7971,2.6323,2.6014,2.5469,2.5066,2.4655,2.3393,2.2928,2.2928,2.2928,2.2672,2.2378,2.2084,2.179,2.1561,2.1203,2.1109,2.1109,2.1109,2.1109,2.1109,2.1109,2.1109,2.1109,2.1109,2.1109,2.1109,2.1109,2.1109,2.1109,2.1109,2.1042,2.0895,2.0601,2.0548,2.0588,2.0668,2.0681,0.0,2.1069,2.0922,2.0681,2.0388,2.016,1.9893,1.9519,1.9145,1.8731,1.829,1.7836,1.7528,1.7395,1.7034,1.567,1.3129,0.975,0.7702,0.0,0.0,0.0,0.0,0.0,0.0,0.0,0.0,0.0,0.0,0.0,0.0,0.0,0.0,0.0,0.0,0.0,0.0,0.0,0.0,0.0,0.0,3.1348,3.3008,3.4238,3.5644,3.6973,3.8066,3.8574,3.8926,3.918,3.8984,3.8769,3.8594,3.8574,3.8574,3.8574,3.8574,3.8574,3.8574,3.8574,3.8574,3.8574,3.8398,3.7969,3.7305,3.7129,3.668,3.6016,3.6016,3.6016,3.5879,3.3656,3.2665,3.235,2.8255,2.6379,0.0,0.0,0.0,0.0,0.0,2.2928,2.2928,2.2928,2.2752,2.2539,2.2124,2.1871,2.1657,2.1243,2.1109,2.1109,2.1109,2.1109,2.1109,2.1109,2.1109,2.1109,2.1109,2.1109,2.1109,2.1109,2.1109,2.1109,2.1109,2.1109,0.0,2.0882,2.0855,2.0855,2.0855,2.0855,2.0922,2.1082,2.0962,2.0748,2.0454,2.0267,2.0,1.9586,1.9052,0.0,0.0,0.0,1.5983,1.5137,1.4417,0.0,0.0,0.0,0.0,0.0,0.0,0.0,0.0,0.7319,0.7278,0.0,0.0,0.0,0.0,0.0,0.0,0.0,0.0,0.0,0.0,0.0,0.0,0.0,0.0,0.0,0.0,3.2891,3.4863,3.6504,3.7148,3.7734,3.8555,3.8926,3.9141,3.9199,3.916,3.8965,3.8613,3.8574,3.8574,3.8574,0.0,0.0,0.0,0.0,3.8555,3.8496,3.8125,3.7553,3.6925,3.6557,3.6012,3.5382,3.5382,3.5382,3.5382,3.5089,3.5002,3.4701,3.0786,2.9,2.8321,2.465,2.31,2.2928,2.2928,2.2928,2.2928,2.2928,0.0,0.0,2.2178,2.1991,2.1871,2.1283,2.1109,2.1109,2.1109,2.1109,2.1109,2.1109,2.1109,2.1109,2.1109,2.1109,2.1109,2.1109,2.1109,2.1109,2.1109,2.1109,2.1109,2.1109,2.1109,2.1109,2.1109,2.1109,2.1109,2.1109,2.1082,2.0962,2.0708,0.0,0.0,1.9893,1.9078,1.8571,1.8544,1.6135,1.401,1.2375,1.1191,1.0473,1.034,0.9306,0.8757,0.8757,0.8913,0.8952,0.8959,0.8031,0.7917,0.0,0.0,0.0,0.0,0.0,0.0,0.0,0.0,0.0,0.0,0.0,0.0,0.0,0.0,0.0,3.2129,3.4238,3.5996,3.7031,3.7832,3.8516,3.9023,3.8848,3.8828,3.916,3.8887,3.8652,3.8574,3.8574,3.8574,3.8574,3.8574,3.8574,3.8574,3.8574,3.8398,3.8047,3.7969,3.6718,3.4511,0.0,0.0,3.1369,3.1369,3.1369,3.1299,2.9774,2.8956,2.8514,2.6052,2.4624,2.4092,2.331,2.2913,2.2928,2.2928,2.2928,2.2928,2.2928,2.2928,2.2834,2.2178,2.1991,2.1871,2.1283,2.1109,0.0,2.1109,2.1109,2.1109,2.1109,2.1109,2.1109,2.1109,2.1109,2.1109,2.1109,2.1109,2.1109,2.1109,2.1109,2.1109,2.1109,2.1109,2.1109,2.1109,2.1109,2.1109,2.1109,2.0909,2.0735,2.0681,2.0468,2.0267,2.016,1.9559,1.9092,1.8851,1.6722,1.4754,1.3172,1.1951,1.1234,1.1105,0.9809,0.9125,0.9125,0.9218,0.9415,0.9639,0.9069,0.8995,0.0,0.0,0.0,0.0,0.0,0.0,0.0,0.0,0.0,0.0,0.0,2.7988,2.9082,0.0,3.207,3.3809,3.5371,3.6641,3.748,3.8164,3.873,3.9141,3.9004,3.8965,3.918,3.9004,3.8809,3.8594,3.8574,3.8574,3.8574,3.8574,3.8117,3.7106,3.7032,3.6386,3.4938,3.4721,3.3892,3.2379,3.2171,3.1415,3.031,3.031,3.031,3.0222,2.9154,2.8625,2.8264,2.5985,2.415,2.2928,2.2928,2.2928,2.2928,2.2928,2.2928,2.2928,2.2928,2.2928,2.2792,2.2338,2.2111,2.1897,2.147,2.1229,2.1109,2.1109,2.1109,2.1109,2.1109,2.1109,2.1109,2.1109,2.1109,2.1109,2.1109,2.1109,2.1109,2.1109,2.1109,2.1109,2.1109,2.1109,2.1109,2.1109,2.1109,2.1109,2.1109,2.0989,2.0895,2.0895,2.0762,2.0615,2.0468,1.992,1.8797,1.6855,1.5736,1.4053,1.1553,1.0911,1.0575,1.0466,0.987,0.9598,0.9598,0.9754,0.9903,1.0046,0.9897,0.9829,0.0,0.0,0.0,0.0,0.0,0.0,0.0,0.0,2.6894,2.8359,2.9199,3.0039,3.1289,3.25,3.3789,3.5273,3.6309,3.7148,3.7832,3.8301,3.8672,3.8926,3.9023,3.9082,3.9082,3.9082,3.8945,3.8594,3.8574,3.8574,3.8574,3.819,3.7272,3.5571,3.5053,3.3856,3.1919,3.1539,3.0956,3.0323,2.9959,2.9527,2.9171,2.9171,2.9171,2.9155,2.8882,2.8659,2.8478,2.642,2.4491,2.2928,2.2928,2.2928,2.2928,2.2928,2.2928,2.2928,2.2928,2.2928,2.2819,2.2512,2.2218,2.1937,2.1708,2.1349,2.1109,2.1109,2.1109,2.1109,2.1109,2.1109,2.1109,2.1109,2.1109,2.1109,2.1109,2.1109,2.1109,2.1109,2.1109,2.1109,2.1109,2.1109,2.1109,2.1109,2.1109,2.1109,2.1109,2.1109,2.1109,2.1109,2.1109,2.0989,2.0695,2.0241,1.8501,1.498,1.473,1.3213,0.9861,0.9849,0.9856,0.9741,0.9971,1.0044,1.0071,1.0263,1.0337,1.0371,1.048,1.046,2.5479,2.4797,2.4687,2.582,2.5879,2.6512,0.0,0.0,2.9726,3.1797,3.2305,3.2637,3.3555,3.4473,3.5293,3.5859,3.6973,3.7812,3.791,3.8301,3.8457,3.8105,3.8398,3.8652,3.8652,3.8652,3.8633,3.8574,3.8574,3.8574,3.8574,3.6885,3.5738,3.5497,3.3449,3.2126,3.1449,3.1175,2.9946,2.7913,2.7867,2.6925,2.5198,2.5198,2.5198,2.5245,2.4682,2.4284,2.401,2.346,2.3092,2.2928,2.2928,2.2928,2.2928,2.2928,2.2928,2.2928,2.2928,2.2928,2.2819,2.2512,2.2218,2.1937,2.1708,2.1349,2.1109,2.1109,2.1109,2.1109,2.1109,2.1109,2.1109,2.1109,2.1109,2.1109,2.1109,2.1109,2.1109,2.1109,2.1109,2.1109,2.1109,2.1109,2.1109,2.1109,2.1109,2.1109,2.1109,2.1109,2.1109,2.1109,2.1109,2.0989,2.0695,2.0615,1.9063,1.5443,1.5237,1.375,1.0328,1.0222,1.0222,1.0209,1.0236,1.0317,1.0439,1.046,1.0534,1.067,1.0683,1.0616,2.7617,2.7148,0.0,0.0,2.8301,2.916,3.0781,3.0918,3.1172,3.2812,3.3164,3.3496,3.4629,3.5137,3.5703,0.0,3.7207,3.7637,3.7891,3.8086,3.7571,3.5863,3.697,3.793,3.8164,3.8418,3.8574,3.8574,3.8574,3.8574,3.8574,3.6645,3.4869,3.3524,3.1351,2.9455,2.7747,2.7614,2.6952,2.5786,2.5786,2.5359,2.4636,2.4636,2.4449,2.4115,2.3875,2.35,2.3046,2.2913,2.2928,2.2928,2.2928,2.2928,2.2928,2.2928,2.2928,2.2928,2.2928,2.2928,2.2914,2.2712,2.2365,2.1964,2.1844,2.1483,2.1109,2.1109,2.1109,2.1109,2.1109,2.1109,2.1109,2.1109,2.1109,2.1109,2.1109,2.1109,2.1109,2.1109,2.1109,2.1109,2.1109,2.1109,2.0779,1.9737,2.0449,2.1109,2.1109,2.1109,2.1109,2.1109,2.1109,2.1056,2.0935,2.0029,1.8364,1.5831,1.4683,1.3023,1.0599,1.0534,1.0534,1.0534,1.0534,1.0568,1.0622,1.0622,1.0656,1.0717,1.0717,1.0683,2.8242,0.0,0.0,2.8984,3.0098,3.1133,3.1367,3.1641,3.2207,3.3359,3.3594,3.3965,3.5176,3.5488,3.5937,3.7109,3.7305,3.7441,3.7871,3.7267,3.6114,3.4098,3.4774,3.5817,3.6546,3.7604,3.8281,3.8379,3.787,3.7617,3.7731,3.5184,3.296,3.1211,2.9079,2.6985,2.5077,2.4997,2.485,2.4636,2.4556,2.4516,2.4516,2.4436,2.4128,2.3647,2.3647,2.3354,2.2928,2.2928,2.2928,2.2928,2.2928,2.2928,2.2928,2.2928,2.2928,2.2928,2.2928,2.2928,2.2846,2.2766,2.2392,2.1977,2.1897,2.151,2.1109,2.1109,2.1109,2.1109,2.1109,2.1109,2.1109,2.1109,2.1109,2.1109,2.1109,2.1109,2.1109,2.1109,2.1109,2.1109,2.1109,2.0716,1.9941,1.8704,1.9152,1.9674,1.9674,1.9674,1.9674,1.9674,1.9674,1.9674,1.9674,1.8512,1.7012,1.5265,1.397,1.2545,1.0784,1.0717,1.0717,1.0717,1.0717,1.0717,1.0717,1.0717,1.0717,1.0717,1.0717,1.0717,0.0,0.0,2.9004,2.9434,3.0527,3.1719,3.2539,3.2754,3.3008,3.3867,3.4062,3.4316,3.5234,3.5723,3.6289,3.7168,3.7305,3.7441,3.7871,3.5736,3.3921,3.3451,3.1895,3.1632,0.0,3.5819,3.75,3.791,3.6141,3.5174,3.5553,3.1539,2.9199,2.9108,2.6584,2.5166,2.5077,2.4796,2.4649,2.4636,2.4356,2.4222,2.4209,2.3928,2.3634,2.334,2.334,2.3153,2.2928,2.2928,2.2928,2.2928,2.2928,2.2928,2.2928,2.2928,2.2928,2.2928,2.2928,2.2928,2.2887,2.2525,2.2231,2.1937,2.1722,2.1349,2.1109,2.1109,2.1109,2.1109,2.1109,2.1109,2.1109,2.1109,2.1109,2.1109,2.1109,2.1109,2.1109,2.1109,2.1109,2.1109,2.1109,1.9674,1.8576,1.8512,1.7087,1.6043,1.6043,1.6043,1.6043,1.6043,1.6043,1.6043,1.6043,1.5978,1.5265,1.3521,1.3325,1.2545,1.0784,1.0717,1.0717,1.0717,1.0717,1.0717,1.0717,1.0717,1.0717,1.0717,1.0717,1.0717,0.0,0.0,3.0019,3.1035,3.1836,3.2519,3.3086,3.3203,3.3301,3.3574,3.3633,3.373,3.4023,3.3481,3.3211,3.3959,3.3387,3.2896,3.3284,3.2743,3.1452,2.9174,2.9802,0.0,0.0,0.0,0.0,3.555,3.3971,3.2935,3.289,3.0395,2.8837,2.8402,2.6271,2.4983,2.4783,2.469,2.4543,2.4342,2.4062,2.3915,2.3915,2.3808,2.3607,2.3327,2.3327,2.3153,2.2928,2.2928,2.2928,2.2928,2.2928,2.2928,2.2928,2.2928,2.2928,2.2928,2.2928,2.2928,2.2819,2.2512,2.2218,2.1937,2.1708,2.1349,2.1109,2.1109,2.1109,2.1109,2.1109,2.1109,2.1109,2.1109,2.1109,2.1109,2.1109,2.1109,2.1109,2.1109,2.1109,2.0716,1.9546,1.8896,1.7731,1.5394,1.5524,1.5913,1.5913,1.5913,1.5913,1.5913,1.5913,1.5913,1.5913,1.4819,1.3905,1.3325,1.2215,1.1306,1.0717,1.0717,1.0717,1.0717,1.0717,1.0717,1.0717,1.0717,1.0717,1.0717,1.0717,1.0717,2.9414,3.0215,3.0937,3.2109,3.2715,3.3086,3.3359,3.3301,3.3203,3.3203,3.2949,3.2832,3.3144,3.1851,3.1411,3.3206,3.2292,3.1544,3.2052,3.1526,3.0009,2.7221,2.758,2.7559,0.0,0.0,0.0,3.2858,3.1496,3.0569,3.0547,2.8642,2.747,2.7052,2.5629,2.4823,2.4562,2.4529,2.4275,2.3888,2.3701,2.3554,2.3447,2.3447,2.334,2.3166,2.3166,2.3046,2.2928,2.2928,2.2928,2.2928,2.2928,2.2928,2.2928,2.2928,2.2928,2.2928,2.2928,2.2928,2.2819,2.2512,2.2218,2.1937,2.1708,2.1349,2.1109,2.1109,2.1109,2.1109,2.1109,2.1109,2.1109,2.1109,2.1109,2.1109,2.1109,2.1109,2.1109,2.1109,2.0589,1.9814,1.8704,1.7474,1.5654,1.28,1.3325,1.4036,1.4036,1.4036,1.4036,1.4036,1.4036,1.4036,1.4036,1.2997,1.2347,1.2347,1.1306,1.0717,1.0717,1.0717,1.0717,1.0717,1.0717,1.0717,1.0717,1.0717,1.0717,1.0717,1.0717,1.0717,3.0059,3.0918,3.1777,3.2617,3.3125,3.3418,3.3398,3.3086,3.2773,3.2715,3.2031,3.168,0.0,0.0,3.0681,3.4296,3.3539,3.2764,3.3624,3.1722,2.9504,0.0,0.0,0.0,0.0,0.0,0.0,2.9906,0.0,2.797,2.8342,2.6327,2.5077,2.5064,2.4783,2.4636,2.4636,2.4329,2.3888,2.3327,2.3313,2.3153,2.2928,2.2928,2.2928,2.2928,2.2928,2.2928,2.2928,2.2928,2.2928,2.2928,2.2928,2.2928,2.2928,2.2928,2.2928,2.2928,2.2928,2.2928,2.2819,2.2512,2.2231,2.1951,2.1735,2.1363,2.1136,2.1136,2.1122,2.1109,2.1109,2.1109,2.1109,2.1109,2.1109,2.1109,2.1109,2.1046,2.0982,2.0982,1.9483,1.8244,1.8244,1.5394,1.261,1.0982,1.0717,1.0717,1.0717,1.0717,1.0717,1.0717,1.0717,1.0717,1.0717,1.0717,1.0717,1.0717,1.0717,1.0717,1.0717,1.0717,1.0717,1.0717,1.0717,1.0717,1.0717,1.0717,1.0717,1.0717,1.0717,1.0717,3.125,3.2051,3.2598,3.3125,3.334,3.334,3.3027,3.2871,3.2519,3.1562,3.0937,3.0312,0.0,0.0,0.0,2.8065,2.7238,0.0,2.7348,2.7076,0.0,2.5474,0.0,2.448,2.4602,2.435,0.0,0.0,2.5792,2.5744,2.5667,2.5296,2.4983,2.4756,2.4676,2.4636,2.4636,2.4142,2.3701,2.3327,2.3086,2.2939,2.2928,2.2928,2.2928,2.2928,2.2928,2.2928,2.2928,2.2928,2.2928,2.2928,2.2928,2.2928,2.2928,2.2928,2.2928,2.2928,2.2928,2.2928,2.2819,2.2512,2.2365,2.2258,2.1964,2.167,2.1443,2.1443,2.1283,2.1109,2.1109,2.1109,2.1109,2.1109,2.1109,2.1109,2.1109,2.0068,1.9152,1.9152,1.6689,1.4623,1.4623,1.28,1.124,1.0784,1.0717,1.0717,1.0717,1.0717,1.0717,1.0717,1.0717,1.0717,1.0717,1.0717,1.0717,1.0717,1.0717,1.0717,1.0717,1.0717,1.0717,1.0717,1.0717,1.0717,1.0717,1.0717,1.0717,1.0717,1.0717,1.0717,3.2129,3.2754,3.3125,3.3359,3.3281,3.2988,3.2383,3.1934,3.1289,3.0019,2.9394,0.0,0.0,0.0,0.0,0.0,0.0,0.0,2.6453,2.6749,2.6474,0.0,2.5104,0.0,2.4382,2.4489,2.4529,0.0,2.4703,2.481,2.4649,2.4796,2.481,2.4636,2.4636,2.4516,2.4262,2.3928,2.3554,2.3113,2.2939,2.2928,2.2928,2.2928,2.2928,2.2928,0.0,2.2928,2.2928,2.2928,2.2928,2.2928,2.2928,2.2928,2.2928,2.2928,2.2928,2.2928,2.2928,2.2928,2.2832,2.2672,2.2525,2.2392,2.2218,2.1884,2.1614,2.1614,2.1336,2.1109,2.1109,2.1109,2.1109,2.1109,2.1109,2.1109,2.1109,1.9737,1.8052,1.6496,1.4697,1.3162,1.2297,1.1372,1.0717,1.0717,1.0717,1.0717,1.0717,1.0717,1.0717,1.0717,1.0717,1.0717,1.0717,1.0717,1.0717,1.0717,1.0717,1.0717,1.0717,1.0717,1.0717,1.0717,1.0717,1.0717,1.0717,1.0717,1.0758,1.0819,1.0819,1.0853,3.2851,3.3223,3.3516,3.3516,3.3144,3.2559,3.1641,3.0742,2.9726,2.8398,0.0,2.7266,2.6836,0.0,2.487,2.7686,0.0,2.6453,2.7806,2.8116,2.7644,2.6152,2.5692,2.5411,2.5157,2.5104,2.497,2.4716,2.4663,2.4636,2.4636,2.4636,2.4636,2.4636,2.4636,2.4382,2.3834,2.3794,2.3487,2.2926,2.2954,2.2928,2.2928,2.2928,2.2928,2.2928,2.2928,2.2928,2.2928,2.2928,2.2928,2.2928,2.2928,2.2928,2.2928,2.2928,2.2928,2.2928,2.2928,2.2928,2.2928,2.2928,2.2686,2.2472,2.2472,2.2098,2.1735,2.1735,2.1456,2.1229,2.1229,2.1229,2.1166,2.0898,2.0834,2.077,2.0502,1.9132,1.6915,1.3656,1.3136,1.2665,1.1066,1.0778,1.0778,1.0778,1.0778,1.0772,1.0751,1.0731,1.0717,1.0717,1.0717,1.0717,1.0717,1.0717,1.0717,1.0717,1.0717,1.0717,1.0717,1.0717,1.0717,1.0717,1.0738,1.0751,1.0751,1.0772,1.0846,1.0907,1.0907,1.1043,3.373,3.3906,3.3965,3.3965,3.3379,3.248,3.1269,3.0312,0.0,0.0,0.0,2.5937,2.5488,2.4121,0.0,2.499,0.0,0.0,0.0,0.0,2.5995,0.0,0.0,0.0,0.0,0.0,0.0,0.0,0.0,2.4636,2.4636,2.4636,2.4636,2.4636,2.4636,2.4476,2.4128,2.3888,2.3594,2.3247,2.2979,2.2928,2.2928,2.2928,2.2928,2.2928,2.2928,0.0,2.2928,2.2928,2.2928,2.2928,2.2928,2.2928,2.2928,2.2928,2.2928,2.2928,2.2928,2.2928,2.2928,2.2928,2.2832,2.2779,2.2779,2.2539,2.2271,2.2271,2.2058,2.183,2.183,2.183,2.1437,1.9886,1.9555,1.908,1.7529,1.5855,1.3976,1.1967,1.1584,1.1523,1.1159,1.1084,1.1084,1.1084,1.1084,1.1043,1.0853,1.0799,1.0717,1.0717,1.0717,1.0717,1.0717,1.0717,1.0717,1.0717,1.0717,1.0717,1.0717,1.0717,1.0717,1.0717,1.0779,1.084,1.084,1.1029,1.1097,1.1124,1.1124,1.1138,3.4277,3.4238,3.4082,3.4082,3.3262,3.207,3.0547,0.0,0.0,0.0,0.0,2.4656,2.3361,0.0,0.0,0.0,0.0,0.0,0.0,0.0,0.0,0.0,0.0,0.0,0.0,0.0,0.0,0.0,0.0,2.4636,2.4636,2.4636,2.4636,2.4636,2.4636,2.4489,2.4209,2.4062,2.3848,2.3554,2.3407,2.326,2.31,2.31,2.302,2.2928,2.2928,2.2928,2.2928,2.2928,2.2928,2.2928,2.2928,2.2928,2.2928,2.2928,2.2928,2.2928,2.2928,2.2928,2.2928,2.2928,2.2928,2.2928,2.2928,2.2659,2.2217,2.1247,2.0776,2.0298,1.9342,1.9076,1.8875,1.7927,1.7725,1.7255,1.543,1.443,1.338,1.1517,1.1226,1.1253,1.1179,1.1234,1.1234,1.1234,1.1234,1.1138,1.107,1.0995,1.0894,1.0738,1.0717,1.0717,1.0717,1.0725,1.0772,1.0772,1.0907,1.0948,1.0948,1.0948,1.0948,1.0948,1.1023,1.1056,1.1063,1.1131,1.1275,1.128,1.128,1.1321,3.459,3.4531,3.4336,3.4238,3.2991,3.1416,2.9807,2.8222,0.0,0.0,0.0,2.3582,2.1762,0.0,0.0,0.0,0.0,0.0,0.0,0.0,0.0,0.0,0.0,0.0,0.0,0.0,0.0,0.0,0.0,0.0,2.4636,2.4636,2.4636,2.4636,2.4636,2.4529,2.4302,2.4235,2.4088,2.3861,2.3794,2.3647,2.342,2.342,2.326,2.2966,2.2966,2.2926,2.2928,2.2928,2.2928,2.2928,2.2928,2.2968,2.2966,2.2966,2.3006,2.306,2.306,2.3088,2.2966,2.2966,2.2913,2.2928,2.2928,2.2427,2.162,2.0099,1.9265,1.8429,1.6926,1.6586,1.645,1.6109,1.563,1.5014,1.3587,1.3424,1.3068,1.1559,1.1355,1.1402,1.128,1.126,1.126,1.126,1.126,1.1246,1.1212,1.1212,1.1111,1.0846,1.0819,1.0819,1.0819,1.0928,1.0927,1.0927,1.1097,1.1234,1.1234,1.1234,1.1234,1.1234,1.1261,1.1212,1.1212,1.1246,1.1321,1.1443,1.1443,1.1504,3.459,3.498,3.5176,3.4746,3.2611,3.0285,2.9196,0.0,0.0,0.0,2.3535,2.2942,2.2099,0.0,0.0,0.0,0.0,0.0,0.0,0.0,0.0,0.0,0.0,0.0,0.0,0.0,0.0,0.0,0.0,0.0,2.4636,2.4636,2.4636,2.4636,2.4636,2.4623,2.4596,2.4342,2.4195,2.4155,2.3901,2.3754,2.3728,2.3728,2.3567,2.3287,2.3287,2.3126,0.0,2.2928,2.2928,2.2928,2.2928,2.3033,2.3287,2.3287,2.346,2.3688,2.3688,2.3514,2.3287,2.3287,2.31,2.2928,2.2928,2.1721,2.0304,2.0097,1.8743,1.7327,1.7187,1.7117,1.6697,1.5009,1.3263,1.2001,1.1858,1.1801,1.1736,1.1579,1.1592,1.1592,1.1579,1.1579,1.1579,1.1579,1.1579,1.1531,1.1389,1.1369,1.1307,1.1138,1.1124,1.1124,1.1124,1.12,1.1145,1.1145,1.1158,1.1234,1.1234,1.1234,1.1234,1.1234,1.1301,1.1369,1.1369,1.1511,1.1586,1.1599,1.1599,1.1606,3.3529,3.4203,3.4922,3.4746,3.2225,2.961,2.9041,0.0,0.0,2.384,2.284,2.1713,2.0702,1.968,0.0,0.0,0.0,0.0,0.0,0.0,0.0,0.0,0.0,0.0,0.0,0.0,0.0,0.0,0.0,0.0,2.4636,2.4636,2.4636,2.4636,2.4636,2.4636,2.4636,2.4516,2.4462,2.4462,2.4342,2.4195,2.4035,2.4035,2.3768,2.3327,2.3327,2.3153,0.0,2.2928,2.2928,2.2954,2.3073,2.322,2.3354,2.3527,2.3674,2.3768,2.3768,2.3688,2.3382,2.2137,2.1583,2.1463,2.1232,1.9843,1.8089,1.6967,1.6122,1.5283,1.4085,1.3808,1.3666,1.2888,1.2108,1.1619,1.1619,1.1687,1.1748,1.1748,1.1823,1.1884,1.1884,1.1884,1.1884,1.1884,1.1809,1.1728,1.1667,1.1579,1.1504,1.1443,1.1274,1.1234,1.1234,1.1246,1.1301,1.1301,1.1389,1.1436,1.1436,1.1436,1.1436,1.1436,1.1497,1.1531,1.1531,1.1592,1.1619,1.1619,1.1708,1.1748,3.2125,3.3036,3.3756,3.303,3.1109,2.9159,0.0,0.0,2.3441,2.3126,2.1815,2.0387,1.9177,1.8426,1.7872,0.0,0.0,0.0,0.0,0.0,0.0,0.0,0.0,0.0,0.0,0.0,0.0,0.0,0.0,0.0,2.4636,2.4636,2.4636,2.4636,2.4636,2.4636,2.4636,2.4636,2.4636,2.4636,2.4636,2.4529,2.4329,2.4329,2.4062,2.3581,2.3581,2.3367,0.0,2.3169,2.3086,2.3033,2.334,2.3514,2.3607,2.3821,2.3955,2.395,2.3359,2.3078,2.2713,2.0581,1.9459,1.8789,1.8627,1.7561,1.6122,1.4787,1.4047,1.3323,1.2098,1.1748,1.1748,1.1748,1.1748,1.1748,1.1748,1.183,1.1898,1.1898,1.1986,1.2135,1.2135,1.2135,1.2135,1.2135,1.1972,1.1898,1.1898,1.1809,1.1748,1.1748,1.1558,1.1466,1.1307,1.1396,1.1457,1.1457,1.1558,1.1619,1.1619,1.166,1.1681,1.1681,1.1728,1.1748,1.1748,1.1748,1.1748,1.1755,1.185,1.1898,3.0501,3.1468,3.1532,2.9089,2.9096,2.892,0.0,2.3632,2.1946,2.1443,2.0359,1.9131,1.7963,1.7684,1.7585,1.7262,0.0,0.0,0.0,0.0,0.0,0.0,0.0,0.0,0.0,0.0,0.0,0.0,0.0,0.0,2.4636,2.4636,2.4636,2.4636,2.4636,2.4636,2.4636,2.4636,2.4636,2.4636,2.4636,2.4636,2.4636,2.4636,2.4476,2.4195,2.4195,2.3861,0.0,2.3647,2.3581,2.3354,2.3647,2.3941,2.4195,2.4195,2.4382,2.4327,2.2347,2.1425,2.092,1.8832,1.6684,1.4982,1.4973,1.472,1.4432,1.4432,1.3138,1.1864,1.202,1.2054,1.2054,1.2054,1.2054,1.2054,1.2054,1.2135,1.2135,1.2135,1.2135,1.2135,1.2135,1.2135,1.2135,1.2135,1.2135,1.2135,1.2135,1.2135,1.2054,1.2054,1.2054,1.1932,1.164,1.1613,1.1619,1.1619,1.1619,1.1619,1.1619,1.1755,1.183,1.183,1.1979,1.2054,1.2054,1.2054,1.2054,1.2054,1.2135,1.2135,2.7608,2.9426,3.1119,2.8846,2.7208,2.5915,2.4932,2.2378,2.0237,2.0088,1.9085,1.8133,1.7777,1.6998,1.6683,1.7608,1.7822,0.0,0.0,0.0,0.0,0.0,0.0,0.0,0.0,0.0,0.0,0.0,0.0,0.0,2.4636,2.4636,2.4636,2.4636,2.4636,2.4636,2.4636,2.4636,2.4636,2.4636,2.4636,2.4636,2.4636,2.4636,2.4476,0.0,0.0,2.3981,0.0,2.3728,2.3714,2.3661,2.3955,2.3305,2.2129,2.2387,2.1605,2.0391,1.9779,1.9511,1.9072,1.7029,1.5772,1.4952,1.3552,1.2962,1.2861,1.2861,1.2462,1.1999,1.2047,1.2135,1.2135,1.2135,1.2135,1.2135,1.2135,1.2142,1.2216,1.2216,1.2298,1.2366,1.2366,1.2366,1.2366,1.2366,1.2277,1.2216,1.2216,1.2128,1.2135,1.2135,1.2135,1.2026,1.1932,1.1925,1.1925,1.1925,1.1925,1.1925,1.1925,1.1965,1.1986,1.1986,1.204,1.2135,1.2135,1.2135,1.2115,1.2216,1.2216,1.2271,0.0,2.6906,2.8369,2.5721,2.4613,2.3938,2.2806,2.0848,1.9154,1.8862,1.7855,1.6998,1.6998,1.6339,1.6117,1.7208,1.7555,0.0,0.0,0.0,0.0,0.0,0.0,0.0,0.0,0.0,0.0,0.0,0.0,0.0,2.4636,2.4636,2.4636,2.4636,2.4636,2.4636,2.4636,2.4636,2.4636,2.4636,2.4636,2.4636,2.4636,2.4636,2.4543,0.0,0.0,2.4209,0.0,2.4048,2.3589,2.2849,2.313,2.1957,2.0255,2.0411,1.9704,1.8497,1.7739,1.7436,1.7056,1.5012,1.4328,1.4014,1.2748,1.2223,1.2074,1.2135,1.2149,1.2162,1.2216,1.223,1.223,1.223,1.223,1.223,1.223,1.2305,1.2372,1.2372,1.244,1.2501,1.2501,1.2501,1.2501,1.2501,1.2427,1.2372,1.2372,1.2284,1.223,1.223,1.223,1.223,1.223,1.2128,1.2135,1.2135,1.2135,1.2135,1.2135,1.2121,1.2149,1.2149,1.2203,1.223,1.223,1.223,1.2277,1.2372,1.2372,1.242,0.0,2.399,2.3889,2.0564,2.1616,2.2741,1.9955,1.9074,0.0,1.7725,1.6622,1.5798,1.5838,1.5811,1.5965,1.6366,1.6938,0.0,0.0,0.0,0.0,0.0,0.0,0.0,0.0,0.0,0.0,0.0,0.0,0.0,2.4636,2.4636,2.4636,2.4636,2.4636,2.4636,2.4636,2.4636,2.4636,2.4636,2.4636,2.4636,2.4636,2.4488,2.4414,0.0,2.4253,2.4035,0.0,2.4074,2.2965,2.104,2.1284,2.0155,1.8345,1.8345,1.827,1.7891,1.5989,1.531,1.5012,1.3112,1.2501,1.2501,1.2501,1.2311,1.2121,1.2264,1.2305,1.2338,1.2467,1.2501,1.2501,1.2501,1.2501,1.2501,1.2501,1.2501,1.2501,1.2501,1.2501,1.2501,1.2501,1.2501,1.2501,1.2501,1.2501,1.2501,1.2501,1.2501,1.2501,1.2501,1.2501,1.2501,1.2501,1.225,1.2094,1.2094,1.2094,1.2094,1.2094,1.223,1.2305,1.2305,1.2433,1.2501,1.2501,1.2501,1.2501,1.2501,1.2501,1.2501,2.1286,0.0,2.213,1.9612,1.9641,1.9964,0.0,1.7859,0.0,0.0,0.0,0.0,0.0,1.6126,1.6299,1.7742,0.0,1.8584,0.0,0.0,0.0,0.0,0.0,0.0,0.0,0.0,0.0,0.0,0.0,2.4636,2.4636,2.4636,2.4636,2.4636,2.4636,2.4636,2.4636,2.4636,2.4636,2.4636,2.4636,2.4636,2.4562,2.3042,2.2285,2.2198,2.0692,1.9972,1.9928,1.9983,1.9672,1.9254,1.9306,1.8042,1.6218,1.6218,1.5234,1.3868,1.3337,1.3182,1.3112,1.2656,1.2501,1.2501,1.2501,1.2454,1.2406,1.244,1.2454,1.2461,1.2494,1.2501,1.2501,1.2501,1.2501,1.2501,1.2501,1.2501,1.2501,1.2501,1.2501,1.2501,1.2501,1.2501,1.2501,1.2501,1.2501,1.2501,1.2501,1.2501,1.2501,1.2501,1.2501,1.2501,1.2501,1.244,1.24,1.24,1.24,1.24,1.24,1.2433,1.2454,1.2454,1.2481,1.2501,1.2501,1.2501,1.2501,1.2501,1.2501,1.2501,2.01,2.0834,2.1415,1.8972,1.84,1.838,1.8024,0.0,0.0,0.0,0.0,0.0,0.0,0.0,0.0,0.0,1.8424,0.0,0.0,0.0,0.0,0.0,0.0,0.0,0.0,0.0,0.0,0.0,0.0,2.4636,2.4636,2.4636,2.4636,2.4636,2.4636,2.4636,2.4636,2.4636,2.4636,2.4562,2.3648,2.319,2.319,2.1141,2.023,2.0155,1.9101,1.8572,1.8572,1.8572,1.8042,1.7208,1.7208,1.5922,1.4099,1.4099,1.3414,1.2501,1.2501,1.2501,1.2501,1.2501,1.2501,1.2501,1.2501,1.2501,1.2501,1.2501,1.2501,1.2501,1.2501,1.2501,1.2501,1.2501,1.2501,1.2501,1.2501,1.2501,1.2501,1.2501,1.2556,1.261,1.261,1.2664,1.2712,1.2712,1.2651,1.261,1.261,1.2549,1.2501,1.2501,1.2501,1.2501,1.2501,1.2501,1.2501,1.2501,1.2501,1.2501,1.2501,1.2501,1.2501,1.2501,1.2501,1.2501,1.2501,1.2501,1.2501,1.2501,1.2501,1.2501,1.9695,2.0654,2.1018,1.834,1.7582,1.7422,0.0,0.0,0.0,0.0,0.0,0.0,0.0,0.0,0.0,0.0,0.0,0.0,0.0,0.0,0.0,0.0,0.0,0.0,0.0,0.0,0.0,0.0,0.0,2.4636,2.4636,2.4636,2.4609,2.4569,2.4261,2.4088,2.4048,2.4435,2.4488,2.4105,2.2434,2.144,2.1066,1.9025,1.8118,1.8118,0.0,0.0,1.7663,1.7663,1.6599,1.5004,1.5004,1.4022,1.2501,1.2501,1.2501,1.2501,1.2501,1.2501,1.2501,1.2501,1.2501,1.2501,1.2501,1.2501,1.2501,1.2501,1.2501,1.2501,1.2501,1.2501,1.2501,1.2501,1.2501,1.2501,1.2501,1.2501,1.2508,1.2528,1.2637,1.2739,1.2759,1.2874,1.2963,1.2963,1.2847,1.2766,1.2766,1.2651,1.2562,1.2535,1.2535,1.2528,1.2501,1.2501,1.2501,1.2501,1.2501,1.2501,1.2501,1.2501,1.2515,1.2535,1.2535,1.2549,1.2569,1.2569,1.2569,1.2569,1.2569,1.2569,2.0699,2.0565,1.9817,1.6886,1.6513,1.6714,0.0,0.0,0.0,0.0,0.0,0.0,0.0,0.0,0.0,0.0,0.0,0.0,0.0,0.0,0.0,0.0,0.0,0.0,0.0,0.0,0.0,0.0,0.0,2.4636,2.4636,2.4636,2.4529,2.4275,2.2691,2.1752,2.145,2.3551,2.3722,2.2049,2.1751,2.0692,1.9025,1.6904,1.5998,1.5922,0.0,1.3414,1.3414,1.3414,1.3259,1.2958,1.2958,1.2804,1.2501,1.2501,1.2501,1.2501,1.2501,1.2501,1.2501,1.2501,1.2501,1.2501,1.2501,1.2501,1.2501,1.2501,1.2501,1.2501,1.2501,1.2501,1.2501,1.2501,1.2501,1.2501,1.2501,1.2501,1.2542,1.2671,1.2712,1.2773,1.2901,1.2942,1.2963,1.2963,1.2942,1.2929,1.2929,1.2901,1.284,1.2712,1.2698,1.2644,1.2515,1.2501,1.2501,1.2501,1.2501,1.2501,1.2501,1.2501,1.2562,1.2691,1.2698,1.2759,1.2888,1.2888,1.2888,1.2888,1.2888,1.2888,2.0138,1.936,1.8276,1.6891,1.7462,1.8263,0.0,0.0,0.0,0.0,0.0,0.0,0.0,0.0,0.0,0.0,0.0,0.0,0.0,0.0,0.0,0.0,0.0,0.0,0.0,0.0,0.0,0.0,0.0,0.0,2.4636,2.3574,2.2917,2.2702,2.0761,1.9599,1.9369,2.055,2.066,1.9809,1.8679,1.7774,1.6828,1.4782,1.3868,1.3791,0.0,1.2501,1.2501,1.2501,1.2501,1.2501,1.2501,1.2501,1.2501,1.2501,1.2501,1.2501,1.2501,1.2501,1.2501,1.2501,1.2501,1.2501,1.2501,1.2562,1.2623,1.2623,1.2623,1.2623,1.2623,1.2684,1.2752,1.2752,1.2752,1.2752,1.2752,1.2752,1.2773,1.284,1.2915,1.299,1.3064,1.3146,1.32,1.32,1.3125,1.3078,1.3078,1.301,1.2935,1.2861,1.2854,1.2827,1.2759,1.2752,1.2712,1.263,1.2623,1.2664,1.2745,1.2752,1.2779,1.2854,1.2854,1.2888,1.2963,1.2963,1.2963,1.2963,1.2963,1.2963,2.0058,1.8731,1.7326,1.738,0.0,0.0,1.9252,0.0,0.0,0.0,0.0,0.0,0.0,0.0,0.0,0.0,0.0,0.0,0.0,0.0,0.0,2.4596,2.4636,2.4636,0.0,0.0,0.0,0.0,0.0,0.0,2.4636,2.267,2.1464,2.1266,1.8843,1.739,1.7247,1.6822,1.6892,1.756,1.6077,1.5127,1.4782,1.3182,1.2501,1.2501,1.2501,1.2501,1.2501,1.2501,1.2501,1.2501,1.2501,1.2501,1.2501,1.2501,1.2501,1.2501,1.2501,1.2501,1.2501,1.2501,1.2501,1.2508,1.2542,1.2637,1.2739,1.2773,1.2807,1.2827,1.2793,1.2874,1.2963,1.2963,1.2963,1.2963,1.2963,1.2963,1.2969,1.3003,1.3098,1.3186,1.322,1.3322,1.3403,1.3403,1.3302,1.3227,1.3227,1.3132,1.3051,1.3017,1.301,1.2996,1.2963,1.2963,1.2929,1.284,1.28,1.2834,1.2956,1.2963,1.2976,1.301,1.301,1.303,1.3064,1.3064,1.3064,1.3064,1.3064,1.3064,2.1691,1.9777,1.7609,1.7889,0.0,0.0,0.0,0.0,0.0,0.0,0.0,0.0,0.0,0.0,0.0,0.0,0.0,0.0,0.0,0.0,0.0,0.0,0.0,0.0,0.0,0.0,0.0,0.0,0.0,0.0,2.4636,2.2571,2.1266,2.0922,1.7145,1.5021,1.4688,1.2926,1.3233,1.5477,1.5402,1.4378,1.2726,1.2579,1.2501,1.2501,1.2501,1.2501,1.2501,1.2501,1.2501,1.2501,1.2501,1.2501,1.2501,1.2501,1.2501,1.2501,1.2501,1.2501,1.2501,1.2501,1.2501,1.2528,1.2671,1.2718,1.2759,1.2901,1.3037,1.3112,1.2976,1.2949,1.2963,1.2963,1.2963,1.2963,1.2963,1.2963,1.3003,1.3132,1.3166,1.322,1.3363,1.3397,1.3403,1.3403,1.339,1.3383,1.3383,1.3376,1.3315,1.3173,1.3159,1.3105,1.2969,1.2963,1.301,1.3132,1.3017,1.2949,1.2963,1.2963,1.3024,1.3152,1.3159,1.3227,1.337,1.337,1.337,1.337,1.337,1.337,2.004,1.8751,1.7649,1.7943,0.0,0.0,0.0,0.0,0.0,0.0,0.0,0.0,0.0,0.0,0.0,0.0,0.0,0.0,0.0,0.0,0.0,0.0,0.0,0.0,0.0,0.0,0.0,0.0,0.0,0.0,2.2632,1.9338,1.7424,1.7198,1.4455,1.2837,1.2681,1.1972,1.2105,1.3096,1.3275,1.3015,1.2501,1.2501,1.2501,1.2501,1.2501,1.2501,1.2501,1.2501,1.2501,1.2501,1.2501,1.2501,1.2501,1.2501,1.2501,1.2501,1.2501,1.2562,1.2644,1.2644,1.2712,1.28,1.2854,1.2935,1.3017,1.3078,1.32,1.3281,1.3132,1.3166,1.3234,1.3234,1.3234,1.3234,1.3234,1.3234,1.3247,1.3302,1.3315,1.3336,1.339,1.3403,1.3403,1.3403,1.3403,1.3403,1.3403,1.3403,1.3376,1.3322,1.3315,1.3295,1.3241,1.3234,1.3254,1.3308,1.3173,1.3132,1.3227,1.3234,1.3261,1.3315,1.3315,1.3342,1.3403,1.3403,1.3403,1.3403,1.3403,1.3403,1.9234,1.8278,1.7649,0.0,0.0,0.0,0.0,0.0,0.0,0.0,0.0,0.0,0.0,0.0,0.0,0.0,0.0,0.0,0.0,0.0,0.0,0.0,0.0,0.0,0.0,0.0,0.0,0.0,0.0,0.0,0.0,1.7268,1.4992,1.4928,1.2867,1.1714,1.1619,1.1619,1.1687,1.183,1.1938,1.2149,1.2433,1.2481,1.2501,1.2501,1.2501,1.2501,1.2501,1.2501,1.2501,1.2501,1.2501,1.2501,1.2501,1.2501,1.2528,1.2576,1.2576,1.2671,1.28,1.28,1.2874,1.2969,1.3017,1.3098,1.3186,1.3227,1.3322,1.3376,1.3275,1.3322,1.3403,1.3403,1.3403,1.3403,1.3403,1.3403,1.3403,1.3403,1.3403,1.3403,1.3403,1.3403,1.3403,1.3403,1.3403,1.3403,1.3403,1.3403,1.3403,1.3403,1.3403,1.3403,1.3403,1.3403,1.3403,1.3403,1.3302,1.3295,1.3397,1.3403,1.3403,1.3403,1.3403,1.3403,1.3403,1.3403,1.3403,1.3403,1.3403,1.3403,1.9858,1.8708,1.7649,0.0,0.0,0.0,0.0,0.0,0.0,0.0,0.0,0.0,0.0,0.0,0.0,0.0,0.0,0.0,0.0,0.0,0.0,0.0,0.0,0.0,0.0,0.0,0.0,0.0,0.0,0.0,0.0,1.7044,1.4847,1.4847,1.2763,1.1619,1.1619,1.1619,1.1687,1.183,1.183,1.1993,1.2298,1.2433,1.2501,1.2501,1.2501,1.2501,1.2501,1.2501,1.2501,1.2501,1.2501,1.2501,1.2501,1.2501,1.2603,1.2732,1.2732,1.2834,1.2963,1.2963,1.2963,1.299,1.3132,1.3173,1.3207,1.3356,1.3403,1.3403,1.3403,1.3403,1.3403,1.3403,1.3403,1.3403,1.3403,1.3403,1.3403,1.3403,1.3403,1.3403,1.3403,1.3403,1.3403,1.3403,1.3403,1.3403,1.3403,1.3403,1.3403,1.3403,1.3403,1.3403,1.3403,1.3403,1.3403,1.3403,1.3403,1.3403,1.3403,1.3403,1.3403,1.3403,1.3403,1.3403,1.3403,1.3403,1.3403,1.3403,1.3403,1.3403,1.8043,1.7735,0.0,0.0,0.0,0.0,0.0,0.0,0.0,0.0,0.0,0.0,0.0,0.0,0.0,2.3247,2.3754,2.4209,0.0,0.0,0.0,0.0,0.0,0.0,0.0,0.0,0.0,0.0,0.0,0.0,0.0,1.405,1.2611,1.2611,1.1928,1.1619,1.1619,1.1619,1.164,1.1681,1.1782,1.1993,1.2291,1.2332,1.2406,1.2501,1.2501,1.2501,1.2501,1.2501,1.2501,1.2501,1.2501,1.2569,1.2664,1.2664,1.2759,1.2895,1.2895,1.299,1.3112,1.3112,1.318,1.3275,1.3322,1.3336,1.3342,1.339,1.3403,1.3403,1.3403,1.3403,1.3403,1.3403,1.3403,1.3403,1.3403,1.3403,1.3403,1.3403,1.3403,1.3403,1.3403,1.3403,1.3403,1.3403,1.3403,1.3403,1.3403,1.3403,1.3403,1.3403,1.3403,1.3403,1.3403,1.3403,1.3403,1.3403,1.3403,1.3403,1.3403,1.3403,1.3403,1.3403,1.3403,1.3403,1.3403,1.3403,1.3403,1.3403,1.3403,1.3403,1.7804,0.0,0.0,0.0,0.0,0.0,0.0,0.0,0.0,0.0,0.0,0.0,0.0,0.0,0.0,2.3607,2.3968,0.0,0.0,0.0,0.0,0.0,0.0,0.0,0.0,0.0,0.0,0.0,0.0,0.0,0.0,1.2726,1.1619,1.1619,1.1619,1.1619,1.1619,1.1619,1.1619,1.1619,1.1708,1.187,1.2108,1.2169,1.2244,1.2332,1.2393,1.242,1.242,1.2481,1.2501,1.2501,1.2501,1.2556,1.2651,1.2705,1.2827,1.2969,1.3024,1.3139,1.3261,1.3261,1.3322,1.3403,1.3403,1.3403,1.3403,1.3403,1.3403,1.3403,1.3403,1.3403,1.3403,1.3403,1.3403,1.3403,1.3403,1.3403,1.3403,1.3403,1.3403,1.3403,1.3403,1.3403,1.3403,1.3403,1.3403,1.3403,1.3403,1.3403,1.3403,1.3403,1.3403,1.3403,1.3403,1.3403,1.3403,1.3403,1.3403,1.3403,1.3403,1.3403,1.3403,1.3403,1.3403,1.3403,1.3403,1.3403,1.3403,1.3403,1.3403,1.3403,0.0,0.0,0.0,0.0,0.0,0.0,0.0,0.0,0.0,0.0,0.0,0.0,0.0,0.0,0.0,0.0,0.0,0.0,0.0,0.0,0.0,0.0,0.0,0.0,0.0,0.0,0.0,0.0,0.0,0.0,0.0,1.2538,1.1619,1.1619,1.1606,1.1606,1.1619,1.1606,1.1606,1.1619,1.1619,1.1687,1.1816,1.1972,1.2047,1.2149,1.2223,1.2291,1.2298,1.244,1.2501,1.2501,1.2501,1.2508,1.2542,1.2698,1.2847,1.3003,1.3146,1.3288,1.3403,1.3403,1.3403,1.3403,1.3403,1.3403,1.3403,1.3403,1.3403,1.3403,1.3403,1.3403,1.3403,1.3403,1.3403,1.3403,1.3403,1.3403,1.3403,1.3403,1.3403,1.3403,1.3403,1.3403,1.3403,1.3403,1.3403,1.3403,1.3403,1.3403,1.3403,1.3403,1.3403,1.3403,1.3403,1.3403,1.3403,1.3403,1.3403,1.3403,1.3403,1.3403,1.3403,1.3403,1.3403,1.3403,1.3403,1.3403,1.3403,1.3403,1.3403,1.3403,0.0,0.0,0.0,0.0,0.0,0.0,0.0,0.0,0.0,0.0,0.0,0.0,0.0,0.0,0.0,0.0,0.0,0.0,0.0,0.0,0.0,0.0,0.0,0.0,0.0,0.0,0.0,0.0,0.0,0.0,1.2252,1.1828,1.1619,1.1619,1.1504,1.1497,1.1619,1.1497,1.1497,0.0,1.1619,1.1633,1.1674,1.1816,1.1945,1.2149,1.2223,1.2291,1.2298,1.244,1.2501,1.2501,1.2501,1.2576,1.2698,1.2854,1.3003,1.3146,1.3302,1.337,1.3403,1.3403,1.3403,1.3403,1.3403,1.3403,1.3403,1.3403,1.3403,1.3403,1.3403,1.3403,1.3403,1.3403,1.3403,1.3403,1.3403,1.3403,1.3403,1.3403,1.3403,1.3403,1.3403,1.3403,1.3403,1.3403,1.3403,1.3403,1.3403,1.3403,1.3403,1.3403,1.3403,1.3403,1.3403,1.3403,1.3403,1.3403,1.3403,1.3403,1.3403,1.3403,1.3403,1.3403,1.3403,1.3403,1.3403,1.3403,1.3403,1.3403,1.3403,1.3403,0.0,0.0,0.0,0.0,0.0,0.0,0.0,0.0,0.0,0.0,0.0,0.0,0.0,0.0,0.0,0.0,0.0,0.0,0.0,0.0,0.0,0.0,0.0,0.0,0.0,0.0,0.0,0.0,0.0,1.2602,1.1619,1.1552,1.1511,1.1511,1.1362,1.1321,1.1402,1.1396,1.143,1.1511,1.1586,1.1619,1.1619,1.1694,1.1775,1.1864,1.2088,1.2182,1.2196,1.2413,1.2501,1.2501,1.2501,1.2549,1.2637,1.2793,1.2942,1.3091,1.3241,1.3342,1.3403,1.3403,1.3403,1.3403,1.3403,1.3403,1.3403,1.3403,1.3403,1.3403,1.3403,1.3403,1.3403,1.3403,1.3403,1.3403,1.3403,1.3403,1.3403,1.3403,1.3403,1.3403,1.3403,1.3403,1.3403,1.3403,1.3403,1.3403,1.3403,1.3403,1.3403,1.3403,1.3403,1.3431,1.3505,1.3512,1.3539,1.3607,1.3546,1.3512,1.3512,1.3437,1.3403,1.3403,1.3403,1.3403,1.3403,1.3403,1.3403,1.3403,1.3403,1.3403,0.0,0.0,0.0,0.0,0.0,0.0,0.0,0.0,0.0,0.0,0.0,0.0,0.0,0.0,0.0,0.0,0.0,0.0,0.0,0.0,0.0,0.0,0.0,0.0,0.0,0.0,0.0,0.0,0.0,1.1538,1.1538,1.1423,1.1355,1.1355,1.1206,1.1138,1.1234,1.1267,1.1341,1.1396,1.1545,1.1619,1.1619,1.1619,1.1619,1.1633,1.1932,1.2135,1.2088,1.2379,1.2501,1.2501,1.2501,1.2501,1.2522,1.2671,1.2813,1.2942,1.3112,1.3254,1.3363,1.339,1.3403,1.3403,1.3403,1.3403,1.3403,1.3403,1.3403,1.3403,1.3403,1.3403,1.3403,1.3403,1.3403,1.3403,1.3403,1.3403,1.3403,1.3403,1.3403,1.3403,1.3403,1.3403,1.3403,1.3403,1.3403,1.3403,1.3403,1.3403,1.3403,1.3403,1.3403,1.3464,1.3614,1.3627,1.3688,1.3831,1.3729,1.3654,1.3634,1.3505,1.3424,1.3403,1.3403,1.3403,1.3403,1.3403,1.3403,1.3403,1.3403,1.3403,0.0,0.0,0.0,0.0,0.0,0.0,0.0,0.0,0.0,0.0,0.0,0.0,0.0,0.0,0.0,0.0,0.0,0.0,0.0,0.0,0.0,0.0,0.0,0.0,0.0,0.0,0.0,0.0,1.329,1.1226,1.1226,1.1275,1.1261,1.1261,1.105,1.1036,1.1227,1.1056,1.1138,1.1396,1.1545,1.1619,1.1619,1.1619,1.1619,1.1633,1.1932,1.2135,1.2088,1.2379,1.2501,1.2501,1.2501,1.2501,1.2522,1.2671,1.2745,1.28,1.3078,1.3186,1.3227,1.3356,1.3403,1.3403,1.3403,1.3403,1.3403,1.3403,1.3403,1.3403,1.3403,1.3403,1.3403,1.3403,1.3403,1.3403,1.3403,1.3403,1.3403,1.3403,1.3403,1.3403,1.3403,1.3403,1.3403,1.3403,1.3403,1.3403,1.3403,1.3403,1.3403,1.3403,1.3403,1.3464,1.3614,1.3627,1.3688,1.3831,1.3824,1.3756,1.3634,1.3607,1.3539,1.3403,1.3403,1.3403,1.3403,1.3403,1.3403,1.3403,1.3403,1.3403,0.0,0.0,0.0,0.0,0.0,0.0,0.0,0.0,0.0,0.0,0.0,0.0,0.0,0.0,0.0,0.0,0.0,0.0,0.0,0.0,0.0,0.0,0.0,0.0,0.0,0.0,0.0,0.0,1.2153,1.1234,1.1234,1.1084,1.1043,1.1043,1.09,1.0853,1.0914,1.0934,1.1097,1.1389,1.1457,1.1538,1.1619,1.1619,1.1619,1.1633,1.1843,1.1979,1.2081,1.2291,1.2427,1.2501,1.2501,1.2501,1.2508,1.2576,1.2657,1.2759,1.2976,1.3105,1.32,1.3349,1.3403,1.3403,1.3403,1.3403,1.3403,1.3403,1.3403,1.3403,1.3403,1.3403,1.3403,1.3403,1.3403,1.3403,1.3403,1.3403,1.3403,1.3403,1.3403,1.3403,1.3403,1.3403,1.3431,1.3512,1.3532,1.3559,1.3634,1.3648,1.3648,1.3648,1.358,1.362,1.3858,1.3797,1.3851,1.4082,1.4021,1.3905,1.3756,1.3675,1.3559,1.3403,1.3403,1.3403,1.3403,1.3403,1.3403,1.3403,1.3403,1.3403,0.0,0.0,0.0,0.0,0.0,0.0,0.0,0.0,0.0,0.0,0.0,0.0,0.0,0.0,0.0,0.0,0.0,0.0,0.0,0.0,0.0,0.0,0.0,0.0,0.0,0.0,0.0,0.0,1.1344,1.105,1.105,1.0948,1.0826,1.0826,1.0778,1.0717,1.0717,1.0806,1.1077,1.1335,1.1369,1.147,1.1619,1.1619,1.1619,1.1626,1.1769,1.1918,1.2074,1.223,1.2372,1.2501,1.2501,1.2501,1.2501,1.2501,1.2596,1.2752,1.2908,1.3057,1.32,1.3349,1.3403,1.3403,1.3403,1.3403,1.3403,1.3403,1.3403,1.3403,1.3403,1.3403,1.3403,1.3403,1.3403,1.3403,1.3403,1.3431,1.3458,1.3458,1.3492,1.3512,1.3512,1.3512,1.3553,1.3668,1.3682,1.3722,1.3824,1.3838,1.3838,1.3838,1.3743,1.379,1.4048,1.3966,1.4014,1.4285,1.419,1.4041,1.3851,1.3736,1.3593,1.3403,1.3403,1.3403,1.3403,1.3403,1.3403,1.3403,1.3403,1.3403,0.0,0.0,0.0,0.0,0.0,0.0,0.0,0.0,0.0,0.0,0.0,0.0,0.0,0.0,0.0,0.0,0.0,0.0,0.0,0.0,0.0,0.0,0.0,0.0,0.0,0.0,0.0,0.0,1.1814,1.0744,1.0744,1.0738,1.0731,1.0731,1.0724,1.0717,1.0717,1.0806,1.1023,1.1179,1.1321,1.147,1.1619,1.1619,1.1619,1.1626,1.1769,1.1918,1.2074,1.223,1.2372,1.2501,1.2501,1.2501,1.2501,1.2501,1.2596,1.2752,1.2908,1.3057,1.32,1.3349,1.3403,1.3403,1.3403,1.3403,1.3403,1.3403,1.3403,1.3403,1.3403,1.3403,1.3403,1.3403,1.3403,1.3403,1.3403,1.3512,1.3614,1.3614,1.3729,1.3817,1.3817,1.3817,1.3824,1.3831,1.3831,1.3831,1.3838,1.3838,1.3838,1.3838,1.3745,1.3899,1.4055,1.4061,1.4129,1.4292,1.4292,1.4156,1.3851,1.3745,1.3695,1.3403,1.3403,1.3403,1.3403,1.3403,1.3403,1.3403,1.3403,1.3403,0.0,0.0,0.0,0.0,0.0,0.0,0.0,0.0,0.0,0.0,0.0,0.0,0.0,0.0,0.0,0.0,0.0,0.0,0.0,0.0,0.0,0.0,0.0,0.0,0.0,0.0,0.0,0.0,0.0,1.0717,1.0717,1.0717,1.0717,1.0717,1.0717,1.0717,1.0717,1.0772,1.0921,1.1234,1.1219,1.1375,1.1619,1.1619,1.1619,1.1619,1.1674,1.1775,1.1925,1.2081,1.223,1.2372,1.2467,1.2501,1.2501,1.2501,1.2596,1.2752,1.2908,1.3057,1.32,1.3349,1.3403,1.3403,1.3403,1.3403,1.3403,1.3403,1.3403,1.3403,1.3403,1.3403,1.3403,1.3403,1.3478,1.3546,1.3546,1.3593,1.3654,1.3749,1.3804,1.3838,1.3838,1.3838,1.3871,1.3973,1.3987,1.4027,1.4122,1.4136,1.4136,1.4136,1.4048,1.4055,1.4204,1.4129,1.4136,1.4292,1.4299,1.4204,1.3994,1.3987,1.3892,1.3688,1.3593,1.3498,1.3403,1.3403,1.3403,1.3403,1.3403,1.3403,0.0,0.0,0.0,0.0,0.0,0.0,0.0,0.0,0.0,0.0,0.0,0.0,0.0,0.0,0.0,0.0,0.0,0.0,0.0,0.0,0.0,0.0,0.0,0.0,0.0,0.0,0.0,0.0,0.0,0.0,1.0717,1.0717,1.0717,1.0717,1.0717,1.0717,1.0717,1.0717,1.0867,1.1234,1.1234,1.1321,1.1619,1.1619,1.1619,1.1619,1.1619,1.1728,1.1918,1.202,1.2182,1.2372,1.2467,1.2501,1.2508,1.2562,1.2678,1.2827,1.2983,1.3125,1.3268,1.337,1.3403,1.3403,1.3403,1.3403,1.3403,1.3403,1.3403,1.3403,1.3403,1.3403,1.341,1.3464,1.3553,1.3654,1.3756,1.3777,1.3804,1.3899,1.396,1.3994,1.3994,1.3994,1.4027,1.4136,1.415,1.4183,1.4285,1.4299,1.4299,1.4299,1.4211,1.419,1.4292,1.4204,1.419,1.4292,1.4299,1.4231,1.4082,1.4075,1.4,1.3759,1.3702,1.36,1.3546,1.3451,1.3403,1.3403,1.3403,1.3403,0.0,0.0,0.0,0.0,0.0,0.0,0.0,0.0,0.0,0.0,0.0,0.0,0.0,0.0,0.0,0.0,0.0,0.0,0.0,0.0,0.0,0.0,0.0,0.0,0.0,0.0,0.0,0.0,1.0717,1.0717,1.0717,1.0717,1.0717,1.0717,1.0717,1.0717,1.0717,1.0717,1.0867,1.1234,1.1234,1.1321,1.1619,1.1619,1.1619,1.1619,1.1619,1.1789,1.2135,1.2135,1.223,1.2494,1.2501,1.2501,1.2522,1.2671,1.2827,1.2983,1.3125,1.3275,1.3403,1.3403,1.3403,1.3403,1.3403,1.3403,1.3403,1.3403,1.3403,1.3403,1.3403,1.3403,1.3444,1.3593,1.3634,1.3722,1.4007,1.4075,1.4082,1.4082,1.4197,1.4299,1.4299,1.4299,1.4299,1.4299,1.4299,1.4299,1.4299,1.4299,1.4299,1.4299,1.4299,1.4299,1.4299,1.4299,1.4299,1.4299,1.4299,1.4231,1.4082,1.4082,1.4007,1.3858,1.3715,1.3709,1.3838,1.3546,1.341,1.341,1.3403,1.3403,1.348,0.0,0.0,0.0,0.0,0.0,0.0,0.0,0.0,0.0,0.0,0.0,0.0,0.0,0.0,0.0,0.0,0.0,0.0,0.0,0.0,0.0,0.0,0.0,0.0,0.0,0.0,0.0,1.0717,1.0717,1.0717,1.0717,1.0717,1.0717,1.0717,1.0717,1.0717,1.0717,1.0867,1.1234,1.1234,1.1321,1.1619,1.1619,1.1619,1.1619,1.1619,1.1789,1.2135,1.2135,1.2176,1.2359,1.2461,1.2501,1.2522,1.2671,1.2827,1.2983,1.3125,1.3275,1.3403,1.3403,1.3403,1.3403,1.3403,1.3403,1.3403,1.3403,1.3403,1.3403,1.3403,1.3485,1.3573,1.362,1.3797,1.3973,1.4055,1.4156,1.4238,1.4238,1.4272,1.4299,1.4299,1.4299,1.4299,1.4299,1.4299,1.4299,1.4299,1.4299,1.4299,1.4299,1.4299,1.4299,1.4299,1.4299,1.4299,1.4299,1.4299,1.4278,1.4238,1.4238,1.4217,1.4177,1.4027,1.3912,1.3838,1.3654,1.3566,1.3566,1.3451,1.3403,0.0,0.0,0.0,0.0,0.0,0.0,0.0,1.6901,0.0,0.0,0.0,0.0,0.0,0.0,0.0,0.0,0.0,0.0,0.0,0.0,0.0,0.0,0.0,0.0,0.0,1.5265,1.3643,1.0916,1.0717,1.0717,1.0717,1.0717,1.0717,1.0717,1.0717,1.0717,1.0717,1.0717,1.0867,1.1234,1.1234,1.1321,1.1619,1.1619,1.1619,1.1619,1.1619,1.1789,1.2135,1.2135,1.2189,1.2386,1.2467,1.2501,1.2528,1.2745,1.2881,1.299,1.32,1.3322,1.3403,1.3403,1.3403,1.3403,1.3403,1.3403,1.3403,1.3403,1.3403,1.3403,1.3403,1.3512,1.3641,1.3702,1.3899,1.4089,1.415,1.4238,1.4299,1.4299,1.4299,1.4299,1.4299,1.4299,1.4299,1.4299,1.4299,1.4299,1.4299,1.4299,1.4299,1.4299,1.4299,1.4299,1.4299,1.4299,1.4299,1.4299,1.4299,1.4299,1.4299,1.4299,1.4299,1.4299,1.415,1.3994,1.3838,1.3695,1.3593,1.3532,1.3444,1.3403,0.0,0.0,0.0,0.0,0.0,0.0,1.6996,1.682,1.6593,0.0,0.0,0.0,0.0,0.0,0.0,0.0,0.0,0.0,0.0,0.0,0.0,0.0,0.0,0.0,1.6108,1.4493,1.2808,1.085,1.0717,1.0717,1.0717,1.0717,1.0717,1.0717,1.0717,1.0717,1.0717,1.0717,1.0867,1.1234,1.1234,1.1321,1.1619,1.1619,1.1619,1.1619,1.1619,1.1789,1.2135,1.2135,1.2237,1.2501,1.2501,1.2515,1.2562,1.2854,1.2969,1.3024,1.3302,1.3403,1.3403,1.3403,1.3403,1.3403,1.3403,1.3403,1.3403,1.3403,1.3403,1.3403,1.3403,1.3526,1.3682,1.381,1.3973,1.4136,1.4272,1.4299,1.4299,1.4299,1.4299,1.4299,1.4299,1.4299,1.4299,1.4299,1.4299,1.4299,1.4299,1.4299,1.4299,1.4299,1.4299,1.4299,1.4299,1.4299,1.4299,1.4299,1.4299,1.4299,1.4299,1.4299,1.4299,1.4299,1.4136,1.398,1.3838,1.3695,1.3559,1.3424,1.341,1.3403,1.5231,1.5231,1.5231,1.487,0.0,0.0,1.4559,1.487,1.5444,0.0,0.0,0.0,0.0,0.0,0.0,0.0,0.0,0.0,0.0,0.0,0.0,0.0,0.0,0.0,1.6237,1.5589,1.4101,1.0916,1.0717,1.0717,1.0717,1.0717,1.0717,1.0717,1.0717,1.0717,1.0717,1.0717,1.0867,1.1234,1.1234,1.1321,1.1619,1.1619,1.1619,1.1619,1.1619,1.1789,1.2135,1.2135,1.2237,1.2501,1.2501,1.2576,1.2705,1.2895,1.303,1.3159,1.3336,1.3403,1.3403,1.3403,1.3403,1.3403,1.3403,1.3403,1.3403,1.3403,1.3403,1.3403,1.3403,1.36,1.3804,1.3745,1.4055,1.4265,1.4292,1.4299,1.4299,1.4299,1.4299,1.4299,1.4299,1.4299,1.4299,1.4299,1.4299,1.4299,1.4299,1.4299,1.4299,1.4299,1.4299,1.4299,1.4299,1.4299,1.4299,1.4299,1.4299,1.4299,1.4299,1.4299,1.4299,1.4299,1.4027,1.3871,1.3838,1.3695,1.3614,1.358,1.3458,1.3403,1.5778,1.5618,1.5578,1.5431,0.0,0.0,0.0,1.4616,1.4643,1.5805,0.0,0.0,0.0,0.0,0.0,0.0,0.0,0.0,0.0,0.0,0.0,0.0,0.0,0.0,1.6172,1.5135,1.3521,1.0916,1.0717,1.0717,1.0717,1.0717,1.0717,1.0717,1.0717,1.0717,1.0717,1.0717,1.0867,1.1234,1.1234,1.1321,1.1619,1.1619,1.1619,1.1619,1.1619,1.1789,1.2135,1.2135,1.2237,1.2501,1.2501,1.2596,1.2752,1.2901,1.3051,1.3193,1.3349,1.3403,1.3403,1.3403,1.3403,1.3403,1.3403,1.3403,1.3403,1.3403,1.3403,1.3417,1.3498,1.3675,1.3858,1.3939,1.4129,1.4299,1.4299,1.4299,1.4299,1.4299,1.4299,1.4299,1.4299,1.4299,1.4299,1.4299,1.4299,1.4299,1.4299,1.4299,1.4299,1.4299,1.4299,1.4299,1.4299,1.4299,1.4299,1.4299,1.4299,1.4299,1.4299,1.4299,1.4299,1.4299,1.4075,1.3953,1.3953,1.3736,1.3593,1.3512,1.3437,1.3403,0.0,0.0,0.0,0.0,0.0,1.5297,0.0,0.0,0.0,1.5524,0.0,0.0,0.0,0.0,0.0,0.0,0.0,0.0,0.0,0.0,0.0,0.0,0.0,0.0,0.0,1.3858,1.2076,1.0777,1.0616,1.0595,1.0711,1.0717,1.0717,1.0717,1.0717,1.0717,1.0717,1.0751,1.09,1.1234,1.1261,1.1355,1.1619,1.1619,1.1619,1.1619,1.1619,1.1789,1.2135,1.2135,1.2237,1.2501,1.2501,1.2617,1.2793,1.2915,1.3071,1.3234,1.3356,1.3403,1.3403,1.3403,1.3403,1.3403,1.3403,1.3403,1.3403,1.3403,1.3424,1.3471,1.36,1.3756,1.3919,1.4041,1.419,1.4299,1.4299,1.4299,1.4299,1.4299,1.4299,1.4299,1.4299,1.4299,1.4299,1.4299,1.4299,1.4299,1.4299,1.4299,1.4299,1.4299,1.4299,1.4299,1.4299,1.4299,1.4299,1.4299,1.4299,1.4299,1.4299,1.4299,1.4299,1.4299,1.415,1.4075,1.4075,1.3777,1.3566,1.3444,1.3417,1.3403,0.0,0.0,0.0,0.0,1.6717,0.0,0.0,0.0,1.4963,1.4066,0.0,0.0,0.0,0.0,0.0,0.0,0.0,0.0,0.0,0.0,0.0,0.0,0.0,0.0,0.0,1.2098,1.0329,1.0677,1.0222,1.0154,1.069,1.0717,1.0717,1.0717,1.0717,1.0717,1.0717,1.0786,1.1002,1.1234,1.1301,1.1457,1.1619,1.1619,1.1619,1.1619,1.1619,1.1789,1.2135,1.2135,1.2237,1.2501,1.2501,1.2678,1.2935,1.2956,1.3139,1.3376,1.3397,1.3403,1.3403,1.3403,1.3403,1.3403,1.3403,1.3403,1.3403,1.3403,1.3498,1.3607,1.3627,1.3838,1.4048,1.4068,1.419,1.4299,1.4299,1.4299,1.4299,1.4299,1.4299,1.4299,1.4299,1.4299,1.4299,1.4299,1.4299,1.4299,1.4299,1.4299,1.4299,1.4299,1.4299,1.4299,1.4299,1.4299,1.4299,1.4299,1.4299,1.4299,1.4299,1.4299,1.4299,1.4299,1.415,1.4075,1.4075,1.3777,1.362,1.36,1.3464,1.3403,0.0,0.0,0.0,0.0,0.0,0.0,1.5017,0.0,1.4292,0.0,0.0,0.0,0.0,0.0,0.0,0.0,0.0,0.0,0.0,0.0,0.0,0.0,0.0,0.0,0.0,0.0,0.0,0.0,1.0066,1.0046,1.0561,1.067,1.0717,1.0717,1.0717,1.0765,1.0853,1.0847,1.1063,1.1294,1.1362,1.147,1.1619,1.1619,1.1619,1.1626,1.1708,1.1864,1.2142,1.2155,1.2318,1.2501,1.2501,1.2691,1.2963,1.2963,1.3146,1.3403,1.3403,1.3403,1.3403,1.3403,1.3403,1.3403,1.3403,1.3403,1.3417,1.3505,1.358,1.3668,1.3844,1.398,1.4095,1.4183,1.4251,1.4299,1.4299,1.4299,1.4299,1.4299,1.4299,1.4299,1.4299,1.4299,1.4299,1.4299,1.4299,1.4299,1.4299,1.4299,1.4299,1.4299,1.4299,1.4299,1.4299,1.4299,1.4299,1.4299,1.4299,1.4299,1.4299,1.4299,1.4299,1.4299,1.4238,1.4204,1.4204,1.3987,1.3838,1.3743,1.3512,1.3451,1.841,0.0,0.0,0.0,0.0,0.0,0.0,0.0,0.0,0.0,0.0,0.0,0.0,0.0,0.0,0.0,0.0,0.0,0.0,0.0,0.0,0.0,0.0,0.0,0.0,0.0,0.0,0.0,0.0,0.9802,1.046,1.0595,1.0677,1.0717,1.0717,1.0725,1.088,1.0921,1.1138,1.1389,1.1436,1.1511,1.1619,1.1619,1.1619,1.1626,1.1769,1.1918,1.2074,1.223,1.2372,1.2501,1.2501,1.2691,1.2963,1.2963,1.3146,1.3403,1.3403,1.3403,1.3403,1.3403,1.3403,1.3403,1.3403,1.3403,1.3431,1.3587,1.3654,1.3743,1.4007,1.4102,1.4163,1.4272,1.4299,1.4299,1.4299,1.4299,1.4299,1.4299,1.4299,1.4299,1.4299,1.4299,1.4299,1.4299,1.4299,1.4299,1.4299,1.4299,1.4299,1.4299,1.4299,1.4299,1.4299,1.4299,1.4299,1.4299,1.4299,1.4299,1.4299,1.4299,1.4299,1.4299,1.4299,1.4299,1.4299,1.415,1.4014,1.3899,1.36,1.3498,0.0,0.0,0.0,1.7301,0.0,0.0,0.0,0.0,1.5478,0.0,0.0,0.0,0.0,0.0,0.0,0.0,0.0,0.0,0.0,0.0,0.0,0.0,0.0,0.0,0.0,0.0,0.0,0.0,0.0,0.0,1.0432,1.0493,1.0568,1.0717,1.0717,1.0725,1.088,1.1084,1.1233,1.1396,1.1545,1.1613,1.1619,1.1619,1.1619,1.1626,1.1769,1.1918,1.2074,1.223,1.2372,1.2501,1.2501,1.2691,1.2963,1.2963,1.3146,1.3403,1.3403,1.3403,1.3403,1.3403,1.3403,1.3403,1.3403,1.3403,1.3431,1.3587,1.3729,1.3871,1.4034,1.4183,1.4292,1.4299,1.4299,1.4299,1.4299,1.4299,1.4299,1.4299,1.4299,1.4299,1.4299,1.4299,1.4299,1.4299,1.4299,1.4299,1.4299,1.4299,1.4299,1.4299,1.4299,1.4299,1.4299,1.4299,1.4299,1.4299,1.4299,1.4299,1.4299,1.4299,1.4299,1.4299,1.4299,1.4299,1.4299,1.415,1.4068,1.4055,1.3763,1.3546,0.0,0.0,2.0641,1.8664,0.0,0.0,0.0,0.0,0.0,0.0,0.0,0.0,0.0,0.0,0.0,0.0,0.0,0.0,0.0,0.0,0.0,0.0,0.0,0.0,0.0,0.0,0.0,0.0,0.9606,0.0,0.0,1.0385,1.0514,1.0568,1.067,1.0839,1.109,1.1138,1.1294,1.1545,1.1592,1.1619,1.1619,1.1619,1.1674,1.1769,1.1918,1.2067,1.2223,1.2372,1.2461,1.2515,1.2617,1.2779,1.2963,1.2963,1.3146,1.3403,1.3403,1.3403,1.3403,1.3403,1.3403,1.3403,1.3403,1.3471,1.358,1.3729,1.3878,1.4027,1.4183,1.4265,1.4299,1.4299,1.4299,1.4299,1.4299,1.4299,1.4299,1.4299,1.4299,1.4299,1.4299,1.4299,1.4299,1.4299,1.4299,1.4299,1.4299,1.4299,1.4299,1.4299,1.4299,1.4299,1.4299,1.4299,1.4299,1.4299,1.4299,1.4299,1.4299,1.4299,1.4299,1.4299,1.4299,1.4299,1.4299,1.4245,1.4116,1.3919,1.3919,1.3838,2.1296,2.1403,0.0,1.9626,1.8945,0.0,1.6286,0.0,1.65,0.0,0.0,0.0,0.0,0.0,0.0,0.0,0.0,0.0,0.0,0.0,0.0,0.0,0.0,0.0,0.0,0.0,1.039,1.0517,0.0,0.0,0.0,0.0,1.0439,1.0487,1.0643,1.086,1.1227,1.1234,1.1314,1.1619,1.1619,1.1619,1.1619,1.1619,1.1694,1.1837,1.1993,1.2149,1.2298,1.244,1.2501,1.2515,1.2671,1.2827,1.305,1.3017,1.3193,1.3403,1.3403,1.3403,1.3403,1.3403,1.3403,1.341,1.3464,1.3553,1.3668,1.3865,1.3994,1.4109,1.4258,1.4299,1.4299,1.4299,1.4299,1.4299,1.4299,1.4299,1.4299,1.4299,1.4299,1.4299,1.4299,1.4299,1.4299,1.4299,1.4299,1.4299,1.4299,1.4299,1.4299,1.4299,1.4299,1.4299,1.4299,1.4299,1.4299,1.4299,1.4299,1.4299,1.4299,1.4299,1.4299,1.4299,1.4299,1.4299,1.4299,1.4299,1.417,1.3926,1.4082,1.4068]}]]